<?xml version="1.0" encoding="UTF-8" standalone="no" ?>
<gpx xmlns="http://www.topografix.com/GPX/1/1" xmlns:xsi="http://www.w3.org/2001/XMLSchema-instance" xsi:schemaLocation="http://www.topografix.com/GPX/1/1 http://www.topografix.com/GPX/1/1/gpx.xsd" version="1.1" creator="VisuGPX - https://www.visugpx.com">
  <metadata>
    <name>Je reviens de loin, lundi 7 fevrier 2022</name>
    <desc><![CDATA[Heure de départ: 14:45 Heure d'arrivée: 16:13 Distance: 18,4 km Temps déplacement: 01:23 
Vitesse moyenne: 12,52 km/h Vitesse moyenne mouv.: 13,14 km/h
Après les rafales de vent de la nuit, c'était plus calme. Température de 6 à7° et grand soleil (pas d'anorack cette fois).
J'ai battu mon record de distance 2022 !
A la sortie d'Epenoux, en direction d'Auxon, je me suis fait serré par un camion, heureusement comme il avait klaxoné j'ai foncé sur l'accotement ( à la sortie de la chicane une voiture s'était mise à le dépasser et il ne pouvait donc pas me laisser de place). ]]></desc>
  </metadata>
  <wpt lat="47.6444" lon="6.18322">
    <ele>224.9</ele>
    <name><![CDATA[0000422]]></name>
    <type><![CDATA[Point de départ]]></type>
  </wpt>
  <wpt lat="47.64453" lon="6.18325">
    <ele>226.8</ele>
    <name><![CDATA[0000423]]></name>
    <desc><![CDATA[<p><br /><h3>Nom: Segment: 1</h3><br />Heure de départ: 02/07/2022 14:45<br/>Heure d'arrivée: 02/07/2022 16:13<br/>Distance: 18,4km (01:27)<br/>Temps déplacement: 01:23<br/>Vitesse moyenne: 12,52 km/h<br/>Vitesse moyenne mouv.: 13,14 km/h<br/>Vitesse Max.: 44,16 km/h<br/>Altitude minimale: 179 m<br/>Altitude maximale: 274 m<br/>Vitesse de montée: 849,8 m/h<br/>Vitesse de descente: -796,6 m/h<br/>Gain d'altitude: 553 m<br/>Perte d'altitude: -509 m<br/>Temps de montée: 00:39<br/>Temps de descente: 00:38<br/></p>]]></desc>
    <type><![CDATA[Point d'arrivée]]></type>
  </wpt>
  <trk>
    <name><![CDATA[2022-02-07 14:45]]></name>
    <desc><![CDATA[<p>Heure de départ: 02/07/2022 14:45<br/>Heure d'arrivée: 02/07/2022 16:13<br/>Distance: 18,4 km (01:27)<br/>Temps déplacement: 01:23<br/>Vitesse moyenne: 12,52 km/h<br/>Vitesse moyenne mouv.: 13,14 km/h<br/>Vitesse Max.: 44,16 km/h<br/>Altitude minimale: 179 m<br/>Altitude maximale: 274 m<br/>Vitesse de montée: 273 m/h<br/>Vitesse de descente: -312,4 m/h<br/>Gain d'altitude: 199 m<br/>Perte d'altitude: -154 m<br/>Temps de montée: 00:43<br/>Temps de descente: 00:29<br/></p><hr align="center" width="480" style="height: 2px; width: 517px"/>]]></desc>
    <trkseg>
      <trkpt lat="47.6444" lon="6.18322">
        <ele>224.9</ele>
        <time>2022-02-07T13:45:43Z</time>
      </trkpt>
      <trkpt lat="47.64444" lon="6.18316">
        <ele>224.7</ele>
        <time>2022-02-07T13:46:04Z</time>
      </trkpt>
      <trkpt lat="47.64442" lon="6.18308">
        <ele>224.1</ele>
        <time>2022-02-07T13:46:07Z</time>
      </trkpt>
      <trkpt lat="47.64438" lon="6.18302">
        <ele>223.6</ele>
        <time>2022-02-07T13:46:10Z</time>
      </trkpt>
      <trkpt lat="47.64435" lon="6.18295">
        <ele>223.3</ele>
        <time>2022-02-07T13:46:12Z</time>
      </trkpt>
      <trkpt lat="47.64432" lon="6.18288">
        <ele>222.9</ele>
        <time>2022-02-07T13:46:14Z</time>
      </trkpt>
      <trkpt lat="47.64428" lon="6.18285">
        <ele>222.7</ele>
        <time>2022-02-07T13:46:16Z</time>
      </trkpt>
      <trkpt lat="47.64425" lon="6.18291">
        <ele>222.8</ele>
        <time>2022-02-07T13:46:19Z</time>
      </trkpt>
      <trkpt lat="47.6443" lon="6.18296">
        <ele>223.1</ele>
        <time>2022-02-07T13:46:37Z</time>
      </trkpt>
      <trkpt lat="47.64435" lon="6.18299">
        <ele>223.4</ele>
        <time>2022-02-07T13:46:39Z</time>
      </trkpt>
      <trkpt lat="47.64439" lon="6.18296">
        <ele>223.5</ele>
        <time>2022-02-07T13:46:41Z</time>
      </trkpt>
      <trkpt lat="47.64444" lon="6.18292">
        <ele>223.5</ele>
        <time>2022-02-07T13:46:43Z</time>
      </trkpt>
      <trkpt lat="47.64449" lon="6.18286">
        <ele>223.8</ele>
        <time>2022-02-07T13:46:45Z</time>
      </trkpt>
      <trkpt lat="47.64453" lon="6.18282">
        <ele>223.9</ele>
        <time>2022-02-07T13:46:46Z</time>
      </trkpt>
      <trkpt lat="47.64457" lon="6.18277">
        <ele>223.9</ele>
        <time>2022-02-07T13:46:48Z</time>
      </trkpt>
      <trkpt lat="47.64461" lon="6.18273">
        <ele>223.9</ele>
        <time>2022-02-07T13:46:56Z</time>
      </trkpt>
      <trkpt lat="47.64477" lon="6.18249">
        <ele>224</ele>
        <time>2022-02-07T13:46:56Z</time>
      </trkpt>
      <trkpt lat="47.64482" lon="6.18238">
        <ele>224.7</ele>
        <time>2022-02-07T13:46:58Z</time>
      </trkpt>
      <trkpt lat="47.64486" lon="6.18228">
        <ele>224.8</ele>
        <time>2022-02-07T13:47:00Z</time>
      </trkpt>
      <trkpt lat="47.6449" lon="6.1822">
        <ele>224.7</ele>
        <time>2022-02-07T13:47:02Z</time>
      </trkpt>
      <trkpt lat="47.64493" lon="6.18211">
        <ele>224.5</ele>
        <time>2022-02-07T13:47:04Z</time>
      </trkpt>
      <trkpt lat="47.64495" lon="6.18201">
        <ele>224.1</ele>
        <time>2022-02-07T13:47:06Z</time>
      </trkpt>
      <trkpt lat="47.64498" lon="6.18189">
        <ele>223.7</ele>
        <time>2022-02-07T13:47:08Z</time>
      </trkpt>
      <trkpt lat="47.64498" lon="6.18176">
        <ele>223.3</ele>
        <time>2022-02-07T13:47:10Z</time>
      </trkpt>
      <trkpt lat="47.64495" lon="6.18163">
        <ele>222.9</ele>
        <time>2022-02-07T13:47:12Z</time>
      </trkpt>
      <trkpt lat="47.64494" lon="6.1815">
        <ele>222.9</ele>
        <time>2022-02-07T13:47:22Z</time>
      </trkpt>
      <trkpt lat="47.64495" lon="6.18142">
        <ele>223</ele>
        <time>2022-02-07T13:47:23Z</time>
      </trkpt>
      <trkpt lat="47.64496" lon="6.1813">
        <ele>222.9</ele>
        <time>2022-02-07T13:47:24Z</time>
      </trkpt>
      <trkpt lat="47.64497" lon="6.18123">
        <ele>222.9</ele>
        <time>2022-02-07T13:47:25Z</time>
      </trkpt>
      <trkpt lat="47.64499" lon="6.18104">
        <ele>223</ele>
        <time>2022-02-07T13:47:28Z</time>
      </trkpt>
      <trkpt lat="47.64501" lon="6.18096">
        <ele>223.1</ele>
        <time>2022-02-07T13:47:30Z</time>
      </trkpt>
      <trkpt lat="47.64508" lon="6.18074">
        <ele>224.3</ele>
        <time>2022-02-07T13:47:36Z</time>
      </trkpt>
      <trkpt lat="47.64512" lon="6.18061">
        <ele>224.8</ele>
        <time>2022-02-07T13:47:40Z</time>
      </trkpt>
      <trkpt lat="47.64514" lon="6.18055">
        <ele>225</ele>
        <time>2022-02-07T13:47:42Z</time>
      </trkpt>
      <trkpt lat="47.64518" lon="6.18051">
        <ele>225.1</ele>
        <time>2022-02-07T13:47:44Z</time>
      </trkpt>
      <trkpt lat="47.64525" lon="6.18044">
        <ele>225.4</ele>
        <time>2022-02-07T13:47:46Z</time>
      </trkpt>
      <trkpt lat="47.6454" lon="6.18031">
        <ele>227</ele>
        <time>2022-02-07T13:47:46Z</time>
      </trkpt>
      <trkpt lat="47.64543" lon="6.18027">
        <ele>227.2</ele>
        <time>2022-02-07T13:47:54Z</time>
      </trkpt>
      <trkpt lat="47.64546" lon="6.18021">
        <ele>227.4</ele>
        <time>2022-02-07T13:47:56Z</time>
      </trkpt>
      <trkpt lat="47.64548" lon="6.18015">
        <ele>227.6</ele>
        <time>2022-02-07T13:47:58Z</time>
      </trkpt>
      <trkpt lat="47.64551" lon="6.18007">
        <ele>227.7</ele>
        <time>2022-02-07T13:48:00Z</time>
      </trkpt>
      <trkpt lat="47.64553" lon="6.18">
        <ele>227.7</ele>
        <time>2022-02-07T13:48:02Z</time>
      </trkpt>
      <trkpt lat="47.64555" lon="6.17991">
        <ele>227.3</ele>
        <time>2022-02-07T13:48:04Z</time>
      </trkpt>
      <trkpt lat="47.64556" lon="6.17984">
        <ele>226.9</ele>
        <time>2022-02-07T13:48:05Z</time>
      </trkpt>
      <trkpt lat="47.64558" lon="6.17976">
        <ele>226.6</ele>
        <time>2022-02-07T13:48:06Z</time>
      </trkpt>
      <trkpt lat="47.64559" lon="6.17968">
        <ele>226.3</ele>
        <time>2022-02-07T13:48:07Z</time>
      </trkpt>
      <trkpt lat="47.64562" lon="6.17953">
        <ele>225.8</ele>
        <time>2022-02-07T13:48:09Z</time>
      </trkpt>
      <trkpt lat="47.64568" lon="6.17938">
        <ele>224.9</ele>
        <time>2022-02-07T13:48:11Z</time>
      </trkpt>
      <trkpt lat="47.64575" lon="6.17926">
        <ele>224.2</ele>
        <time>2022-02-07T13:48:13Z</time>
      </trkpt>
      <trkpt lat="47.64608" lon="6.1789">
        <ele>222.9</ele>
        <time>2022-02-07T13:48:13Z</time>
      </trkpt>
      <trkpt lat="47.64613" lon="6.17888">
        <ele>223</ele>
        <time>2022-02-07T13:48:14Z</time>
      </trkpt>
      <trkpt lat="47.64618" lon="6.17888">
        <ele>223</ele>
        <time>2022-02-07T13:48:15Z</time>
      </trkpt>
      <trkpt lat="47.64622" lon="6.17888">
        <ele>223</ele>
        <time>2022-02-07T13:48:16Z</time>
      </trkpt>
      <trkpt lat="47.64627" lon="6.1789">
        <ele>223</ele>
        <time>2022-02-07T13:48:17Z</time>
      </trkpt>
      <trkpt lat="47.64631" lon="6.17892">
        <ele>223.1</ele>
        <time>2022-02-07T13:48:18Z</time>
      </trkpt>
      <trkpt lat="47.64636" lon="6.17894">
        <ele>223.2</ele>
        <time>2022-02-07T13:48:19Z</time>
      </trkpt>
      <trkpt lat="47.64644" lon="6.17898">
        <ele>223.3</ele>
        <time>2022-02-07T13:48:21Z</time>
      </trkpt>
      <trkpt lat="47.64652" lon="6.17903">
        <ele>223.3</ele>
        <time>2022-02-07T13:48:23Z</time>
      </trkpt>
      <trkpt lat="47.6466" lon="6.17907">
        <ele>223.2</ele>
        <time>2022-02-07T13:48:25Z</time>
      </trkpt>
      <trkpt lat="47.64666" lon="6.1791">
        <ele>223</ele>
        <time>2022-02-07T13:48:27Z</time>
      </trkpt>
      <trkpt lat="47.64673" lon="6.17914">
        <ele>223</ele>
        <time>2022-02-07T13:48:29Z</time>
      </trkpt>
      <trkpt lat="47.64678" lon="6.17919">
        <ele>223.1</ele>
        <time>2022-02-07T13:48:31Z</time>
      </trkpt>
      <trkpt lat="47.64681" lon="6.17926">
        <ele>223.5</ele>
        <time>2022-02-07T13:48:39Z</time>
      </trkpt>
      <trkpt lat="47.64692" lon="6.17935">
        <ele>223.2</ele>
        <time>2022-02-07T13:48:42Z</time>
      </trkpt>
      <trkpt lat="47.64699" lon="6.17945">
        <ele>223.1</ele>
        <time>2022-02-07T13:48:45Z</time>
      </trkpt>
      <trkpt lat="47.64703" lon="6.17952">
        <ele>223.6</ele>
        <time>2022-02-07T13:48:46Z</time>
      </trkpt>
      <trkpt lat="47.64707" lon="6.17958">
        <ele>223.8</ele>
        <time>2022-02-07T13:48:48Z</time>
      </trkpt>
      <trkpt lat="47.64711" lon="6.17963">
        <ele>223.8</ele>
        <time>2022-02-07T13:48:49Z</time>
      </trkpt>
      <trkpt lat="47.64715" lon="6.17969">
        <ele>223.7</ele>
        <time>2022-02-07T13:48:51Z</time>
      </trkpt>
      <trkpt lat="47.64718" lon="6.17976">
        <ele>223.8</ele>
        <time>2022-02-07T13:48:53Z</time>
      </trkpt>
      <trkpt lat="47.64722" lon="6.17982">
        <ele>223.8</ele>
        <time>2022-02-07T13:48:55Z</time>
      </trkpt>
      <trkpt lat="47.64729" lon="6.17995">
        <ele>224.2</ele>
        <time>2022-02-07T13:48:58Z</time>
      </trkpt>
      <trkpt lat="47.64737" lon="6.18007">
        <ele>224.6</ele>
        <time>2022-02-07T13:49:01Z</time>
      </trkpt>
      <trkpt lat="47.64741" lon="6.18013">
        <ele>224.7</ele>
        <time>2022-02-07T13:49:03Z</time>
      </trkpt>
      <trkpt lat="47.64746" lon="6.1802">
        <ele>224.4</ele>
        <time>2022-02-07T13:49:05Z</time>
      </trkpt>
      <trkpt lat="47.6475" lon="6.18025">
        <ele>224</ele>
        <time>2022-02-07T13:49:07Z</time>
      </trkpt>
      <trkpt lat="47.64754" lon="6.18032">
        <ele>224.3</ele>
        <time>2022-02-07T13:49:09Z</time>
      </trkpt>
      <trkpt lat="47.64763" lon="6.18043">
        <ele>224.7</ele>
        <time>2022-02-07T13:49:12Z</time>
      </trkpt>
      <trkpt lat="47.64773" lon="6.18055">
        <ele>223.9</ele>
        <time>2022-02-07T13:49:16Z</time>
      </trkpt>
      <trkpt lat="47.6478" lon="6.18061">
        <ele>224</ele>
        <time>2022-02-07T13:49:18Z</time>
      </trkpt>
      <trkpt lat="47.64792" lon="6.18067">
        <ele>224.5</ele>
        <time>2022-02-07T13:49:22Z</time>
      </trkpt>
      <trkpt lat="47.64797" lon="6.18069">
        <ele>224.4</ele>
        <time>2022-02-07T13:49:24Z</time>
      </trkpt>
      <trkpt lat="47.64803" lon="6.18071">
        <ele>224.2</ele>
        <time>2022-02-07T13:49:26Z</time>
      </trkpt>
      <trkpt lat="47.64817" lon="6.18074">
        <ele>224.5</ele>
        <time>2022-02-07T13:49:30Z</time>
      </trkpt>
      <trkpt lat="47.64822" lon="6.18075">
        <ele>224.6</ele>
        <time>2022-02-07T13:49:32Z</time>
      </trkpt>
      <trkpt lat="47.6483" lon="6.18077">
        <ele>224.7</ele>
        <time>2022-02-07T13:49:34Z</time>
      </trkpt>
      <trkpt lat="47.64836" lon="6.18077">
        <ele>224.8</ele>
        <time>2022-02-07T13:49:36Z</time>
      </trkpt>
      <trkpt lat="47.64847" lon="6.18077">
        <ele>224.8</ele>
        <time>2022-02-07T13:49:41Z</time>
      </trkpt>
      <trkpt lat="47.64853" lon="6.18078">
        <ele>224.8</ele>
        <time>2022-02-07T13:49:43Z</time>
      </trkpt>
      <trkpt lat="47.64859" lon="6.18079">
        <ele>224.8</ele>
        <time>2022-02-07T13:49:46Z</time>
      </trkpt>
      <trkpt lat="47.64864" lon="6.1808">
        <ele>224.8</ele>
        <time>2022-02-07T13:49:48Z</time>
      </trkpt>
      <trkpt lat="47.64869" lon="6.18081">
        <ele>224.6</ele>
        <time>2022-02-07T13:49:50Z</time>
      </trkpt>
      <trkpt lat="47.64874" lon="6.18083">
        <ele>224.5</ele>
        <time>2022-02-07T13:49:52Z</time>
      </trkpt>
      <trkpt lat="47.64881" lon="6.18085">
        <ele>224.4</ele>
        <time>2022-02-07T13:49:54Z</time>
      </trkpt>
      <trkpt lat="47.64894" lon="6.18088">
        <ele>224.2</ele>
        <time>2022-02-07T13:49:58Z</time>
      </trkpt>
      <trkpt lat="47.64899" lon="6.18089">
        <ele>224.2</ele>
        <time>2022-02-07T13:49:59Z</time>
      </trkpt>
      <trkpt lat="47.64905" lon="6.18091">
        <ele>224.3</ele>
        <time>2022-02-07T13:50:01Z</time>
      </trkpt>
      <trkpt lat="47.64911" lon="6.18092">
        <ele>224.3</ele>
        <time>2022-02-07T13:50:03Z</time>
      </trkpt>
      <trkpt lat="47.64915" lon="6.18093">
        <ele>224.4</ele>
        <time>2022-02-07T13:50:04Z</time>
      </trkpt>
      <trkpt lat="47.64928" lon="6.18095">
        <ele>224.7</ele>
        <time>2022-02-07T13:50:08Z</time>
      </trkpt>
      <trkpt lat="47.64935" lon="6.18096">
        <ele>224.8</ele>
        <time>2022-02-07T13:50:10Z</time>
      </trkpt>
      <trkpt lat="47.64939" lon="6.18098">
        <ele>225</ele>
        <time>2022-02-07T13:50:11Z</time>
      </trkpt>
      <trkpt lat="47.64946" lon="6.18099">
        <ele>225.3</ele>
        <time>2022-02-07T13:50:13Z</time>
      </trkpt>
      <trkpt lat="47.64965" lon="6.18098">
        <ele>225.9</ele>
        <time>2022-02-07T13:50:19Z</time>
      </trkpt>
      <trkpt lat="47.64973" lon="6.18097">
        <ele>226</ele>
        <time>2022-02-07T13:50:21Z</time>
      </trkpt>
      <trkpt lat="47.6498" lon="6.18096">
        <ele>225.9</ele>
        <time>2022-02-07T13:50:23Z</time>
      </trkpt>
      <trkpt lat="47.64987" lon="6.18096">
        <ele>226</ele>
        <time>2022-02-07T13:50:25Z</time>
      </trkpt>
      <trkpt lat="47.64999" lon="6.18096">
        <ele>226.3</ele>
        <time>2022-02-07T13:50:28Z</time>
      </trkpt>
      <trkpt lat="47.65004" lon="6.18096">
        <ele>226.2</ele>
        <time>2022-02-07T13:50:29Z</time>
      </trkpt>
      <trkpt lat="47.65015" lon="6.18097">
        <ele>225.9</ele>
        <time>2022-02-07T13:50:32Z</time>
      </trkpt>
      <trkpt lat="47.65026" lon="6.18097">
        <ele>225.6</ele>
        <time>2022-02-07T13:50:35Z</time>
      </trkpt>
      <trkpt lat="47.65038" lon="6.18097">
        <ele>225.7</ele>
        <time>2022-02-07T13:50:38Z</time>
      </trkpt>
      <trkpt lat="47.65045" lon="6.18098">
        <ele>225.9</ele>
        <time>2022-02-07T13:50:40Z</time>
      </trkpt>
      <trkpt lat="47.65052" lon="6.18098">
        <ele>226</ele>
        <time>2022-02-07T13:50:42Z</time>
      </trkpt>
      <trkpt lat="47.65064" lon="6.18099">
        <ele>225.7</ele>
        <time>2022-02-07T13:50:45Z</time>
      </trkpt>
      <trkpt lat="47.6507" lon="6.18101">
        <ele>225.5</ele>
        <time>2022-02-07T13:50:47Z</time>
      </trkpt>
      <trkpt lat="47.6508" lon="6.18104">
        <ele>225.1</ele>
        <time>2022-02-07T13:50:50Z</time>
      </trkpt>
      <trkpt lat="47.6509" lon="6.18105">
        <ele>225</ele>
        <time>2022-02-07T13:50:53Z</time>
      </trkpt>
      <trkpt lat="47.65096" lon="6.18105">
        <ele>225.1</ele>
        <time>2022-02-07T13:50:55Z</time>
      </trkpt>
      <trkpt lat="47.65102" lon="6.18104">
        <ele>225.2</ele>
        <time>2022-02-07T13:50:57Z</time>
      </trkpt>
      <trkpt lat="47.65115" lon="6.18101">
        <ele>225.5</ele>
        <time>2022-02-07T13:51:00Z</time>
      </trkpt>
      <trkpt lat="47.65122" lon="6.18099">
        <ele>225.7</ele>
        <time>2022-02-07T13:51:02Z</time>
      </trkpt>
      <trkpt lat="47.65131" lon="6.18095">
        <ele>225.7</ele>
        <time>2022-02-07T13:51:05Z</time>
      </trkpt>
      <trkpt lat="47.65136" lon="6.18093">
        <ele>225.6</ele>
        <time>2022-02-07T13:51:06Z</time>
      </trkpt>
      <trkpt lat="47.6514" lon="6.18091">
        <ele>225.5</ele>
        <time>2022-02-07T13:51:07Z</time>
      </trkpt>
      <trkpt lat="47.65144" lon="6.18088">
        <ele>225.7</ele>
        <time>2022-02-07T13:51:09Z</time>
      </trkpt>
      <trkpt lat="47.65148" lon="6.18083">
        <ele>225.4</ele>
        <time>2022-02-07T13:51:10Z</time>
      </trkpt>
      <trkpt lat="47.65152" lon="6.18079">
        <ele>225.6</ele>
        <time>2022-02-07T13:51:11Z</time>
      </trkpt>
      <trkpt lat="47.65158" lon="6.18073">
        <ele>225.8</ele>
        <time>2022-02-07T13:51:13Z</time>
      </trkpt>
      <trkpt lat="47.65163" lon="6.18067">
        <ele>225.8</ele>
        <time>2022-02-07T13:51:15Z</time>
      </trkpt>
      <trkpt lat="47.65166" lon="6.18062">
        <ele>225.6</ele>
        <time>2022-02-07T13:51:16Z</time>
      </trkpt>
      <trkpt lat="47.65171" lon="6.18054">
        <ele>225.6</ele>
        <time>2022-02-07T13:51:18Z</time>
      </trkpt>
      <trkpt lat="47.65183" lon="6.18034">
        <ele>225.7</ele>
        <time>2022-02-07T13:51:19Z</time>
      </trkpt>
      <trkpt lat="47.65186" lon="6.18028">
        <ele>225.5</ele>
        <time>2022-02-07T13:51:26Z</time>
      </trkpt>
      <trkpt lat="47.65189" lon="6.18023">
        <ele>225.5</ele>
        <time>2022-02-07T13:51:28Z</time>
      </trkpt>
      <trkpt lat="47.65193" lon="6.18019">
        <ele>225.6</ele>
        <time>2022-02-07T13:51:30Z</time>
      </trkpt>
      <trkpt lat="47.65201" lon="6.18009">
        <ele>225.8</ele>
        <time>2022-02-07T13:51:34Z</time>
      </trkpt>
      <trkpt lat="47.65204" lon="6.18005">
        <ele>225.9</ele>
        <time>2022-02-07T13:51:36Z</time>
      </trkpt>
      <trkpt lat="47.65217" lon="6.1799">
        <ele>226.3</ele>
        <time>2022-02-07T13:51:43Z</time>
      </trkpt>
      <trkpt lat="47.65226" lon="6.17982">
        <ele>226.4</ele>
        <time>2022-02-07T13:51:48Z</time>
      </trkpt>
      <trkpt lat="47.65233" lon="6.17979">
        <ele>226.2</ele>
        <time>2022-02-07T13:51:50Z</time>
      </trkpt>
      <trkpt lat="47.65237" lon="6.17978">
        <ele>226.2</ele>
        <time>2022-02-07T13:51:52Z</time>
      </trkpt>
      <trkpt lat="47.65247" lon="6.17978">
        <ele>226.2</ele>
        <time>2022-02-07T13:51:56Z</time>
      </trkpt>
      <trkpt lat="47.65253" lon="6.1798">
        <ele>226.1</ele>
        <time>2022-02-07T13:51:58Z</time>
      </trkpt>
      <trkpt lat="47.65259" lon="6.17983">
        <ele>225.9</ele>
        <time>2022-02-07T13:52:00Z</time>
      </trkpt>
      <trkpt lat="47.65268" lon="6.17993">
        <ele>225.9</ele>
        <time>2022-02-07T13:52:03Z</time>
      </trkpt>
      <trkpt lat="47.65272" lon="6.17998">
        <ele>226.1</ele>
        <time>2022-02-07T13:52:05Z</time>
      </trkpt>
      <trkpt lat="47.65276" lon="6.18003">
        <ele>226.1</ele>
        <time>2022-02-07T13:52:06Z</time>
      </trkpt>
      <trkpt lat="47.6528" lon="6.18011">
        <ele>225.9</ele>
        <time>2022-02-07T13:52:08Z</time>
      </trkpt>
      <trkpt lat="47.65285" lon="6.18021">
        <ele>225.7</ele>
        <time>2022-02-07T13:52:10Z</time>
      </trkpt>
      <trkpt lat="47.65288" lon="6.18029">
        <ele>225.6</ele>
        <time>2022-02-07T13:52:12Z</time>
      </trkpt>
      <trkpt lat="47.65293" lon="6.18044">
        <ele>225.7</ele>
        <time>2022-02-07T13:52:15Z</time>
      </trkpt>
      <trkpt lat="47.65295" lon="6.18052">
        <ele>225.7</ele>
        <time>2022-02-07T13:52:17Z</time>
      </trkpt>
      <trkpt lat="47.65296" lon="6.1806">
        <ele>225.7</ele>
        <time>2022-02-07T13:52:18Z</time>
      </trkpt>
      <trkpt lat="47.65297" lon="6.1807">
        <ele>225.7</ele>
        <time>2022-02-07T13:52:20Z</time>
      </trkpt>
      <trkpt lat="47.65298" lon="6.18076">
        <ele>225.7</ele>
        <time>2022-02-07T13:52:21Z</time>
      </trkpt>
      <trkpt lat="47.65301" lon="6.18094">
        <ele>225.5</ele>
        <time>2022-02-07T13:52:24Z</time>
      </trkpt>
      <trkpt lat="47.65303" lon="6.18103">
        <ele>225.3</ele>
        <time>2022-02-07T13:52:26Z</time>
      </trkpt>
      <trkpt lat="47.65307" lon="6.18118">
        <ele>225.2</ele>
        <time>2022-02-07T13:52:29Z</time>
      </trkpt>
      <trkpt lat="47.6531" lon="6.18126">
        <ele>225.4</ele>
        <time>2022-02-07T13:52:30Z</time>
      </trkpt>
      <trkpt lat="47.65315" lon="6.1814">
        <ele>225.7</ele>
        <time>2022-02-07T13:52:33Z</time>
      </trkpt>
      <trkpt lat="47.65323" lon="6.18156">
        <ele>225.6</ele>
        <time>2022-02-07T13:52:36Z</time>
      </trkpt>
      <trkpt lat="47.65328" lon="6.18163">
        <ele>225.4</ele>
        <time>2022-02-07T13:52:38Z</time>
      </trkpt>
      <trkpt lat="47.65332" lon="6.18168">
        <ele>225.2</ele>
        <time>2022-02-07T13:52:39Z</time>
      </trkpt>
      <trkpt lat="47.65338" lon="6.18174">
        <ele>225.3</ele>
        <time>2022-02-07T13:52:41Z</time>
      </trkpt>
      <trkpt lat="47.65342" lon="6.18179">
        <ele>225.4</ele>
        <time>2022-02-07T13:52:43Z</time>
      </trkpt>
      <trkpt lat="47.65358" lon="6.18195">
        <ele>225.3</ele>
        <time>2022-02-07T13:52:48Z</time>
      </trkpt>
      <trkpt lat="47.65364" lon="6.18201">
        <ele>225.4</ele>
        <time>2022-02-07T13:52:50Z</time>
      </trkpt>
      <trkpt lat="47.65369" lon="6.18207">
        <ele>225.7</ele>
        <time>2022-02-07T13:52:52Z</time>
      </trkpt>
      <trkpt lat="47.65378" lon="6.18217">
        <ele>225.6</ele>
        <time>2022-02-07T13:52:55Z</time>
      </trkpt>
      <trkpt lat="47.65384" lon="6.18223">
        <ele>225.5</ele>
        <time>2022-02-07T13:52:57Z</time>
      </trkpt>
      <trkpt lat="47.65393" lon="6.18233">
        <ele>226.4</ele>
        <time>2022-02-07T13:53:01Z</time>
      </trkpt>
      <trkpt lat="47.65399" lon="6.18237">
        <ele>226.8</ele>
        <time>2022-02-07T13:53:03Z</time>
      </trkpt>
      <trkpt lat="47.65403" lon="6.18241">
        <ele>227</ele>
        <time>2022-02-07T13:53:04Z</time>
      </trkpt>
      <trkpt lat="47.65408" lon="6.18246">
        <ele>227.2</ele>
        <time>2022-02-07T13:53:06Z</time>
      </trkpt>
      <trkpt lat="47.65414" lon="6.1825">
        <ele>227.2</ele>
        <time>2022-02-07T13:53:08Z</time>
      </trkpt>
      <trkpt lat="47.6543" lon="6.18259">
        <ele>228.3</ele>
        <time>2022-02-07T13:53:14Z</time>
      </trkpt>
      <trkpt lat="47.6544" lon="6.18262">
        <ele>228.8</ele>
        <time>2022-02-07T13:53:18Z</time>
      </trkpt>
      <trkpt lat="47.65446" lon="6.18265">
        <ele>229.2</ele>
        <time>2022-02-07T13:53:21Z</time>
      </trkpt>
      <trkpt lat="47.65451" lon="6.18266">
        <ele>229.5</ele>
        <time>2022-02-07T13:53:23Z</time>
      </trkpt>
      <trkpt lat="47.65458" lon="6.18267">
        <ele>230</ele>
        <time>2022-02-07T13:53:26Z</time>
      </trkpt>
      <trkpt lat="47.65467" lon="6.18268">
        <ele>230.4</ele>
        <time>2022-02-07T13:53:31Z</time>
      </trkpt>
      <trkpt lat="47.65483" lon="6.18267">
        <ele>231.4</ele>
        <time>2022-02-07T13:53:39Z</time>
      </trkpt>
      <trkpt lat="47.65488" lon="6.18265">
        <ele>231.6</ele>
        <time>2022-02-07T13:53:42Z</time>
      </trkpt>
      <trkpt lat="47.65493" lon="6.18265">
        <ele>232</ele>
        <time>2022-02-07T13:53:44Z</time>
      </trkpt>
      <trkpt lat="47.65509" lon="6.18261">
        <ele>232.8</ele>
        <time>2022-02-07T13:53:46Z</time>
      </trkpt>
      <trkpt lat="47.65513" lon="6.18259">
        <ele>233</ele>
        <time>2022-02-07T13:53:48Z</time>
      </trkpt>
      <trkpt lat="47.65518" lon="6.18257">
        <ele>233.1</ele>
        <time>2022-02-07T13:53:55Z</time>
      </trkpt>
      <trkpt lat="47.65523" lon="6.18256">
        <ele>233.3</ele>
        <time>2022-02-07T13:53:57Z</time>
      </trkpt>
      <trkpt lat="47.65532" lon="6.18252">
        <ele>233.6</ele>
        <time>2022-02-07T13:54:01Z</time>
      </trkpt>
      <trkpt lat="47.6555" lon="6.18243">
        <ele>234</ele>
        <time>2022-02-07T13:54:04Z</time>
      </trkpt>
      <trkpt lat="47.65555" lon="6.1824">
        <ele>234.2</ele>
        <time>2022-02-07T13:54:07Z</time>
      </trkpt>
      <trkpt lat="47.6556" lon="6.18237">
        <ele>234.4</ele>
        <time>2022-02-07T13:54:10Z</time>
      </trkpt>
      <trkpt lat="47.65565" lon="6.18233">
        <ele>234.3</ele>
        <time>2022-02-07T13:54:18Z</time>
      </trkpt>
      <trkpt lat="47.65569" lon="6.18229">
        <ele>234.2</ele>
        <time>2022-02-07T13:54:20Z</time>
      </trkpt>
      <trkpt lat="47.65577" lon="6.18221">
        <ele>233.7</ele>
        <time>2022-02-07T13:54:24Z</time>
      </trkpt>
      <trkpt lat="47.65582" lon="6.18216">
        <ele>233.7</ele>
        <time>2022-02-07T13:54:26Z</time>
      </trkpt>
      <trkpt lat="47.65585" lon="6.18211">
        <ele>233.8</ele>
        <time>2022-02-07T13:54:27Z</time>
      </trkpt>
      <trkpt lat="47.65589" lon="6.18206">
        <ele>233.8</ele>
        <time>2022-02-07T13:54:29Z</time>
      </trkpt>
      <trkpt lat="47.65592" lon="6.18201">
        <ele>233.7</ele>
        <time>2022-02-07T13:54:30Z</time>
      </trkpt>
      <trkpt lat="47.65597" lon="6.18192">
        <ele>233.2</ele>
        <time>2022-02-07T13:54:32Z</time>
      </trkpt>
      <trkpt lat="47.65601" lon="6.18187">
        <ele>232.7</ele>
        <time>2022-02-07T13:54:33Z</time>
      </trkpt>
      <trkpt lat="47.65605" lon="6.18182">
        <ele>232.3</ele>
        <time>2022-02-07T13:54:34Z</time>
      </trkpt>
      <trkpt lat="47.65618" lon="6.18174">
        <ele>232.5</ele>
        <time>2022-02-07T13:54:37Z</time>
      </trkpt>
      <trkpt lat="47.65623" lon="6.18174">
        <ele>233.1</ele>
        <time>2022-02-07T13:54:38Z</time>
      </trkpt>
      <trkpt lat="47.65629" lon="6.18174">
        <ele>233.7</ele>
        <time>2022-02-07T13:54:39Z</time>
      </trkpt>
      <trkpt lat="47.65651" lon="6.18168">
        <ele>235.4</ele>
        <time>2022-02-07T13:54:45Z</time>
      </trkpt>
      <trkpt lat="47.65659" lon="6.18158">
        <ele>235.2</ele>
        <time>2022-02-07T13:54:50Z</time>
      </trkpt>
      <trkpt lat="47.65676" lon="6.18141">
        <ele>235.4</ele>
        <time>2022-02-07T13:54:56Z</time>
      </trkpt>
      <trkpt lat="47.65687" lon="6.18127">
        <ele>235.3</ele>
        <time>2022-02-07T13:55:00Z</time>
      </trkpt>
      <trkpt lat="47.65691" lon="6.18119">
        <ele>235.1</ele>
        <time>2022-02-07T13:55:02Z</time>
      </trkpt>
      <trkpt lat="47.65694" lon="6.18112">
        <ele>235</ele>
        <time>2022-02-07T13:55:03Z</time>
      </trkpt>
      <trkpt lat="47.65704" lon="6.18092">
        <ele>235.6</ele>
        <time>2022-02-07T13:55:07Z</time>
      </trkpt>
      <trkpt lat="47.65709" lon="6.18082">
        <ele>235.5</ele>
        <time>2022-02-07T13:55:09Z</time>
      </trkpt>
      <trkpt lat="47.65723" lon="6.18067">
        <ele>235.9</ele>
        <time>2022-02-07T13:55:16Z</time>
      </trkpt>
      <trkpt lat="47.65734" lon="6.18058">
        <ele>237.3</ele>
        <time>2022-02-07T13:55:21Z</time>
      </trkpt>
      <trkpt lat="47.65738" lon="6.18055">
        <ele>237.9</ele>
        <time>2022-02-07T13:55:23Z</time>
      </trkpt>
      <trkpt lat="47.65744" lon="6.18052">
        <ele>238.3</ele>
        <time>2022-02-07T13:55:26Z</time>
      </trkpt>
      <trkpt lat="47.65748" lon="6.18049">
        <ele>238.7</ele>
        <time>2022-02-07T13:55:28Z</time>
      </trkpt>
      <trkpt lat="47.65758" lon="6.18041">
        <ele>239.1</ele>
        <time>2022-02-07T13:55:29Z</time>
      </trkpt>
      <trkpt lat="47.65763" lon="6.1804">
        <ele>239.6</ele>
        <time>2022-02-07T13:55:38Z</time>
      </trkpt>
      <trkpt lat="47.65773" lon="6.18037">
        <ele>240.7</ele>
        <time>2022-02-07T13:55:39Z</time>
      </trkpt>
      <trkpt lat="47.65777" lon="6.18033">
        <ele>240.7</ele>
        <time>2022-02-07T13:55:42Z</time>
      </trkpt>
      <trkpt lat="47.65781" lon="6.18029">
        <ele>240.5</ele>
        <time>2022-02-07T13:55:45Z</time>
      </trkpt>
      <trkpt lat="47.65786" lon="6.18024">
        <ele>240.3</ele>
        <time>2022-02-07T13:55:48Z</time>
      </trkpt>
      <trkpt lat="47.6579" lon="6.18019">
        <ele>240.2</ele>
        <time>2022-02-07T13:55:51Z</time>
      </trkpt>
      <trkpt lat="47.65794" lon="6.18014">
        <ele>239.9</ele>
        <time>2022-02-07T13:56:00Z</time>
      </trkpt>
      <trkpt lat="47.65798" lon="6.1801">
        <ele>239.8</ele>
        <time>2022-02-07T13:56:02Z</time>
      </trkpt>
      <trkpt lat="47.65802" lon="6.18007">
        <ele>239.8</ele>
        <time>2022-02-07T13:56:04Z</time>
      </trkpt>
      <trkpt lat="47.65808" lon="6.18003">
        <ele>239.5</ele>
        <time>2022-02-07T13:56:06Z</time>
      </trkpt>
      <trkpt lat="47.65814" lon="6.17999">
        <ele>239.2</ele>
        <time>2022-02-07T13:56:08Z</time>
      </trkpt>
      <trkpt lat="47.65827" lon="6.17989">
        <ele>238.5</ele>
        <time>2022-02-07T13:56:12Z</time>
      </trkpt>
      <trkpt lat="47.6584" lon="6.17978">
        <ele>237.6</ele>
        <time>2022-02-07T13:56:15Z</time>
      </trkpt>
      <trkpt lat="47.65846" lon="6.17974">
        <ele>237.2</ele>
        <time>2022-02-07T13:56:16Z</time>
      </trkpt>
      <trkpt lat="47.65859" lon="6.17967">
        <ele>236.4</ele>
        <time>2022-02-07T13:56:19Z</time>
      </trkpt>
      <trkpt lat="47.65865" lon="6.17964">
        <ele>236.1</ele>
        <time>2022-02-07T13:56:20Z</time>
      </trkpt>
      <trkpt lat="47.65903" lon="6.17955">
        <ele>234.6</ele>
        <time>2022-02-07T13:56:21Z</time>
      </trkpt>
      <trkpt lat="47.65908" lon="6.17954">
        <ele>234.5</ele>
        <time>2022-02-07T13:56:22Z</time>
      </trkpt>
      <trkpt lat="47.65914" lon="6.17954">
        <ele>234.4</ele>
        <time>2022-02-07T13:56:23Z</time>
      </trkpt>
      <trkpt lat="47.6592" lon="6.17953">
        <ele>234.2</ele>
        <time>2022-02-07T13:56:24Z</time>
      </trkpt>
      <trkpt lat="47.65926" lon="6.17953">
        <ele>233.8</ele>
        <time>2022-02-07T13:56:25Z</time>
      </trkpt>
      <trkpt lat="47.65932" lon="6.17953">
        <ele>233.5</ele>
        <time>2022-02-07T13:56:26Z</time>
      </trkpt>
      <trkpt lat="47.65938" lon="6.17952">
        <ele>233.2</ele>
        <time>2022-02-07T13:56:27Z</time>
      </trkpt>
      <trkpt lat="47.65945" lon="6.17952">
        <ele>232.8</ele>
        <time>2022-02-07T13:56:28Z</time>
      </trkpt>
      <trkpt lat="47.65952" lon="6.17952">
        <ele>232.8</ele>
        <time>2022-02-07T13:56:29Z</time>
      </trkpt>
      <trkpt lat="47.65959" lon="6.17952">
        <ele>232.7</ele>
        <time>2022-02-07T13:56:30Z</time>
      </trkpt>
      <trkpt lat="47.65965" lon="6.17952">
        <ele>232.6</ele>
        <time>2022-02-07T13:56:31Z</time>
      </trkpt>
      <trkpt lat="47.65972" lon="6.17952">
        <ele>232.6</ele>
        <time>2022-02-07T13:56:32Z</time>
      </trkpt>
      <trkpt lat="47.65978" lon="6.17952">
        <ele>232.5</ele>
        <time>2022-02-07T13:56:33Z</time>
      </trkpt>
      <trkpt lat="47.65984" lon="6.17953">
        <ele>232.4</ele>
        <time>2022-02-07T13:56:34Z</time>
      </trkpt>
      <trkpt lat="47.6599" lon="6.17953">
        <ele>232.4</ele>
        <time>2022-02-07T13:56:35Z</time>
      </trkpt>
      <trkpt lat="47.65996" lon="6.17953">
        <ele>232.4</ele>
        <time>2022-02-07T13:56:36Z</time>
      </trkpt>
      <trkpt lat="47.66002" lon="6.17954">
        <ele>232.3</ele>
        <time>2022-02-07T13:56:37Z</time>
      </trkpt>
      <trkpt lat="47.66008" lon="6.17954">
        <ele>232.1</ele>
        <time>2022-02-07T13:56:38Z</time>
      </trkpt>
      <trkpt lat="47.66013" lon="6.17955">
        <ele>232</ele>
        <time>2022-02-07T13:56:39Z</time>
      </trkpt>
      <trkpt lat="47.66019" lon="6.17955">
        <ele>231.8</ele>
        <time>2022-02-07T13:56:40Z</time>
      </trkpt>
      <trkpt lat="47.66024" lon="6.17955">
        <ele>231.7</ele>
        <time>2022-02-07T13:56:41Z</time>
      </trkpt>
      <trkpt lat="47.66029" lon="6.17955">
        <ele>231.6</ele>
        <time>2022-02-07T13:56:42Z</time>
      </trkpt>
      <trkpt lat="47.66034" lon="6.17956">
        <ele>231.6</ele>
        <time>2022-02-07T13:56:43Z</time>
      </trkpt>
      <trkpt lat="47.66039" lon="6.17956">
        <ele>231.7</ele>
        <time>2022-02-07T13:56:44Z</time>
      </trkpt>
      <trkpt lat="47.66044" lon="6.17956">
        <ele>231.7</ele>
        <time>2022-02-07T13:56:45Z</time>
      </trkpt>
      <trkpt lat="47.66048" lon="6.17956">
        <ele>231.7</ele>
        <time>2022-02-07T13:56:46Z</time>
      </trkpt>
      <trkpt lat="47.66053" lon="6.17956">
        <ele>231.7</ele>
        <time>2022-02-07T13:56:47Z</time>
      </trkpt>
      <trkpt lat="47.66058" lon="6.17956">
        <ele>231.7</ele>
        <time>2022-02-07T13:56:48Z</time>
      </trkpt>
      <trkpt lat="47.66062" lon="6.17956">
        <ele>231.7</ele>
        <time>2022-02-07T13:56:49Z</time>
      </trkpt>
      <trkpt lat="47.66071" lon="6.17957">
        <ele>231.7</ele>
        <time>2022-02-07T13:56:51Z</time>
      </trkpt>
      <trkpt lat="47.66079" lon="6.17957">
        <ele>231.8</ele>
        <time>2022-02-07T13:56:53Z</time>
      </trkpt>
      <trkpt lat="47.66086" lon="6.17957">
        <ele>231.9</ele>
        <time>2022-02-07T13:56:55Z</time>
      </trkpt>
      <trkpt lat="47.66094" lon="6.17958">
        <ele>232.4</ele>
        <time>2022-02-07T13:56:57Z</time>
      </trkpt>
      <trkpt lat="47.66106" lon="6.17965">
        <ele>233.8</ele>
        <time>2022-02-07T13:57:04Z</time>
      </trkpt>
      <trkpt lat="47.66111" lon="6.17962">
        <ele>233.6</ele>
        <time>2022-02-07T13:57:06Z</time>
      </trkpt>
      <trkpt lat="47.66123" lon="6.1796">
        <ele>233.2</ele>
        <time>2022-02-07T13:57:10Z</time>
      </trkpt>
      <trkpt lat="47.6613" lon="6.17959">
        <ele>233.1</ele>
        <time>2022-02-07T13:57:12Z</time>
      </trkpt>
      <trkpt lat="47.66137" lon="6.1796">
        <ele>233.2</ele>
        <time>2022-02-07T13:57:14Z</time>
      </trkpt>
      <trkpt lat="47.66142" lon="6.1796">
        <ele>233.2</ele>
        <time>2022-02-07T13:57:16Z</time>
      </trkpt>
      <trkpt lat="47.66147" lon="6.1796">
        <ele>233.2</ele>
        <time>2022-02-07T13:57:17Z</time>
      </trkpt>
      <trkpt lat="47.66153" lon="6.1796">
        <ele>233.2</ele>
        <time>2022-02-07T13:57:19Z</time>
      </trkpt>
      <trkpt lat="47.66159" lon="6.1796">
        <ele>233.2</ele>
        <time>2022-02-07T13:57:21Z</time>
      </trkpt>
      <trkpt lat="47.66164" lon="6.1796">
        <ele>233.2</ele>
        <time>2022-02-07T13:57:22Z</time>
      </trkpt>
      <trkpt lat="47.66169" lon="6.17961">
        <ele>233.3</ele>
        <time>2022-02-07T13:57:24Z</time>
      </trkpt>
      <trkpt lat="47.66183" lon="6.17962">
        <ele>233.2</ele>
        <time>2022-02-07T13:57:27Z</time>
      </trkpt>
      <trkpt lat="47.66188" lon="6.17963">
        <ele>233.2</ele>
        <time>2022-02-07T13:57:29Z</time>
      </trkpt>
      <trkpt lat="47.66199" lon="6.17966">
        <ele>233.2</ele>
        <time>2022-02-07T13:57:32Z</time>
      </trkpt>
      <trkpt lat="47.66204" lon="6.17967">
        <ele>233.1</ele>
        <time>2022-02-07T13:57:33Z</time>
      </trkpt>
      <trkpt lat="47.66212" lon="6.17969">
        <ele>233</ele>
        <time>2022-02-07T13:57:35Z</time>
      </trkpt>
      <trkpt lat="47.66231" lon="6.17974">
        <ele>232.5</ele>
        <time>2022-02-07T13:57:40Z</time>
      </trkpt>
      <trkpt lat="47.66243" lon="6.17976">
        <ele>231.8</ele>
        <time>2022-02-07T13:57:43Z</time>
      </trkpt>
      <trkpt lat="47.66248" lon="6.17977">
        <ele>231.5</ele>
        <time>2022-02-07T13:57:44Z</time>
      </trkpt>
      <trkpt lat="47.66281" lon="6.1798">
        <ele>230.2</ele>
        <time>2022-02-07T13:57:45Z</time>
      </trkpt>
      <trkpt lat="47.66286" lon="6.17981">
        <ele>230</ele>
        <time>2022-02-07T13:57:46Z</time>
      </trkpt>
      <trkpt lat="47.66291" lon="6.17981">
        <ele>229.8</ele>
        <time>2022-02-07T13:57:47Z</time>
      </trkpt>
      <trkpt lat="47.66296" lon="6.17982">
        <ele>229.7</ele>
        <time>2022-02-07T13:57:48Z</time>
      </trkpt>
      <trkpt lat="47.66301" lon="6.17982">
        <ele>229.5</ele>
        <time>2022-02-07T13:57:49Z</time>
      </trkpt>
      <trkpt lat="47.66306" lon="6.17981">
        <ele>229.3</ele>
        <time>2022-02-07T13:57:50Z</time>
      </trkpt>
      <trkpt lat="47.66311" lon="6.17981">
        <ele>229.3</ele>
        <time>2022-02-07T13:57:51Z</time>
      </trkpt>
      <trkpt lat="47.66316" lon="6.17977">
        <ele>229.1</ele>
        <time>2022-02-07T13:58:00Z</time>
      </trkpt>
      <trkpt lat="47.6632" lon="6.1797">
        <ele>229</ele>
        <time>2022-02-07T13:58:01Z</time>
      </trkpt>
      <trkpt lat="47.66328" lon="6.17953">
        <ele>229</ele>
        <time>2022-02-07T13:58:04Z</time>
      </trkpt>
      <trkpt lat="47.66329" lon="6.17945">
        <ele>229</ele>
        <time>2022-02-07T13:58:06Z</time>
      </trkpt>
      <trkpt lat="47.6633" lon="6.17937">
        <ele>229</ele>
        <time>2022-02-07T13:58:07Z</time>
      </trkpt>
      <trkpt lat="47.66332" lon="6.17925">
        <ele>229</ele>
        <time>2022-02-07T13:58:08Z</time>
      </trkpt>
      <trkpt lat="47.66337" lon="6.17879">
        <ele>229</ele>
        <time>2022-02-07T13:58:09Z</time>
      </trkpt>
      <trkpt lat="47.66338" lon="6.17872">
        <ele>229</ele>
        <time>2022-02-07T13:58:10Z</time>
      </trkpt>
      <trkpt lat="47.66339" lon="6.17864">
        <ele>229</ele>
        <time>2022-02-07T13:58:11Z</time>
      </trkpt>
      <trkpt lat="47.66339" lon="6.17857">
        <ele>228.9</ele>
        <time>2022-02-07T13:58:12Z</time>
      </trkpt>
      <trkpt lat="47.6634" lon="6.1785">
        <ele>228.7</ele>
        <time>2022-02-07T13:58:13Z</time>
      </trkpt>
      <trkpt lat="47.6634" lon="6.17842">
        <ele>228.5</ele>
        <time>2022-02-07T13:58:14Z</time>
      </trkpt>
      <trkpt lat="47.66341" lon="6.17835">
        <ele>228.3</ele>
        <time>2022-02-07T13:58:15Z</time>
      </trkpt>
      <trkpt lat="47.66341" lon="6.17827">
        <ele>228.3</ele>
        <time>2022-02-07T13:58:16Z</time>
      </trkpt>
      <trkpt lat="47.66342" lon="6.1782">
        <ele>228.3</ele>
        <time>2022-02-07T13:58:17Z</time>
      </trkpt>
      <trkpt lat="47.66342" lon="6.17812">
        <ele>228.3</ele>
        <time>2022-02-07T13:58:18Z</time>
      </trkpt>
      <trkpt lat="47.66343" lon="6.17805">
        <ele>228.3</ele>
        <time>2022-02-07T13:58:19Z</time>
      </trkpt>
      <trkpt lat="47.66343" lon="6.17798">
        <ele>228.3</ele>
        <time>2022-02-07T13:58:20Z</time>
      </trkpt>
      <trkpt lat="47.66344" lon="6.1779">
        <ele>228.2</ele>
        <time>2022-02-07T13:58:21Z</time>
      </trkpt>
      <trkpt lat="47.66345" lon="6.17784">
        <ele>228.1</ele>
        <time>2022-02-07T13:58:22Z</time>
      </trkpt>
      <trkpt lat="47.66346" lon="6.17777">
        <ele>228</ele>
        <time>2022-02-07T13:58:23Z</time>
      </trkpt>
      <trkpt lat="47.66346" lon="6.1777">
        <ele>228</ele>
        <time>2022-02-07T13:58:24Z</time>
      </trkpt>
      <trkpt lat="47.66347" lon="6.17763">
        <ele>228</ele>
        <time>2022-02-07T13:58:25Z</time>
      </trkpt>
      <trkpt lat="47.66348" lon="6.17756">
        <ele>228</ele>
        <time>2022-02-07T13:58:26Z</time>
      </trkpt>
      <trkpt lat="47.66349" lon="6.1775">
        <ele>228</ele>
        <time>2022-02-07T13:58:27Z</time>
      </trkpt>
      <trkpt lat="47.66351" lon="6.17738">
        <ele>228</ele>
        <time>2022-02-07T13:58:29Z</time>
      </trkpt>
      <trkpt lat="47.66354" lon="6.17726">
        <ele>228</ele>
        <time>2022-02-07T13:58:31Z</time>
      </trkpt>
      <trkpt lat="47.66357" lon="6.17714">
        <ele>228</ele>
        <time>2022-02-07T13:58:33Z</time>
      </trkpt>
      <trkpt lat="47.66362" lon="6.17694">
        <ele>228</ele>
        <time>2022-02-07T13:58:34Z</time>
      </trkpt>
      <trkpt lat="47.6636" lon="6.17688">
        <ele>228</ele>
        <time>2022-02-07T13:58:42Z</time>
      </trkpt>
      <trkpt lat="47.66366" lon="6.17679">
        <ele>228</ele>
        <time>2022-02-07T13:58:44Z</time>
      </trkpt>
      <trkpt lat="47.66371" lon="6.17673">
        <ele>228</ele>
        <time>2022-02-07T13:58:46Z</time>
      </trkpt>
      <trkpt lat="47.66381" lon="6.1766">
        <ele>228.2</ele>
        <time>2022-02-07T13:58:49Z</time>
      </trkpt>
      <trkpt lat="47.66384" lon="6.17655">
        <ele>228.3</ele>
        <time>2022-02-07T13:58:50Z</time>
      </trkpt>
      <trkpt lat="47.66394" lon="6.17642">
        <ele>228.7</ele>
        <time>2022-02-07T13:58:53Z</time>
      </trkpt>
      <trkpt lat="47.66398" lon="6.17636">
        <ele>228.6</ele>
        <time>2022-02-07T13:58:55Z</time>
      </trkpt>
      <trkpt lat="47.66402" lon="6.17629">
        <ele>228.5</ele>
        <time>2022-02-07T13:58:56Z</time>
      </trkpt>
      <trkpt lat="47.66411" lon="6.17618">
        <ele>228.6</ele>
        <time>2022-02-07T13:58:59Z</time>
      </trkpt>
      <trkpt lat="47.66416" lon="6.17612">
        <ele>229</ele>
        <time>2022-02-07T13:59:01Z</time>
      </trkpt>
      <trkpt lat="47.66423" lon="6.17606">
        <ele>228.8</ele>
        <time>2022-02-07T13:59:03Z</time>
      </trkpt>
      <trkpt lat="47.66427" lon="6.17602">
        <ele>228.8</ele>
        <time>2022-02-07T13:59:04Z</time>
      </trkpt>
      <trkpt lat="47.66431" lon="6.17599">
        <ele>228.8</ele>
        <time>2022-02-07T13:59:05Z</time>
      </trkpt>
      <trkpt lat="47.66437" lon="6.17595">
        <ele>228.9</ele>
        <time>2022-02-07T13:59:07Z</time>
      </trkpt>
      <trkpt lat="47.66448" lon="6.17588">
        <ele>229</ele>
        <time>2022-02-07T13:59:10Z</time>
      </trkpt>
      <trkpt lat="47.66462" lon="6.17579">
        <ele>228.9</ele>
        <time>2022-02-07T13:59:14Z</time>
      </trkpt>
      <trkpt lat="47.66468" lon="6.17577">
        <ele>229</ele>
        <time>2022-02-07T13:59:16Z</time>
      </trkpt>
      <trkpt lat="47.66477" lon="6.17571">
        <ele>229</ele>
        <time>2022-02-07T13:59:19Z</time>
      </trkpt>
      <trkpt lat="47.66489" lon="6.17564">
        <ele>229</ele>
        <time>2022-02-07T13:59:22Z</time>
      </trkpt>
      <trkpt lat="47.66494" lon="6.1756">
        <ele>229</ele>
        <time>2022-02-07T13:59:24Z</time>
      </trkpt>
      <trkpt lat="47.66499" lon="6.17557">
        <ele>229</ele>
        <time>2022-02-07T13:59:26Z</time>
      </trkpt>
      <trkpt lat="47.66509" lon="6.1755">
        <ele>229</ele>
        <time>2022-02-07T13:59:29Z</time>
      </trkpt>
      <trkpt lat="47.66514" lon="6.17547">
        <ele>229</ele>
        <time>2022-02-07T13:59:30Z</time>
      </trkpt>
      <trkpt lat="47.6652" lon="6.17542">
        <ele>229</ele>
        <time>2022-02-07T13:59:32Z</time>
      </trkpt>
      <trkpt lat="47.66525" lon="6.17538">
        <ele>229</ele>
        <time>2022-02-07T13:59:34Z</time>
      </trkpt>
      <trkpt lat="47.66536" lon="6.17531">
        <ele>229.3</ele>
        <time>2022-02-07T13:59:37Z</time>
      </trkpt>
      <trkpt lat="47.66541" lon="6.17527">
        <ele>229.4</ele>
        <time>2022-02-07T13:59:39Z</time>
      </trkpt>
      <trkpt lat="47.66545" lon="6.17524">
        <ele>229.5</ele>
        <time>2022-02-07T13:59:40Z</time>
      </trkpt>
      <trkpt lat="47.66552" lon="6.17519">
        <ele>229.5</ele>
        <time>2022-02-07T13:59:42Z</time>
      </trkpt>
      <trkpt lat="47.66557" lon="6.17515">
        <ele>229.6</ele>
        <time>2022-02-07T13:59:44Z</time>
      </trkpt>
      <trkpt lat="47.66561" lon="6.17512">
        <ele>229.6</ele>
        <time>2022-02-07T13:59:46Z</time>
      </trkpt>
      <trkpt lat="47.66573" lon="6.17505">
        <ele>229.7</ele>
        <time>2022-02-07T13:59:49Z</time>
      </trkpt>
      <trkpt lat="47.66579" lon="6.17502">
        <ele>229.8</ele>
        <time>2022-02-07T13:59:51Z</time>
      </trkpt>
      <trkpt lat="47.66585" lon="6.17498">
        <ele>229.9</ele>
        <time>2022-02-07T13:59:53Z</time>
      </trkpt>
      <trkpt lat="47.66592" lon="6.17495">
        <ele>229.9</ele>
        <time>2022-02-07T13:59:55Z</time>
      </trkpt>
      <trkpt lat="47.66598" lon="6.17492">
        <ele>229.9</ele>
        <time>2022-02-07T13:59:57Z</time>
      </trkpt>
      <trkpt lat="47.6661" lon="6.17485">
        <ele>230</ele>
        <time>2022-02-07T14:00:01Z</time>
      </trkpt>
      <trkpt lat="47.66617" lon="6.17482">
        <ele>230</ele>
        <time>2022-02-07T14:00:03Z</time>
      </trkpt>
      <trkpt lat="47.66622" lon="6.17479">
        <ele>230</ele>
        <time>2022-02-07T14:00:05Z</time>
      </trkpt>
      <trkpt lat="47.6663" lon="6.17475">
        <ele>230</ele>
        <time>2022-02-07T14:00:07Z</time>
      </trkpt>
      <trkpt lat="47.66636" lon="6.17473">
        <ele>230</ele>
        <time>2022-02-07T14:00:09Z</time>
      </trkpt>
      <trkpt lat="47.6664" lon="6.17471">
        <ele>230</ele>
        <time>2022-02-07T14:00:10Z</time>
      </trkpt>
      <trkpt lat="47.66653" lon="6.17466">
        <ele>230.4</ele>
        <time>2022-02-07T14:00:14Z</time>
      </trkpt>
      <trkpt lat="47.6666" lon="6.17463">
        <ele>230.5</ele>
        <time>2022-02-07T14:00:16Z</time>
      </trkpt>
      <trkpt lat="47.66666" lon="6.17461">
        <ele>230.6</ele>
        <time>2022-02-07T14:00:18Z</time>
      </trkpt>
      <trkpt lat="47.66685" lon="6.17456">
        <ele>230.8</ele>
        <time>2022-02-07T14:00:24Z</time>
      </trkpt>
      <trkpt lat="47.66691" lon="6.17455">
        <ele>230.9</ele>
        <time>2022-02-07T14:00:26Z</time>
      </trkpt>
      <trkpt lat="47.66702" lon="6.17452">
        <ele>231</ele>
        <time>2022-02-07T14:00:29Z</time>
      </trkpt>
      <trkpt lat="47.66708" lon="6.17451">
        <ele>231</ele>
        <time>2022-02-07T14:00:31Z</time>
      </trkpt>
      <trkpt lat="47.66713" lon="6.17451">
        <ele>231</ele>
        <time>2022-02-07T14:00:32Z</time>
      </trkpt>
      <trkpt lat="47.66719" lon="6.1745">
        <ele>231</ele>
        <time>2022-02-07T14:00:34Z</time>
      </trkpt>
      <trkpt lat="47.66725" lon="6.17449">
        <ele>231</ele>
        <time>2022-02-07T14:00:36Z</time>
      </trkpt>
      <trkpt lat="47.66732" lon="6.17448">
        <ele>231</ele>
        <time>2022-02-07T14:00:38Z</time>
      </trkpt>
      <trkpt lat="47.66738" lon="6.17446">
        <ele>231</ele>
        <time>2022-02-07T14:00:40Z</time>
      </trkpt>
      <trkpt lat="47.66743" lon="6.17445">
        <ele>231</ele>
        <time>2022-02-07T14:00:42Z</time>
      </trkpt>
      <trkpt lat="47.66754" lon="6.17443">
        <ele>231.1</ele>
        <time>2022-02-07T14:00:45Z</time>
      </trkpt>
      <trkpt lat="47.66764" lon="6.17441">
        <ele>231.4</ele>
        <time>2022-02-07T14:00:48Z</time>
      </trkpt>
      <trkpt lat="47.66769" lon="6.17441">
        <ele>231.5</ele>
        <time>2022-02-07T14:00:49Z</time>
      </trkpt>
      <trkpt lat="47.66776" lon="6.1744">
        <ele>231.8</ele>
        <time>2022-02-07T14:00:51Z</time>
      </trkpt>
      <trkpt lat="47.66787" lon="6.17438">
        <ele>231.8</ele>
        <time>2022-02-07T14:00:54Z</time>
      </trkpt>
      <trkpt lat="47.66793" lon="6.17438">
        <ele>231.8</ele>
        <time>2022-02-07T14:00:56Z</time>
      </trkpt>
      <trkpt lat="47.66806" lon="6.17436">
        <ele>231.7</ele>
        <time>2022-02-07T14:00:59Z</time>
      </trkpt>
      <trkpt lat="47.66811" lon="6.17437">
        <ele>231.7</ele>
        <time>2022-02-07T14:01:01Z</time>
      </trkpt>
      <trkpt lat="47.66815" lon="6.17437">
        <ele>231.7</ele>
        <time>2022-02-07T14:01:02Z</time>
      </trkpt>
      <trkpt lat="47.66824" lon="6.17437">
        <ele>231.7</ele>
        <time>2022-02-07T14:01:04Z</time>
      </trkpt>
      <trkpt lat="47.6683" lon="6.17437">
        <ele>231.7</ele>
        <time>2022-02-07T14:01:06Z</time>
      </trkpt>
      <trkpt lat="47.66841" lon="6.17439">
        <ele>231.8</ele>
        <time>2022-02-07T14:01:09Z</time>
      </trkpt>
      <trkpt lat="47.66855" lon="6.1744">
        <ele>231.8</ele>
        <time>2022-02-07T14:01:13Z</time>
      </trkpt>
      <trkpt lat="47.66862" lon="6.1744">
        <ele>231.9</ele>
        <time>2022-02-07T14:01:15Z</time>
      </trkpt>
      <trkpt lat="47.66866" lon="6.17439">
        <ele>232</ele>
        <time>2022-02-07T14:01:17Z</time>
      </trkpt>
      <trkpt lat="47.66871" lon="6.17438">
        <ele>232.2</ele>
        <time>2022-02-07T14:01:18Z</time>
      </trkpt>
      <trkpt lat="47.66878" lon="6.17437">
        <ele>232.3</ele>
        <time>2022-02-07T14:01:20Z</time>
      </trkpt>
      <trkpt lat="47.66883" lon="6.17435">
        <ele>232.4</ele>
        <time>2022-02-07T14:01:22Z</time>
      </trkpt>
      <trkpt lat="47.6689" lon="6.17432">
        <ele>232.6</ele>
        <time>2022-02-07T14:01:24Z</time>
      </trkpt>
      <trkpt lat="47.66895" lon="6.1743">
        <ele>232.5</ele>
        <time>2022-02-07T14:01:26Z</time>
      </trkpt>
      <trkpt lat="47.66901" lon="6.17426">
        <ele>232.3</ele>
        <time>2022-02-07T14:01:28Z</time>
      </trkpt>
      <trkpt lat="47.66905" lon="6.17424">
        <ele>232.3</ele>
        <time>2022-02-07T14:01:29Z</time>
      </trkpt>
      <trkpt lat="47.66914" lon="6.17418">
        <ele>232</ele>
        <time>2022-02-07T14:01:32Z</time>
      </trkpt>
      <trkpt lat="47.66919" lon="6.17415">
        <ele>232</ele>
        <time>2022-02-07T14:01:33Z</time>
      </trkpt>
      <trkpt lat="47.66928" lon="6.17409">
        <ele>232.1</ele>
        <time>2022-02-07T14:01:36Z</time>
      </trkpt>
      <trkpt lat="47.66946" lon="6.17397">
        <ele>232.3</ele>
        <time>2022-02-07T14:01:40Z</time>
      </trkpt>
      <trkpt lat="47.66952" lon="6.17393">
        <ele>232.2</ele>
        <time>2022-02-07T14:01:42Z</time>
      </trkpt>
      <trkpt lat="47.66958" lon="6.1739">
        <ele>232</ele>
        <time>2022-02-07T14:01:43Z</time>
      </trkpt>
      <trkpt lat="47.66964" lon="6.17386">
        <ele>231.9</ele>
        <time>2022-02-07T14:01:44Z</time>
      </trkpt>
      <trkpt lat="47.66972" lon="6.17381">
        <ele>231.7</ele>
        <time>2022-02-07T14:01:46Z</time>
      </trkpt>
      <trkpt lat="47.66983" lon="6.17373">
        <ele>231.4</ele>
        <time>2022-02-07T14:01:49Z</time>
      </trkpt>
      <trkpt lat="47.66989" lon="6.17369">
        <ele>231.3</ele>
        <time>2022-02-07T14:01:50Z</time>
      </trkpt>
      <trkpt lat="47.66996" lon="6.17365">
        <ele>231.1</ele>
        <time>2022-02-07T14:01:52Z</time>
      </trkpt>
      <trkpt lat="47.67" lon="6.17361">
        <ele>231</ele>
        <time>2022-02-07T14:01:53Z</time>
      </trkpt>
      <trkpt lat="47.67014" lon="6.1735">
        <ele>231.3</ele>
        <time>2022-02-07T14:01:57Z</time>
      </trkpt>
      <trkpt lat="47.67019" lon="6.17345">
        <ele>231.3</ele>
        <time>2022-02-07T14:01:58Z</time>
      </trkpt>
      <trkpt lat="47.67024" lon="6.1734">
        <ele>231.2</ele>
        <time>2022-02-07T14:01:59Z</time>
      </trkpt>
      <trkpt lat="47.67029" lon="6.17336">
        <ele>231.1</ele>
        <time>2022-02-07T14:02:00Z</time>
      </trkpt>
      <trkpt lat="47.67038" lon="6.17322">
        <ele>231</ele>
        <time>2022-02-07T14:02:03Z</time>
      </trkpt>
      <trkpt lat="47.67046" lon="6.17309">
        <ele>230.8</ele>
        <time>2022-02-07T14:02:06Z</time>
      </trkpt>
      <trkpt lat="47.67048" lon="6.17302">
        <ele>230.6</ele>
        <time>2022-02-07T14:02:07Z</time>
      </trkpt>
      <trkpt lat="47.67051" lon="6.17296">
        <ele>230.5</ele>
        <time>2022-02-07T14:02:08Z</time>
      </trkpt>
      <trkpt lat="47.67057" lon="6.17278">
        <ele>230.1</ele>
        <time>2022-02-07T14:02:11Z</time>
      </trkpt>
      <trkpt lat="47.6706" lon="6.17266">
        <ele>230.3</ele>
        <time>2022-02-07T14:02:13Z</time>
      </trkpt>
      <trkpt lat="47.67063" lon="6.17259">
        <ele>230.3</ele>
        <time>2022-02-07T14:02:14Z</time>
      </trkpt>
      <trkpt lat="47.67064" lon="6.17252">
        <ele>230.3</ele>
        <time>2022-02-07T14:02:15Z</time>
      </trkpt>
      <trkpt lat="47.67067" lon="6.17237">
        <ele>229.9</ele>
        <time>2022-02-07T14:02:18Z</time>
      </trkpt>
      <trkpt lat="47.67069" lon="6.17227">
        <ele>229.7</ele>
        <time>2022-02-07T14:02:19Z</time>
      </trkpt>
      <trkpt lat="47.67069" lon="6.17219">
        <ele>229.4</ele>
        <time>2022-02-07T14:02:20Z</time>
      </trkpt>
      <trkpt lat="47.6707" lon="6.17211">
        <ele>229.3</ele>
        <time>2022-02-07T14:02:21Z</time>
      </trkpt>
      <trkpt lat="47.6707" lon="6.17203">
        <ele>229.2</ele>
        <time>2022-02-07T14:02:23Z</time>
      </trkpt>
      <trkpt lat="47.67069" lon="6.17195">
        <ele>229</ele>
        <time>2022-02-07T14:02:24Z</time>
      </trkpt>
      <trkpt lat="47.67069" lon="6.17186">
        <ele>229</ele>
        <time>2022-02-07T14:02:25Z</time>
      </trkpt>
      <trkpt lat="47.67067" lon="6.17166">
        <ele>229</ele>
        <time>2022-02-07T14:02:28Z</time>
      </trkpt>
      <trkpt lat="47.67067" lon="6.17159">
        <ele>229</ele>
        <time>2022-02-07T14:02:29Z</time>
      </trkpt>
      <trkpt lat="47.67066" lon="6.17152">
        <ele>229</ele>
        <time>2022-02-07T14:02:30Z</time>
      </trkpt>
      <trkpt lat="47.67064" lon="6.17133">
        <ele>229</ele>
        <time>2022-02-07T14:02:33Z</time>
      </trkpt>
      <trkpt lat="47.67063" lon="6.17124">
        <ele>229</ele>
        <time>2022-02-07T14:02:35Z</time>
      </trkpt>
      <trkpt lat="47.67062" lon="6.17116">
        <ele>229</ele>
        <time>2022-02-07T14:02:36Z</time>
      </trkpt>
      <trkpt lat="47.67062" lon="6.17108">
        <ele>229</ele>
        <time>2022-02-07T14:02:37Z</time>
      </trkpt>
      <trkpt lat="47.6706" lon="6.1709">
        <ele>229</ele>
        <time>2022-02-07T14:02:40Z</time>
      </trkpt>
      <trkpt lat="47.67059" lon="6.17064">
        <ele>229</ele>
        <time>2022-02-07T14:02:45Z</time>
      </trkpt>
      <trkpt lat="47.67058" lon="6.17046">
        <ele>229</ele>
        <time>2022-02-07T14:02:48Z</time>
      </trkpt>
      <trkpt lat="47.67059" lon="6.1703">
        <ele>229</ele>
        <time>2022-02-07T14:02:51Z</time>
      </trkpt>
      <trkpt lat="47.67061" lon="6.17021">
        <ele>229</ele>
        <time>2022-02-07T14:02:53Z</time>
      </trkpt>
      <trkpt lat="47.67064" lon="6.17003">
        <ele>229</ele>
        <time>2022-02-07T14:02:56Z</time>
      </trkpt>
      <trkpt lat="47.67066" lon="6.16993">
        <ele>229</ele>
        <time>2022-02-07T14:02:58Z</time>
      </trkpt>
      <trkpt lat="47.67068" lon="6.16982">
        <ele>229</ele>
        <time>2022-02-07T14:03:00Z</time>
      </trkpt>
      <trkpt lat="47.6707" lon="6.16971">
        <ele>229</ele>
        <time>2022-02-07T14:03:02Z</time>
      </trkpt>
      <trkpt lat="47.67073" lon="6.16953">
        <ele>229</ele>
        <time>2022-02-07T14:03:06Z</time>
      </trkpt>
      <trkpt lat="47.67074" lon="6.16937">
        <ele>229.1</ele>
        <time>2022-02-07T14:03:09Z</time>
      </trkpt>
      <trkpt lat="47.67074" lon="6.1693">
        <ele>229.2</ele>
        <time>2022-02-07T14:03:10Z</time>
      </trkpt>
      <trkpt lat="47.67073" lon="6.16921">
        <ele>229.3</ele>
        <time>2022-02-07T14:03:12Z</time>
      </trkpt>
      <trkpt lat="47.67072" lon="6.16913">
        <ele>229.5</ele>
        <time>2022-02-07T14:03:13Z</time>
      </trkpt>
      <trkpt lat="47.67069" lon="6.16905">
        <ele>229.7</ele>
        <time>2022-02-07T14:03:15Z</time>
      </trkpt>
      <trkpt lat="47.67066" lon="6.16899">
        <ele>229.9</ele>
        <time>2022-02-07T14:03:16Z</time>
      </trkpt>
      <trkpt lat="47.67058" lon="6.16885">
        <ele>230.1</ele>
        <time>2022-02-07T14:03:19Z</time>
      </trkpt>
      <trkpt lat="47.6705" lon="6.16873">
        <ele>230.8</ele>
        <time>2022-02-07T14:03:22Z</time>
      </trkpt>
      <trkpt lat="47.67047" lon="6.16868">
        <ele>231.1</ele>
        <time>2022-02-07T14:03:24Z</time>
      </trkpt>
      <trkpt lat="47.67041" lon="6.1686">
        <ele>231.5</ele>
        <time>2022-02-07T14:03:26Z</time>
      </trkpt>
      <trkpt lat="47.67037" lon="6.16856">
        <ele>231.7</ele>
        <time>2022-02-07T14:03:28Z</time>
      </trkpt>
      <trkpt lat="47.67018" lon="6.16838">
        <ele>232.4</ele>
        <time>2022-02-07T14:03:35Z</time>
      </trkpt>
      <trkpt lat="47.67006" lon="6.16828">
        <ele>232.6</ele>
        <time>2022-02-07T14:03:39Z</time>
      </trkpt>
      <trkpt lat="47.67" lon="6.16823">
        <ele>232.6</ele>
        <time>2022-02-07T14:03:41Z</time>
      </trkpt>
      <trkpt lat="47.66995" lon="6.16817">
        <ele>232.7</ele>
        <time>2022-02-07T14:03:43Z</time>
      </trkpt>
      <trkpt lat="47.6699" lon="6.16812">
        <ele>232.7</ele>
        <time>2022-02-07T14:03:45Z</time>
      </trkpt>
      <trkpt lat="47.66976" lon="6.168">
        <ele>232.9</ele>
        <time>2022-02-07T14:03:50Z</time>
      </trkpt>
      <trkpt lat="47.66971" lon="6.16796">
        <ele>233.1</ele>
        <time>2022-02-07T14:03:52Z</time>
      </trkpt>
      <trkpt lat="47.66966" lon="6.16791">
        <ele>233.3</ele>
        <time>2022-02-07T14:03:54Z</time>
      </trkpt>
      <trkpt lat="47.66962" lon="6.16787">
        <ele>233.5</ele>
        <time>2022-02-07T14:03:56Z</time>
      </trkpt>
      <trkpt lat="47.66957" lon="6.16781">
        <ele>233.6</ele>
        <time>2022-02-07T14:03:58Z</time>
      </trkpt>
      <trkpt lat="47.66953" lon="6.16777">
        <ele>233.7</ele>
        <time>2022-02-07T14:04:00Z</time>
      </trkpt>
      <trkpt lat="47.66949" lon="6.16772">
        <ele>233.6</ele>
        <time>2022-02-07T14:04:02Z</time>
      </trkpt>
      <trkpt lat="47.66944" lon="6.16764">
        <ele>233.5</ele>
        <time>2022-02-07T14:04:04Z</time>
      </trkpt>
      <trkpt lat="47.66941" lon="6.16758">
        <ele>233.4</ele>
        <time>2022-02-07T14:04:06Z</time>
      </trkpt>
      <trkpt lat="47.66938" lon="6.16749">
        <ele>233.2</ele>
        <time>2022-02-07T14:04:08Z</time>
      </trkpt>
      <trkpt lat="47.66935" lon="6.16742">
        <ele>233.3</ele>
        <time>2022-02-07T14:04:10Z</time>
      </trkpt>
      <trkpt lat="47.66934" lon="6.16734">
        <ele>233.4</ele>
        <time>2022-02-07T14:04:12Z</time>
      </trkpt>
      <trkpt lat="47.66931" lon="6.16717">
        <ele>233.5</ele>
        <time>2022-02-07T14:04:16Z</time>
      </trkpt>
      <trkpt lat="47.6693" lon="6.16709">
        <ele>233.5</ele>
        <time>2022-02-07T14:04:18Z</time>
      </trkpt>
      <trkpt lat="47.66929" lon="6.16702">
        <ele>233.6</ele>
        <time>2022-02-07T14:04:20Z</time>
      </trkpt>
      <trkpt lat="47.66928" lon="6.16696">
        <ele>233.6</ele>
        <time>2022-02-07T14:04:22Z</time>
      </trkpt>
      <trkpt lat="47.66928" lon="6.1668">
        <ele>233.6</ele>
        <time>2022-02-07T14:04:25Z</time>
      </trkpt>
      <trkpt lat="47.6693" lon="6.16672">
        <ele>233.5</ele>
        <time>2022-02-07T14:04:27Z</time>
      </trkpt>
      <trkpt lat="47.66932" lon="6.16662">
        <ele>233.4</ele>
        <time>2022-02-07T14:04:29Z</time>
      </trkpt>
      <trkpt lat="47.66936" lon="6.16636">
        <ele>233</ele>
        <time>2022-02-07T14:04:29Z</time>
      </trkpt>
      <trkpt lat="47.66937" lon="6.16628">
        <ele>233</ele>
        <time>2022-02-07T14:04:37Z</time>
      </trkpt>
      <trkpt lat="47.6694" lon="6.16612">
        <ele>233</ele>
        <time>2022-02-07T14:04:41Z</time>
      </trkpt>
      <trkpt lat="47.66942" lon="6.16599">
        <ele>233.4</ele>
        <time>2022-02-07T14:04:44Z</time>
      </trkpt>
      <trkpt lat="47.66948" lon="6.16566">
        <ele>234</ele>
        <time>2022-02-07T14:04:44Z</time>
      </trkpt>
      <trkpt lat="47.66947" lon="6.16558">
        <ele>234</ele>
        <time>2022-02-07T14:04:52Z</time>
      </trkpt>
      <trkpt lat="47.6695" lon="6.16547">
        <ele>234</ele>
        <time>2022-02-07T14:04:54Z</time>
      </trkpt>
      <trkpt lat="47.66952" lon="6.16541">
        <ele>234</ele>
        <time>2022-02-07T14:04:56Z</time>
      </trkpt>
      <trkpt lat="47.66954" lon="6.16534">
        <ele>234</ele>
        <time>2022-02-07T14:04:57Z</time>
      </trkpt>
      <trkpt lat="47.66955" lon="6.16527">
        <ele>234</ele>
        <time>2022-02-07T14:04:58Z</time>
      </trkpt>
      <trkpt lat="47.66956" lon="6.16519">
        <ele>234</ele>
        <time>2022-02-07T14:05:00Z</time>
      </trkpt>
      <trkpt lat="47.66956" lon="6.16511">
        <ele>234</ele>
        <time>2022-02-07T14:05:02Z</time>
      </trkpt>
      <trkpt lat="47.66957" lon="6.16493">
        <ele>234.2</ele>
        <time>2022-02-07T14:05:06Z</time>
      </trkpt>
      <trkpt lat="47.66957" lon="6.16477">
        <ele>234.8</ele>
        <time>2022-02-07T14:05:10Z</time>
      </trkpt>
      <trkpt lat="47.6696" lon="6.1646">
        <ele>235.4</ele>
        <time>2022-02-07T14:05:15Z</time>
      </trkpt>
      <trkpt lat="47.66964" lon="6.16457">
        <ele>235.5</ele>
        <time>2022-02-07T14:05:18Z</time>
      </trkpt>
      <trkpt lat="47.66968" lon="6.16462">
        <ele>235.4</ele>
        <time>2022-02-07T14:05:20Z</time>
      </trkpt>
      <trkpt lat="47.66982" lon="6.1647">
        <ele>235.1</ele>
        <time>2022-02-07T14:05:26Z</time>
      </trkpt>
      <trkpt lat="47.66994" lon="6.16474">
        <ele>235</ele>
        <time>2022-02-07T14:05:30Z</time>
      </trkpt>
      <trkpt lat="47.67001" lon="6.16475">
        <ele>235</ele>
        <time>2022-02-07T14:05:32Z</time>
      </trkpt>
      <trkpt lat="47.67007" lon="6.16476">
        <ele>235</ele>
        <time>2022-02-07T14:05:34Z</time>
      </trkpt>
      <trkpt lat="47.67012" lon="6.16478">
        <ele>235</ele>
        <time>2022-02-07T14:05:35Z</time>
      </trkpt>
      <trkpt lat="47.6702" lon="6.16479">
        <ele>235</ele>
        <time>2022-02-07T14:05:37Z</time>
      </trkpt>
      <trkpt lat="47.67025" lon="6.1648">
        <ele>235</ele>
        <time>2022-02-07T14:05:39Z</time>
      </trkpt>
      <trkpt lat="47.67029" lon="6.16481">
        <ele>235</ele>
        <time>2022-02-07T14:05:40Z</time>
      </trkpt>
      <trkpt lat="47.67037" lon="6.16481">
        <ele>235.2</ele>
        <time>2022-02-07T14:05:42Z</time>
      </trkpt>
      <trkpt lat="47.67055" lon="6.16481">
        <ele>235.7</ele>
        <time>2022-02-07T14:05:48Z</time>
      </trkpt>
      <trkpt lat="47.67061" lon="6.1648">
        <ele>235.7</ele>
        <time>2022-02-07T14:05:50Z</time>
      </trkpt>
      <trkpt lat="47.67066" lon="6.16478">
        <ele>235.7</ele>
        <time>2022-02-07T14:05:52Z</time>
      </trkpt>
      <trkpt lat="47.67075" lon="6.16472">
        <ele>236</ele>
        <time>2022-02-07T14:05:55Z</time>
      </trkpt>
      <trkpt lat="47.67081" lon="6.16468">
        <ele>236</ele>
        <time>2022-02-07T14:05:57Z</time>
      </trkpt>
      <trkpt lat="47.67086" lon="6.16464">
        <ele>235.9</ele>
        <time>2022-02-07T14:05:59Z</time>
      </trkpt>
      <trkpt lat="47.67092" lon="6.16457">
        <ele>235.9</ele>
        <time>2022-02-07T14:06:01Z</time>
      </trkpt>
      <trkpt lat="47.67097" lon="6.16453">
        <ele>235.9</ele>
        <time>2022-02-07T14:06:03Z</time>
      </trkpt>
      <trkpt lat="47.67102" lon="6.16448">
        <ele>235.9</ele>
        <time>2022-02-07T14:06:05Z</time>
      </trkpt>
      <trkpt lat="47.67107" lon="6.16443">
        <ele>236</ele>
        <time>2022-02-07T14:06:07Z</time>
      </trkpt>
      <trkpt lat="47.67111" lon="6.16438">
        <ele>236</ele>
        <time>2022-02-07T14:06:08Z</time>
      </trkpt>
      <trkpt lat="47.67118" lon="6.16431">
        <ele>236</ele>
        <time>2022-02-07T14:06:10Z</time>
      </trkpt>
      <trkpt lat="47.67122" lon="6.16427">
        <ele>236</ele>
        <time>2022-02-07T14:06:12Z</time>
      </trkpt>
      <trkpt lat="47.67126" lon="6.16423">
        <ele>236</ele>
        <time>2022-02-07T14:06:13Z</time>
      </trkpt>
      <trkpt lat="47.67132" lon="6.16417">
        <ele>236</ele>
        <time>2022-02-07T14:06:15Z</time>
      </trkpt>
      <trkpt lat="47.67144" lon="6.16405">
        <ele>236.4</ele>
        <time>2022-02-07T14:06:19Z</time>
      </trkpt>
      <trkpt lat="47.67151" lon="6.16398">
        <ele>236.4</ele>
        <time>2022-02-07T14:06:21Z</time>
      </trkpt>
      <trkpt lat="47.67156" lon="6.16393">
        <ele>236.3</ele>
        <time>2022-02-07T14:06:23Z</time>
      </trkpt>
      <trkpt lat="47.67161" lon="6.16389">
        <ele>236.2</ele>
        <time>2022-02-07T14:06:25Z</time>
      </trkpt>
      <trkpt lat="47.67172" lon="6.16378">
        <ele>236.4</ele>
        <time>2022-02-07T14:06:29Z</time>
      </trkpt>
      <trkpt lat="47.67176" lon="6.16373">
        <ele>236.6</ele>
        <time>2022-02-07T14:06:31Z</time>
      </trkpt>
      <trkpt lat="47.67194" lon="6.16356">
        <ele>237.2</ele>
        <time>2022-02-07T14:06:38Z</time>
      </trkpt>
      <trkpt lat="47.6721" lon="6.1634">
        <ele>237.2</ele>
        <time>2022-02-07T14:06:38Z</time>
      </trkpt>
      <trkpt lat="47.67215" lon="6.16336">
        <ele>237.2</ele>
        <time>2022-02-07T14:06:46Z</time>
      </trkpt>
      <trkpt lat="47.6722" lon="6.16331">
        <ele>237.2</ele>
        <time>2022-02-07T14:06:48Z</time>
      </trkpt>
      <trkpt lat="47.67225" lon="6.16326">
        <ele>237.2</ele>
        <time>2022-02-07T14:06:50Z</time>
      </trkpt>
      <trkpt lat="47.6723" lon="6.16321">
        <ele>237.3</ele>
        <time>2022-02-07T14:06:52Z</time>
      </trkpt>
      <trkpt lat="47.67245" lon="6.16307">
        <ele>237.9</ele>
        <time>2022-02-07T14:06:58Z</time>
      </trkpt>
      <trkpt lat="47.67254" lon="6.16299">
        <ele>238.1</ele>
        <time>2022-02-07T14:07:01Z</time>
      </trkpt>
      <trkpt lat="47.67259" lon="6.16295">
        <ele>238.1</ele>
        <time>2022-02-07T14:07:03Z</time>
      </trkpt>
      <trkpt lat="47.67264" lon="6.16291">
        <ele>238</ele>
        <time>2022-02-07T14:07:05Z</time>
      </trkpt>
      <trkpt lat="47.6727" lon="6.16289">
        <ele>237.9</ele>
        <time>2022-02-07T14:07:07Z</time>
      </trkpt>
      <trkpt lat="47.67275" lon="6.16285">
        <ele>237.8</ele>
        <time>2022-02-07T14:07:09Z</time>
      </trkpt>
      <trkpt lat="47.67285" lon="6.1628">
        <ele>237.7</ele>
        <time>2022-02-07T14:07:12Z</time>
      </trkpt>
      <trkpt lat="47.6729" lon="6.16278">
        <ele>237.5</ele>
        <time>2022-02-07T14:07:14Z</time>
      </trkpt>
      <trkpt lat="47.67296" lon="6.16276">
        <ele>237.3</ele>
        <time>2022-02-07T14:07:16Z</time>
      </trkpt>
      <trkpt lat="47.67301" lon="6.16274">
        <ele>237.2</ele>
        <time>2022-02-07T14:07:17Z</time>
      </trkpt>
      <trkpt lat="47.67307" lon="6.16272">
        <ele>237</ele>
        <time>2022-02-07T14:07:19Z</time>
      </trkpt>
      <trkpt lat="47.67313" lon="6.1627">
        <ele>236.7</ele>
        <time>2022-02-07T14:07:21Z</time>
      </trkpt>
      <trkpt lat="47.67324" lon="6.16265">
        <ele>236.4</ele>
        <time>2022-02-07T14:07:25Z</time>
      </trkpt>
      <trkpt lat="47.67333" lon="6.16261">
        <ele>236</ele>
        <time>2022-02-07T14:07:28Z</time>
      </trkpt>
      <trkpt lat="47.67339" lon="6.1626">
        <ele>236.3</ele>
        <time>2022-02-07T14:07:30Z</time>
      </trkpt>
      <trkpt lat="47.67352" lon="6.16255">
        <ele>237.1</ele>
        <time>2022-02-07T14:07:34Z</time>
      </trkpt>
      <trkpt lat="47.67363" lon="6.16251">
        <ele>237.9</ele>
        <time>2022-02-07T14:07:38Z</time>
      </trkpt>
      <trkpt lat="47.67375" lon="6.16247">
        <ele>237.5</ele>
        <time>2022-02-07T14:07:42Z</time>
      </trkpt>
      <trkpt lat="47.67382" lon="6.16244">
        <ele>237.5</ele>
        <time>2022-02-07T14:07:44Z</time>
      </trkpt>
      <trkpt lat="47.67387" lon="6.16242">
        <ele>237.6</ele>
        <time>2022-02-07T14:07:46Z</time>
      </trkpt>
      <trkpt lat="47.67393" lon="6.1624">
        <ele>237.8</ele>
        <time>2022-02-07T14:07:48Z</time>
      </trkpt>
      <trkpt lat="47.6741" lon="6.16233">
        <ele>238.5</ele>
        <time>2022-02-07T14:07:49Z</time>
      </trkpt>
      <trkpt lat="47.67415" lon="6.1623">
        <ele>238.7</ele>
        <time>2022-02-07T14:07:51Z</time>
      </trkpt>
      <trkpt lat="47.6742" lon="6.16228">
        <ele>238.8</ele>
        <time>2022-02-07T14:07:53Z</time>
      </trkpt>
      <trkpt lat="47.67425" lon="6.16226">
        <ele>238.9</ele>
        <time>2022-02-07T14:08:00Z</time>
      </trkpt>
      <trkpt lat="47.67429" lon="6.16223">
        <ele>239</ele>
        <time>2022-02-07T14:08:02Z</time>
      </trkpt>
      <trkpt lat="47.67446" lon="6.16213">
        <ele>239.6</ele>
        <time>2022-02-07T14:08:03Z</time>
      </trkpt>
      <trkpt lat="47.67452" lon="6.1621">
        <ele>239.8</ele>
        <time>2022-02-07T14:08:11Z</time>
      </trkpt>
      <trkpt lat="47.67457" lon="6.16207">
        <ele>239.9</ele>
        <time>2022-02-07T14:08:13Z</time>
      </trkpt>
      <trkpt lat="47.67474" lon="6.16197">
        <ele>239.9</ele>
        <time>2022-02-07T14:08:19Z</time>
      </trkpt>
      <trkpt lat="47.6748" lon="6.16194">
        <ele>239.8</ele>
        <time>2022-02-07T14:08:21Z</time>
      </trkpt>
      <trkpt lat="47.67486" lon="6.1619">
        <ele>239.8</ele>
        <time>2022-02-07T14:08:23Z</time>
      </trkpt>
      <trkpt lat="47.67491" lon="6.16186">
        <ele>239.9</ele>
        <time>2022-02-07T14:08:25Z</time>
      </trkpt>
      <trkpt lat="47.67496" lon="6.16184">
        <ele>239.9</ele>
        <time>2022-02-07T14:08:27Z</time>
      </trkpt>
      <trkpt lat="47.67502" lon="6.16181">
        <ele>239.9</ele>
        <time>2022-02-07T14:08:29Z</time>
      </trkpt>
      <trkpt lat="47.67511" lon="6.16174">
        <ele>240.1</ele>
        <time>2022-02-07T14:08:33Z</time>
      </trkpt>
      <trkpt lat="47.67516" lon="6.16172">
        <ele>240.1</ele>
        <time>2022-02-07T14:08:35Z</time>
      </trkpt>
      <trkpt lat="47.67523" lon="6.16168">
        <ele>240.1</ele>
        <time>2022-02-07T14:08:37Z</time>
      </trkpt>
      <trkpt lat="47.67529" lon="6.16165">
        <ele>240.1</ele>
        <time>2022-02-07T14:08:39Z</time>
      </trkpt>
      <trkpt lat="47.67534" lon="6.16162">
        <ele>240.1</ele>
        <time>2022-02-07T14:08:41Z</time>
      </trkpt>
      <trkpt lat="47.67545" lon="6.16155">
        <ele>240.2</ele>
        <time>2022-02-07T14:08:44Z</time>
      </trkpt>
      <trkpt lat="47.67564" lon="6.16147">
        <ele>240.1</ele>
        <time>2022-02-07T14:08:45Z</time>
      </trkpt>
      <trkpt lat="47.67569" lon="6.16145">
        <ele>240</ele>
        <time>2022-02-07T14:08:52Z</time>
      </trkpt>
      <trkpt lat="47.67582" lon="6.16143">
        <ele>239.8</ele>
        <time>2022-02-07T14:08:56Z</time>
      </trkpt>
      <trkpt lat="47.67598" lon="6.16139">
        <ele>240</ele>
        <time>2022-02-07T14:09:01Z</time>
      </trkpt>
      <trkpt lat="47.67604" lon="6.16138">
        <ele>240</ele>
        <time>2022-02-07T14:09:03Z</time>
      </trkpt>
      <trkpt lat="47.67614" lon="6.16136">
        <ele>240</ele>
        <time>2022-02-07T14:09:06Z</time>
      </trkpt>
      <trkpt lat="47.67619" lon="6.16135">
        <ele>239.9</ele>
        <time>2022-02-07T14:09:07Z</time>
      </trkpt>
      <trkpt lat="47.67623" lon="6.16134">
        <ele>239.8</ele>
        <time>2022-02-07T14:09:09Z</time>
      </trkpt>
      <trkpt lat="47.67635" lon="6.16131">
        <ele>239.6</ele>
        <time>2022-02-07T14:09:12Z</time>
      </trkpt>
      <trkpt lat="47.67654" lon="6.16128">
        <ele>239.4</ele>
        <time>2022-02-07T14:09:13Z</time>
      </trkpt>
      <trkpt lat="47.6766" lon="6.16127">
        <ele>239.5</ele>
        <time>2022-02-07T14:09:15Z</time>
      </trkpt>
      <trkpt lat="47.67666" lon="6.16126">
        <ele>239.4</ele>
        <time>2022-02-07T14:09:17Z</time>
      </trkpt>
      <trkpt lat="47.67672" lon="6.16124">
        <ele>239.6</ele>
        <time>2022-02-07T14:09:24Z</time>
      </trkpt>
      <trkpt lat="47.67677" lon="6.16123">
        <ele>239.7</ele>
        <time>2022-02-07T14:09:26Z</time>
      </trkpt>
      <trkpt lat="47.67697" lon="6.16118">
        <ele>240.3</ele>
        <time>2022-02-07T14:09:27Z</time>
      </trkpt>
      <trkpt lat="47.67703" lon="6.16117">
        <ele>240.4</ele>
        <time>2022-02-07T14:09:29Z</time>
      </trkpt>
      <trkpt lat="47.67709" lon="6.16117">
        <ele>240.5</ele>
        <time>2022-02-07T14:09:31Z</time>
      </trkpt>
      <trkpt lat="47.67715" lon="6.16117">
        <ele>240.6</ele>
        <time>2022-02-07T14:09:38Z</time>
      </trkpt>
      <trkpt lat="47.6772" lon="6.16118">
        <ele>240.5</ele>
        <time>2022-02-07T14:09:40Z</time>
      </trkpt>
      <trkpt lat="47.67739" lon="6.1612">
        <ele>240.4</ele>
        <time>2022-02-07T14:09:46Z</time>
      </trkpt>
      <trkpt lat="47.67759" lon="6.16125">
        <ele>240.2</ele>
        <time>2022-02-07T14:09:47Z</time>
      </trkpt>
      <trkpt lat="47.67765" lon="6.16126">
        <ele>240.2</ele>
        <time>2022-02-07T14:09:49Z</time>
      </trkpt>
      <trkpt lat="47.67771" lon="6.16127">
        <ele>240.3</ele>
        <time>2022-02-07T14:09:51Z</time>
      </trkpt>
      <trkpt lat="47.67777" lon="6.16129">
        <ele>240.3</ele>
        <time>2022-02-07T14:09:53Z</time>
      </trkpt>
      <trkpt lat="47.67782" lon="6.16131">
        <ele>240.4</ele>
        <time>2022-02-07T14:10:00Z</time>
      </trkpt>
      <trkpt lat="47.67788" lon="6.16133">
        <ele>240.5</ele>
        <time>2022-02-07T14:10:02Z</time>
      </trkpt>
      <trkpt lat="47.67793" lon="6.16134">
        <ele>240.6</ele>
        <time>2022-02-07T14:10:04Z</time>
      </trkpt>
      <trkpt lat="47.67806" lon="6.16137">
        <ele>241</ele>
        <time>2022-02-07T14:10:08Z</time>
      </trkpt>
      <trkpt lat="47.67812" lon="6.16138">
        <ele>241</ele>
        <time>2022-02-07T14:10:10Z</time>
      </trkpt>
      <trkpt lat="47.67817" lon="6.1614">
        <ele>240.9</ele>
        <time>2022-02-07T14:10:12Z</time>
      </trkpt>
      <trkpt lat="47.67822" lon="6.16141">
        <ele>240.9</ele>
        <time>2022-02-07T14:10:14Z</time>
      </trkpt>
      <trkpt lat="47.67828" lon="6.16143">
        <ele>240.8</ele>
        <time>2022-02-07T14:10:16Z</time>
      </trkpt>
      <trkpt lat="47.67839" lon="6.16147">
        <ele>240.8</ele>
        <time>2022-02-07T14:10:19Z</time>
      </trkpt>
      <trkpt lat="47.67844" lon="6.1615">
        <ele>240.7</ele>
        <time>2022-02-07T14:10:21Z</time>
      </trkpt>
      <trkpt lat="47.67848" lon="6.16154">
        <ele>240.7</ele>
        <time>2022-02-07T14:10:22Z</time>
      </trkpt>
      <trkpt lat="47.67853" lon="6.16161">
        <ele>240.8</ele>
        <time>2022-02-07T14:10:24Z</time>
      </trkpt>
      <trkpt lat="47.67857" lon="6.16166">
        <ele>240.9</ele>
        <time>2022-02-07T14:10:26Z</time>
      </trkpt>
      <trkpt lat="47.67862" lon="6.16175">
        <ele>240.7</ele>
        <time>2022-02-07T14:10:28Z</time>
      </trkpt>
      <trkpt lat="47.67868" lon="6.16193">
        <ele>240.3</ele>
        <time>2022-02-07T14:10:32Z</time>
      </trkpt>
      <trkpt lat="47.6787" lon="6.162">
        <ele>240.3</ele>
        <time>2022-02-07T14:10:33Z</time>
      </trkpt>
      <trkpt lat="47.67873" lon="6.16209">
        <ele>240.4</ele>
        <time>2022-02-07T14:10:35Z</time>
      </trkpt>
      <trkpt lat="47.67875" lon="6.16218">
        <ele>240.5</ele>
        <time>2022-02-07T14:10:37Z</time>
      </trkpt>
      <trkpt lat="47.67878" lon="6.16226">
        <ele>240.6</ele>
        <time>2022-02-07T14:10:39Z</time>
      </trkpt>
      <trkpt lat="47.67881" lon="6.1624">
        <ele>240.7</ele>
        <time>2022-02-07T14:10:42Z</time>
      </trkpt>
      <trkpt lat="47.67886" lon="6.16256">
        <ele>240.9</ele>
        <time>2022-02-07T14:10:45Z</time>
      </trkpt>
      <trkpt lat="47.67888" lon="6.16265">
        <ele>241</ele>
        <time>2022-02-07T14:10:47Z</time>
      </trkpt>
      <trkpt lat="47.67891" lon="6.16275">
        <ele>241</ele>
        <time>2022-02-07T14:10:49Z</time>
      </trkpt>
      <trkpt lat="47.67894" lon="6.16283">
        <ele>240.8</ele>
        <time>2022-02-07T14:10:51Z</time>
      </trkpt>
      <trkpt lat="47.67896" lon="6.16291">
        <ele>240.6</ele>
        <time>2022-02-07T14:10:53Z</time>
      </trkpt>
      <trkpt lat="47.67898" lon="6.16298">
        <ele>240.5</ele>
        <time>2022-02-07T14:10:54Z</time>
      </trkpt>
      <trkpt lat="47.679" lon="6.16304">
        <ele>240.4</ele>
        <time>2022-02-07T14:10:56Z</time>
      </trkpt>
      <trkpt lat="47.67902" lon="6.16311">
        <ele>240.4</ele>
        <time>2022-02-07T14:10:57Z</time>
      </trkpt>
      <trkpt lat="47.67903" lon="6.16317">
        <ele>240.3</ele>
        <time>2022-02-07T14:10:59Z</time>
      </trkpt>
      <trkpt lat="47.67905" lon="6.16325">
        <ele>240.2</ele>
        <time>2022-02-07T14:11:00Z</time>
      </trkpt>
      <trkpt lat="47.67908" lon="6.16335">
        <ele>240</ele>
        <time>2022-02-07T14:11:02Z</time>
      </trkpt>
      <trkpt lat="47.67911" lon="6.16343">
        <ele>240</ele>
        <time>2022-02-07T14:11:04Z</time>
      </trkpt>
      <trkpt lat="47.67913" lon="6.16351">
        <ele>240</ele>
        <time>2022-02-07T14:11:06Z</time>
      </trkpt>
      <trkpt lat="47.67921" lon="6.16368">
        <ele>239.8</ele>
        <time>2022-02-07T14:11:09Z</time>
      </trkpt>
      <trkpt lat="47.6793" lon="6.16382">
        <ele>239.2</ele>
        <time>2022-02-07T14:11:13Z</time>
      </trkpt>
      <trkpt lat="47.67934" lon="6.16386">
        <ele>239.1</ele>
        <time>2022-02-07T14:11:14Z</time>
      </trkpt>
      <trkpt lat="47.67938" lon="6.16391">
        <ele>239</ele>
        <time>2022-02-07T14:11:15Z</time>
      </trkpt>
      <trkpt lat="47.67943" lon="6.16396">
        <ele>239</ele>
        <time>2022-02-07T14:11:16Z</time>
      </trkpt>
      <trkpt lat="47.67948" lon="6.164">
        <ele>238.9</ele>
        <time>2022-02-07T14:11:18Z</time>
      </trkpt>
      <trkpt lat="47.67954" lon="6.16403">
        <ele>238.8</ele>
        <time>2022-02-07T14:11:19Z</time>
      </trkpt>
      <trkpt lat="47.67969" lon="6.16409">
        <ele>238.4</ele>
        <time>2022-02-07T14:11:23Z</time>
      </trkpt>
      <trkpt lat="47.67975" lon="6.16411">
        <ele>238.2</ele>
        <time>2022-02-07T14:11:24Z</time>
      </trkpt>
      <trkpt lat="47.67997" lon="6.16418">
        <ele>238</ele>
        <time>2022-02-07T14:11:29Z</time>
      </trkpt>
      <trkpt lat="47.68008" lon="6.16421">
        <ele>238</ele>
        <time>2022-02-07T14:11:32Z</time>
      </trkpt>
      <trkpt lat="47.68014" lon="6.16423">
        <ele>238</ele>
        <time>2022-02-07T14:11:33Z</time>
      </trkpt>
      <trkpt lat="47.68025" lon="6.16427">
        <ele>238</ele>
        <time>2022-02-07T14:11:36Z</time>
      </trkpt>
      <trkpt lat="47.68036" lon="6.16434">
        <ele>237.8</ele>
        <time>2022-02-07T14:11:39Z</time>
      </trkpt>
      <trkpt lat="47.6804" lon="6.16439">
        <ele>237.6</ele>
        <time>2022-02-07T14:11:40Z</time>
      </trkpt>
      <trkpt lat="47.68049" lon="6.16454">
        <ele>237.3</ele>
        <time>2022-02-07T14:11:43Z</time>
      </trkpt>
      <trkpt lat="47.68052" lon="6.16462">
        <ele>237.1</ele>
        <time>2022-02-07T14:11:44Z</time>
      </trkpt>
      <trkpt lat="47.68072" lon="6.16504">
        <ele>236.3</ele>
        <time>2022-02-07T14:11:45Z</time>
      </trkpt>
      <trkpt lat="47.68074" lon="6.1651">
        <ele>236.1</ele>
        <time>2022-02-07T14:11:46Z</time>
      </trkpt>
      <trkpt lat="47.68077" lon="6.16517">
        <ele>235.8</ele>
        <time>2022-02-07T14:11:47Z</time>
      </trkpt>
      <trkpt lat="47.6808" lon="6.16523">
        <ele>235.4</ele>
        <time>2022-02-07T14:11:48Z</time>
      </trkpt>
      <trkpt lat="47.68082" lon="6.16529">
        <ele>235.1</ele>
        <time>2022-02-07T14:11:49Z</time>
      </trkpt>
      <trkpt lat="47.68086" lon="6.16534">
        <ele>234.9</ele>
        <time>2022-02-07T14:11:50Z</time>
      </trkpt>
      <trkpt lat="47.68089" lon="6.1654">
        <ele>234.8</ele>
        <time>2022-02-07T14:11:51Z</time>
      </trkpt>
      <trkpt lat="47.68092" lon="6.16546">
        <ele>234.7</ele>
        <time>2022-02-07T14:11:52Z</time>
      </trkpt>
      <trkpt lat="47.68096" lon="6.16552">
        <ele>234.5</ele>
        <time>2022-02-07T14:11:53Z</time>
      </trkpt>
      <trkpt lat="47.68101" lon="6.16557">
        <ele>234.3</ele>
        <time>2022-02-07T14:11:54Z</time>
      </trkpt>
      <trkpt lat="47.68106" lon="6.16562">
        <ele>234</ele>
        <time>2022-02-07T14:11:55Z</time>
      </trkpt>
      <trkpt lat="47.68111" lon="6.16567">
        <ele>233.6</ele>
        <time>2022-02-07T14:11:56Z</time>
      </trkpt>
      <trkpt lat="47.68117" lon="6.16571">
        <ele>233.4</ele>
        <time>2022-02-07T14:11:57Z</time>
      </trkpt>
      <trkpt lat="47.68123" lon="6.16574">
        <ele>233.2</ele>
        <time>2022-02-07T14:11:58Z</time>
      </trkpt>
      <trkpt lat="47.68128" lon="6.16577">
        <ele>233.1</ele>
        <time>2022-02-07T14:11:59Z</time>
      </trkpt>
      <trkpt lat="47.68134" lon="6.16581">
        <ele>233</ele>
        <time>2022-02-07T14:12:00Z</time>
      </trkpt>
      <trkpt lat="47.68139" lon="6.16584">
        <ele>233</ele>
        <time>2022-02-07T14:12:01Z</time>
      </trkpt>
      <trkpt lat="47.68144" lon="6.16586">
        <ele>233</ele>
        <time>2022-02-07T14:12:02Z</time>
      </trkpt>
      <trkpt lat="47.68149" lon="6.16585">
        <ele>233</ele>
        <time>2022-02-07T14:12:03Z</time>
      </trkpt>
      <trkpt lat="47.68155" lon="6.16575">
        <ele>232.8</ele>
        <time>2022-02-07T14:12:05Z</time>
      </trkpt>
      <trkpt lat="47.68156" lon="6.16569">
        <ele>232.7</ele>
        <time>2022-02-07T14:12:06Z</time>
      </trkpt>
      <trkpt lat="47.68157" lon="6.16562">
        <ele>232.5</ele>
        <time>2022-02-07T14:12:07Z</time>
      </trkpt>
      <trkpt lat="47.68158" lon="6.16554">
        <ele>232.3</ele>
        <time>2022-02-07T14:12:08Z</time>
      </trkpt>
      <trkpt lat="47.68158" lon="6.16547">
        <ele>232.3</ele>
        <time>2022-02-07T14:12:09Z</time>
      </trkpt>
      <trkpt lat="47.68156" lon="6.16535">
        <ele>232.4</ele>
        <time>2022-02-07T14:12:11Z</time>
      </trkpt>
      <trkpt lat="47.68152" lon="6.16524">
        <ele>232.5</ele>
        <time>2022-02-07T14:12:13Z</time>
      </trkpt>
      <trkpt lat="47.68147" lon="6.16517">
        <ele>232.7</ele>
        <time>2022-02-07T14:12:15Z</time>
      </trkpt>
      <trkpt lat="47.68143" lon="6.16509">
        <ele>232.9</ele>
        <time>2022-02-07T14:12:17Z</time>
      </trkpt>
      <trkpt lat="47.68138" lon="6.16502">
        <ele>233.1</ele>
        <time>2022-02-07T14:12:19Z</time>
      </trkpt>
      <trkpt lat="47.68134" lon="6.16498">
        <ele>233.4</ele>
        <time>2022-02-07T14:12:26Z</time>
      </trkpt>
      <trkpt lat="47.68129" lon="6.16487">
        <ele>234</ele>
        <time>2022-02-07T14:12:29Z</time>
      </trkpt>
      <trkpt lat="47.68128" lon="6.16479">
        <ele>234.2</ele>
        <time>2022-02-07T14:12:30Z</time>
      </trkpt>
      <trkpt lat="47.6813" lon="6.16472">
        <ele>234.3</ele>
        <time>2022-02-07T14:12:32Z</time>
      </trkpt>
      <trkpt lat="47.68132" lon="6.16465">
        <ele>234.3</ele>
        <time>2022-02-07T14:12:35Z</time>
      </trkpt>
      <trkpt lat="47.68134" lon="6.16457">
        <ele>234.3</ele>
        <time>2022-02-07T14:12:38Z</time>
      </trkpt>
      <trkpt lat="47.68136" lon="6.16448">
        <ele>234.2</ele>
        <time>2022-02-07T14:12:41Z</time>
      </trkpt>
      <trkpt lat="47.68138" lon="6.16442">
        <ele>234.1</ele>
        <time>2022-02-07T14:12:43Z</time>
      </trkpt>
      <trkpt lat="47.6814" lon="6.16433">
        <ele>234</ele>
        <time>2022-02-07T14:12:45Z</time>
      </trkpt>
      <trkpt lat="47.68142" lon="6.16426">
        <ele>233.9</ele>
        <time>2022-02-07T14:12:46Z</time>
      </trkpt>
      <trkpt lat="47.68146" lon="6.16412">
        <ele>233.7</ele>
        <time>2022-02-07T14:12:49Z</time>
      </trkpt>
      <trkpt lat="47.68149" lon="6.16401">
        <ele>233.6</ele>
        <time>2022-02-07T14:12:51Z</time>
      </trkpt>
      <trkpt lat="47.68151" lon="6.16394">
        <ele>233.6</ele>
        <time>2022-02-07T14:12:52Z</time>
      </trkpt>
      <trkpt lat="47.68154" lon="6.16385">
        <ele>233.5</ele>
        <time>2022-02-07T14:12:54Z</time>
      </trkpt>
      <trkpt lat="47.68156" lon="6.16378">
        <ele>233.5</ele>
        <time>2022-02-07T14:12:56Z</time>
      </trkpt>
      <trkpt lat="47.68158" lon="6.16372">
        <ele>233.5</ele>
        <time>2022-02-07T14:12:57Z</time>
      </trkpt>
      <trkpt lat="47.68163" lon="6.16354">
        <ele>233.3</ele>
        <time>2022-02-07T14:13:01Z</time>
      </trkpt>
      <trkpt lat="47.68165" lon="6.16347">
        <ele>233.1</ele>
        <time>2022-02-07T14:13:03Z</time>
      </trkpt>
      <trkpt lat="47.68169" lon="6.16334">
        <ele>232.9</ele>
        <time>2022-02-07T14:13:06Z</time>
      </trkpt>
      <trkpt lat="47.6817" lon="6.16324">
        <ele>232.9</ele>
        <time>2022-02-07T14:13:08Z</time>
      </trkpt>
      <trkpt lat="47.68172" lon="6.16316">
        <ele>232.9</ele>
        <time>2022-02-07T14:13:10Z</time>
      </trkpt>
      <trkpt lat="47.68172" lon="6.16306">
        <ele>233</ele>
        <time>2022-02-07T14:13:12Z</time>
      </trkpt>
      <trkpt lat="47.68173" lon="6.163">
        <ele>233</ele>
        <time>2022-02-07T14:13:14Z</time>
      </trkpt>
      <trkpt lat="47.68174" lon="6.16289">
        <ele>233</ele>
        <time>2022-02-07T14:13:16Z</time>
      </trkpt>
      <trkpt lat="47.68174" lon="6.16282">
        <ele>233</ele>
        <time>2022-02-07T14:13:18Z</time>
      </trkpt>
      <trkpt lat="47.68176" lon="6.16272">
        <ele>233</ele>
        <time>2022-02-07T14:13:21Z</time>
      </trkpt>
      <trkpt lat="47.68178" lon="6.16265">
        <ele>233</ele>
        <time>2022-02-07T14:13:23Z</time>
      </trkpt>
      <trkpt lat="47.68193" lon="6.1625">
        <ele>233</ele>
        <time>2022-02-07T14:13:24Z</time>
      </trkpt>
      <trkpt lat="47.68197" lon="6.16245">
        <ele>233</ele>
        <time>2022-02-07T14:13:31Z</time>
      </trkpt>
      <trkpt lat="47.68204" lon="6.16236">
        <ele>233</ele>
        <time>2022-02-07T14:13:34Z</time>
      </trkpt>
      <trkpt lat="47.68211" lon="6.16211">
        <ele>233.2</ele>
        <time>2022-02-07T14:13:39Z</time>
      </trkpt>
      <trkpt lat="47.68213" lon="6.16202">
        <ele>233.2</ele>
        <time>2022-02-07T14:13:41Z</time>
      </trkpt>
      <trkpt lat="47.68215" lon="6.16195">
        <ele>233.3</ele>
        <time>2022-02-07T14:13:43Z</time>
      </trkpt>
      <trkpt lat="47.68218" lon="6.16169">
        <ele>233.3</ele>
        <time>2022-02-07T14:13:44Z</time>
      </trkpt>
      <trkpt lat="47.6822" lon="6.16163">
        <ele>233.3</ele>
        <time>2022-02-07T14:13:46Z</time>
      </trkpt>
      <trkpt lat="47.68221" lon="6.16156">
        <ele>233.5</ele>
        <time>2022-02-07T14:13:48Z</time>
      </trkpt>
      <trkpt lat="47.68222" lon="6.16145">
        <ele>233.8</ele>
        <time>2022-02-07T14:13:56Z</time>
      </trkpt>
      <trkpt lat="47.68224" lon="6.16137">
        <ele>234</ele>
        <time>2022-02-07T14:13:58Z</time>
      </trkpt>
      <trkpt lat="47.68224" lon="6.1613">
        <ele>233.9</ele>
        <time>2022-02-07T14:14:00Z</time>
      </trkpt>
      <trkpt lat="47.68226" lon="6.16123">
        <ele>233.9</ele>
        <time>2022-02-07T14:14:02Z</time>
      </trkpt>
      <trkpt lat="47.68227" lon="6.16113">
        <ele>233.8</ele>
        <time>2022-02-07T14:14:05Z</time>
      </trkpt>
      <trkpt lat="47.68229" lon="6.16099">
        <ele>234.5</ele>
        <time>2022-02-07T14:14:09Z</time>
      </trkpt>
      <trkpt lat="47.6823" lon="6.16092">
        <ele>234.9</ele>
        <time>2022-02-07T14:14:11Z</time>
      </trkpt>
      <trkpt lat="47.6823" lon="6.16083">
        <ele>235.4</ele>
        <time>2022-02-07T14:14:14Z</time>
      </trkpt>
      <trkpt lat="47.68231" lon="6.16076">
        <ele>235.4</ele>
        <time>2022-02-07T14:14:16Z</time>
      </trkpt>
      <trkpt lat="47.68232" lon="6.16069">
        <ele>235.3</ele>
        <time>2022-02-07T14:14:18Z</time>
      </trkpt>
      <trkpt lat="47.68231" lon="6.16054">
        <ele>235.4</ele>
        <time>2022-02-07T14:14:23Z</time>
      </trkpt>
      <trkpt lat="47.68229" lon="6.16036">
        <ele>235.7</ele>
        <time>2022-02-07T14:14:28Z</time>
      </trkpt>
      <trkpt lat="47.68228" lon="6.16028">
        <ele>235.8</ele>
        <time>2022-02-07T14:14:30Z</time>
      </trkpt>
      <trkpt lat="47.68226" lon="6.16019">
        <ele>235.9</ele>
        <time>2022-02-07T14:14:32Z</time>
      </trkpt>
      <trkpt lat="47.68224" lon="6.16013">
        <ele>235.9</ele>
        <time>2022-02-07T14:14:34Z</time>
      </trkpt>
      <trkpt lat="47.68222" lon="6.15999">
        <ele>236.1</ele>
        <time>2022-02-07T14:14:38Z</time>
      </trkpt>
      <trkpt lat="47.68221" lon="6.15989">
        <ele>236.2</ele>
        <time>2022-02-07T14:14:40Z</time>
      </trkpt>
      <trkpt lat="47.6822" lon="6.15982">
        <ele>236.4</ele>
        <time>2022-02-07T14:14:43Z</time>
      </trkpt>
      <trkpt lat="47.68218" lon="6.15973">
        <ele>236.7</ele>
        <time>2022-02-07T14:14:46Z</time>
      </trkpt>
      <trkpt lat="47.68215" lon="6.15957">
        <ele>237.6</ele>
        <time>2022-02-07T14:14:47Z</time>
      </trkpt>
      <trkpt lat="47.68213" lon="6.1595">
        <ele>237.9</ele>
        <time>2022-02-07T14:14:55Z</time>
      </trkpt>
      <trkpt lat="47.68212" lon="6.15942">
        <ele>238</ele>
        <time>2022-02-07T14:14:57Z</time>
      </trkpt>
      <trkpt lat="47.68209" lon="6.15925">
        <ele>237.8</ele>
        <time>2022-02-07T14:15:03Z</time>
      </trkpt>
      <trkpt lat="47.68207" lon="6.15918">
        <ele>237.7</ele>
        <time>2022-02-07T14:15:05Z</time>
      </trkpt>
      <trkpt lat="47.68204" lon="6.15904">
        <ele>237.7</ele>
        <time>2022-02-07T14:15:09Z</time>
      </trkpt>
      <trkpt lat="47.68203" lon="6.15897">
        <ele>237.6</ele>
        <time>2022-02-07T14:15:11Z</time>
      </trkpt>
      <trkpt lat="47.68201" lon="6.15889">
        <ele>237.6</ele>
        <time>2022-02-07T14:15:13Z</time>
      </trkpt>
      <trkpt lat="47.68199" lon="6.15883">
        <ele>237.7</ele>
        <time>2022-02-07T14:15:15Z</time>
      </trkpt>
      <trkpt lat="47.68197" lon="6.15877">
        <ele>237.8</ele>
        <time>2022-02-07T14:15:17Z</time>
      </trkpt>
      <trkpt lat="47.68195" lon="6.15869">
        <ele>238</ele>
        <time>2022-02-07T14:15:20Z</time>
      </trkpt>
      <trkpt lat="47.68192" lon="6.15862">
        <ele>238.1</ele>
        <time>2022-02-07T14:15:22Z</time>
      </trkpt>
      <trkpt lat="47.68189" lon="6.15852">
        <ele>238.4</ele>
        <time>2022-02-07T14:15:25Z</time>
      </trkpt>
      <trkpt lat="47.68187" lon="6.15844">
        <ele>238.5</ele>
        <time>2022-02-07T14:15:28Z</time>
      </trkpt>
      <trkpt lat="47.68185" lon="6.15836">
        <ele>238.7</ele>
        <time>2022-02-07T14:15:31Z</time>
      </trkpt>
      <trkpt lat="47.68183" lon="6.1583">
        <ele>238.7</ele>
        <time>2022-02-07T14:15:33Z</time>
      </trkpt>
      <trkpt lat="47.68181" lon="6.15821">
        <ele>238.5</ele>
        <time>2022-02-07T14:15:36Z</time>
      </trkpt>
      <trkpt lat="47.6818" lon="6.15814">
        <ele>238.3</ele>
        <time>2022-02-07T14:15:38Z</time>
      </trkpt>
      <trkpt lat="47.68179" lon="6.15806">
        <ele>238.1</ele>
        <time>2022-02-07T14:15:40Z</time>
      </trkpt>
      <trkpt lat="47.68179" lon="6.15798">
        <ele>238.1</ele>
        <time>2022-02-07T14:15:42Z</time>
      </trkpt>
      <trkpt lat="47.68179" lon="6.1579">
        <ele>238.1</ele>
        <time>2022-02-07T14:15:44Z</time>
      </trkpt>
      <trkpt lat="47.68179" lon="6.15782">
        <ele>238.1</ele>
        <time>2022-02-07T14:15:46Z</time>
      </trkpt>
      <trkpt lat="47.68179" lon="6.15775">
        <ele>238.1</ele>
        <time>2022-02-07T14:15:48Z</time>
      </trkpt>
      <trkpt lat="47.68178" lon="6.15758">
        <ele>237.8</ele>
        <time>2022-02-07T14:15:51Z</time>
      </trkpt>
      <trkpt lat="47.68178" lon="6.1575">
        <ele>237.6</ele>
        <time>2022-02-07T14:15:53Z</time>
      </trkpt>
      <trkpt lat="47.68178" lon="6.15742">
        <ele>237.6</ele>
        <time>2022-02-07T14:15:55Z</time>
      </trkpt>
      <trkpt lat="47.68177" lon="6.15732">
        <ele>237.6</ele>
        <time>2022-02-07T14:15:57Z</time>
      </trkpt>
      <trkpt lat="47.68176" lon="6.15726">
        <ele>237.7</ele>
        <time>2022-02-07T14:15:58Z</time>
      </trkpt>
      <trkpt lat="47.68177" lon="6.15709">
        <ele>237.6</ele>
        <time>2022-02-07T14:16:02Z</time>
      </trkpt>
      <trkpt lat="47.68176" lon="6.15702">
        <ele>237.7</ele>
        <time>2022-02-07T14:16:04Z</time>
      </trkpt>
      <trkpt lat="47.68176" lon="6.15694">
        <ele>237.7</ele>
        <time>2022-02-07T14:16:06Z</time>
      </trkpt>
      <trkpt lat="47.68176" lon="6.15686">
        <ele>237.7</ele>
        <time>2022-02-07T14:16:08Z</time>
      </trkpt>
      <trkpt lat="47.68175" lon="6.15669">
        <ele>237.7</ele>
        <time>2022-02-07T14:16:12Z</time>
      </trkpt>
      <trkpt lat="47.68176" lon="6.15652">
        <ele>237.8</ele>
        <time>2022-02-07T14:16:17Z</time>
      </trkpt>
      <trkpt lat="47.68176" lon="6.15644">
        <ele>237.9</ele>
        <time>2022-02-07T14:16:19Z</time>
      </trkpt>
      <trkpt lat="47.68176" lon="6.15637">
        <ele>238</ele>
        <time>2022-02-07T14:16:21Z</time>
      </trkpt>
      <trkpt lat="47.68175" lon="6.15629">
        <ele>238.2</ele>
        <time>2022-02-07T14:16:23Z</time>
      </trkpt>
      <trkpt lat="47.68176" lon="6.15622">
        <ele>238.4</ele>
        <time>2022-02-07T14:16:25Z</time>
      </trkpt>
      <trkpt lat="47.68176" lon="6.15606">
        <ele>238.8</ele>
        <time>2022-02-07T14:16:30Z</time>
      </trkpt>
      <trkpt lat="47.68176" lon="6.15591">
        <ele>239.4</ele>
        <time>2022-02-07T14:16:35Z</time>
      </trkpt>
      <trkpt lat="47.68179" lon="6.15576">
        <ele>239.8</ele>
        <time>2022-02-07T14:16:40Z</time>
      </trkpt>
      <trkpt lat="47.68178" lon="6.15569">
        <ele>240.1</ele>
        <time>2022-02-07T14:16:43Z</time>
      </trkpt>
      <trkpt lat="47.68178" lon="6.15555">
        <ele>240.6</ele>
        <time>2022-02-07T14:16:43Z</time>
      </trkpt>
      <trkpt lat="47.68177" lon="6.15548">
        <ele>241</ele>
        <time>2022-02-07T14:16:53Z</time>
      </trkpt>
      <trkpt lat="47.68179" lon="6.15532">
        <ele>241.8</ele>
        <time>2022-02-07T14:16:55Z</time>
      </trkpt>
      <trkpt lat="47.6818" lon="6.15524">
        <ele>242.4</ele>
        <time>2022-02-07T14:16:59Z</time>
      </trkpt>
      <trkpt lat="47.6818" lon="6.15515">
        <ele>243.3</ele>
        <time>2022-02-07T14:17:04Z</time>
      </trkpt>
      <trkpt lat="47.6818" lon="6.15507">
        <ele>244.2</ele>
        <time>2022-02-07T14:17:15Z</time>
      </trkpt>
      <trkpt lat="47.6818" lon="6.15492">
        <ele>245.7</ele>
        <time>2022-02-07T14:17:17Z</time>
      </trkpt>
      <trkpt lat="47.68181" lon="6.15484">
        <ele>246.4</ele>
        <time>2022-02-07T14:17:27Z</time>
      </trkpt>
      <trkpt lat="47.68181" lon="6.15469">
        <ele>247.6</ele>
        <time>2022-02-07T14:17:29Z</time>
      </trkpt>
      <trkpt lat="47.68182" lon="6.15462">
        <ele>248</ele>
        <time>2022-02-07T14:17:39Z</time>
      </trkpt>
      <trkpt lat="47.68182" lon="6.15455">
        <ele>248.4</ele>
        <time>2022-02-07T14:17:43Z</time>
      </trkpt>
      <trkpt lat="47.68182" lon="6.1544">
        <ele>249.1</ele>
        <time>2022-02-07T14:17:50Z</time>
      </trkpt>
      <trkpt lat="47.68182" lon="6.15433">
        <ele>249.6</ele>
        <time>2022-02-07T14:17:54Z</time>
      </trkpt>
      <trkpt lat="47.68182" lon="6.15426">
        <ele>250</ele>
        <time>2022-02-07T14:17:57Z</time>
      </trkpt>
      <trkpt lat="47.68183" lon="6.15419">
        <ele>250.3</ele>
        <time>2022-02-07T14:18:01Z</time>
      </trkpt>
      <trkpt lat="47.68186" lon="6.15405">
        <ele>251</ele>
        <time>2022-02-07T14:18:08Z</time>
      </trkpt>
      <trkpt lat="47.68187" lon="6.15392">
        <ele>251.8</ele>
        <time>2022-02-07T14:18:16Z</time>
      </trkpt>
      <trkpt lat="47.68188" lon="6.15384">
        <ele>252.3</ele>
        <time>2022-02-07T14:18:20Z</time>
      </trkpt>
      <trkpt lat="47.68191" lon="6.15377">
        <ele>252.8</ele>
        <time>2022-02-07T14:18:23Z</time>
      </trkpt>
      <trkpt lat="47.68196" lon="6.15362">
        <ele>254</ele>
        <time>2022-02-07T14:18:33Z</time>
      </trkpt>
      <trkpt lat="47.68198" lon="6.15356">
        <ele>254.3</ele>
        <time>2022-02-07T14:18:38Z</time>
      </trkpt>
      <trkpt lat="47.68201" lon="6.1535">
        <ele>254.6</ele>
        <time>2022-02-07T14:18:41Z</time>
      </trkpt>
      <trkpt lat="47.68203" lon="6.15344">
        <ele>254.9</ele>
        <time>2022-02-07T14:18:44Z</time>
      </trkpt>
      <trkpt lat="47.68205" lon="6.15337">
        <ele>255.2</ele>
        <time>2022-02-07T14:18:48Z</time>
      </trkpt>
      <trkpt lat="47.68206" lon="6.15323">
        <ele>255.9</ele>
        <time>2022-02-07T14:18:48Z</time>
      </trkpt>
      <trkpt lat="47.68209" lon="6.15317">
        <ele>256.4</ele>
        <time>2022-02-07T14:18:58Z</time>
      </trkpt>
      <trkpt lat="47.68213" lon="6.15305">
        <ele>257.3</ele>
        <time>2022-02-07T14:19:04Z</time>
      </trkpt>
      <trkpt lat="47.68216" lon="6.15291">
        <ele>257.6</ele>
        <time>2022-02-07T14:19:06Z</time>
      </trkpt>
      <trkpt lat="47.68217" lon="6.15284">
        <ele>257.6</ele>
        <time>2022-02-07T14:19:10Z</time>
      </trkpt>
      <trkpt lat="47.68217" lon="6.15276">
        <ele>257.6</ele>
        <time>2022-02-07T14:19:20Z</time>
      </trkpt>
      <trkpt lat="47.68218" lon="6.1527">
        <ele>257.7</ele>
        <time>2022-02-07T14:19:24Z</time>
      </trkpt>
      <trkpt lat="47.68219" lon="6.15263">
        <ele>257.9</ele>
        <time>2022-02-07T14:19:28Z</time>
      </trkpt>
      <trkpt lat="47.68223" lon="6.15258">
        <ele>258.1</ele>
        <time>2022-02-07T14:19:32Z</time>
      </trkpt>
      <trkpt lat="47.68228" lon="6.15259">
        <ele>258.4</ele>
        <time>2022-02-07T14:19:35Z</time>
      </trkpt>
      <trkpt lat="47.6824" lon="6.15254">
        <ele>259.2</ele>
        <time>2022-02-07T14:19:43Z</time>
      </trkpt>
      <trkpt lat="47.68248" lon="6.15247">
        <ele>260</ele>
        <time>2022-02-07T14:19:50Z</time>
      </trkpt>
      <trkpt lat="47.68253" lon="6.15245">
        <ele>260.4</ele>
        <time>2022-02-07T14:19:55Z</time>
      </trkpt>
      <trkpt lat="47.68258" lon="6.15241">
        <ele>260.8</ele>
        <time>2022-02-07T14:19:59Z</time>
      </trkpt>
      <trkpt lat="47.68263" lon="6.15239">
        <ele>261.2</ele>
        <time>2022-02-07T14:20:03Z</time>
      </trkpt>
      <trkpt lat="47.68268" lon="6.15236">
        <ele>261.5</ele>
        <time>2022-02-07T14:20:07Z</time>
      </trkpt>
      <trkpt lat="47.68273" lon="6.15233">
        <ele>261.7</ele>
        <time>2022-02-07T14:20:10Z</time>
      </trkpt>
      <trkpt lat="47.68278" lon="6.15229">
        <ele>262</ele>
        <time>2022-02-07T14:20:13Z</time>
      </trkpt>
      <trkpt lat="47.68283" lon="6.15226">
        <ele>262.2</ele>
        <time>2022-02-07T14:20:16Z</time>
      </trkpt>
      <trkpt lat="47.68287" lon="6.15223">
        <ele>262.3</ele>
        <time>2022-02-07T14:20:19Z</time>
      </trkpt>
      <trkpt lat="47.68292" lon="6.15219">
        <ele>262.6</ele>
        <time>2022-02-07T14:20:22Z</time>
      </trkpt>
      <trkpt lat="47.68297" lon="6.15216">
        <ele>262.9</ele>
        <time>2022-02-07T14:20:25Z</time>
      </trkpt>
      <trkpt lat="47.68302" lon="6.15213">
        <ele>263.2</ele>
        <time>2022-02-07T14:20:27Z</time>
      </trkpt>
      <trkpt lat="47.68312" lon="6.15208">
        <ele>263.6</ele>
        <time>2022-02-07T14:20:32Z</time>
      </trkpt>
      <trkpt lat="47.68318" lon="6.15204">
        <ele>263.8</ele>
        <time>2022-02-07T14:20:35Z</time>
      </trkpt>
      <trkpt lat="47.68323" lon="6.15201">
        <ele>263.9</ele>
        <time>2022-02-07T14:20:38Z</time>
      </trkpt>
      <trkpt lat="47.68328" lon="6.15198">
        <ele>264</ele>
        <time>2022-02-07T14:20:40Z</time>
      </trkpt>
      <trkpt lat="47.68334" lon="6.15195">
        <ele>264</ele>
        <time>2022-02-07T14:20:43Z</time>
      </trkpt>
      <trkpt lat="47.68339" lon="6.15192">
        <ele>264.1</ele>
        <time>2022-02-07T14:20:45Z</time>
      </trkpt>
      <trkpt lat="47.68349" lon="6.15181">
        <ele>264.5</ele>
        <time>2022-02-07T14:20:51Z</time>
      </trkpt>
      <trkpt lat="47.68352" lon="6.15176">
        <ele>264.7</ele>
        <time>2022-02-07T14:20:53Z</time>
      </trkpt>
      <trkpt lat="47.68355" lon="6.15169">
        <ele>264.9</ele>
        <time>2022-02-07T14:20:55Z</time>
      </trkpt>
      <trkpt lat="47.68357" lon="6.15154">
        <ele>265.5</ele>
        <time>2022-02-07T14:21:00Z</time>
      </trkpt>
      <trkpt lat="47.68358" lon="6.15147">
        <ele>265.7</ele>
        <time>2022-02-07T14:21:02Z</time>
      </trkpt>
      <trkpt lat="47.6836" lon="6.15139">
        <ele>266</ele>
        <time>2022-02-07T14:21:05Z</time>
      </trkpt>
      <trkpt lat="47.68362" lon="6.15123">
        <ele>266</ele>
        <time>2022-02-07T14:21:10Z</time>
      </trkpt>
      <trkpt lat="47.68365" lon="6.15107">
        <ele>266</ele>
        <time>2022-02-07T14:21:15Z</time>
      </trkpt>
      <trkpt lat="47.68366" lon="6.15089">
        <ele>266.6</ele>
        <time>2022-02-07T14:21:21Z</time>
      </trkpt>
      <trkpt lat="47.68367" lon="6.15074">
        <ele>266.8</ele>
        <time>2022-02-07T14:21:26Z</time>
      </trkpt>
      <trkpt lat="47.68367" lon="6.15059">
        <ele>266.8</ele>
        <time>2022-02-07T14:21:31Z</time>
      </trkpt>
      <trkpt lat="47.68367" lon="6.15045">
        <ele>266.8</ele>
        <time>2022-02-07T14:21:36Z</time>
      </trkpt>
      <trkpt lat="47.68367" lon="6.15037">
        <ele>266.8</ele>
        <time>2022-02-07T14:21:38Z</time>
      </trkpt>
      <trkpt lat="47.68368" lon="6.15029">
        <ele>266.7</ele>
        <time>2022-02-07T14:21:41Z</time>
      </trkpt>
      <trkpt lat="47.68369" lon="6.15022">
        <ele>266.7</ele>
        <time>2022-02-07T14:21:44Z</time>
      </trkpt>
      <trkpt lat="47.68369" lon="6.15014">
        <ele>266.6</ele>
        <time>2022-02-07T14:21:47Z</time>
      </trkpt>
      <trkpt lat="47.68369" lon="6.14998">
        <ele>266.5</ele>
        <time>2022-02-07T14:21:52Z</time>
      </trkpt>
      <trkpt lat="47.68369" lon="6.14979">
        <ele>267</ele>
        <time>2022-02-07T14:21:58Z</time>
      </trkpt>
      <trkpt lat="47.68369" lon="6.14972">
        <ele>267.1</ele>
        <time>2022-02-07T14:22:00Z</time>
      </trkpt>
      <trkpt lat="47.68368" lon="6.14955">
        <ele>267.1</ele>
        <time>2022-02-07T14:22:05Z</time>
      </trkpt>
      <trkpt lat="47.68368" lon="6.14947">
        <ele>267</ele>
        <time>2022-02-07T14:22:08Z</time>
      </trkpt>
      <trkpt lat="47.68367" lon="6.14939">
        <ele>267.1</ele>
        <time>2022-02-07T14:22:10Z</time>
      </trkpt>
      <trkpt lat="47.68367" lon="6.1493">
        <ele>267.2</ele>
        <time>2022-02-07T14:22:13Z</time>
      </trkpt>
      <trkpt lat="47.68368" lon="6.14922">
        <ele>267</ele>
        <time>2022-02-07T14:22:15Z</time>
      </trkpt>
      <trkpt lat="47.68369" lon="6.14916">
        <ele>266.9</ele>
        <time>2022-02-07T14:22:17Z</time>
      </trkpt>
      <trkpt lat="47.68369" lon="6.14908">
        <ele>266.9</ele>
        <time>2022-02-07T14:22:20Z</time>
      </trkpt>
      <trkpt lat="47.68369" lon="6.14901">
        <ele>266.9</ele>
        <time>2022-02-07T14:22:22Z</time>
      </trkpt>
      <trkpt lat="47.68369" lon="6.14892">
        <ele>266.9</ele>
        <time>2022-02-07T14:22:24Z</time>
      </trkpt>
      <trkpt lat="47.68368" lon="6.14886">
        <ele>267.1</ele>
        <time>2022-02-07T14:22:27Z</time>
      </trkpt>
      <trkpt lat="47.68368" lon="6.14879">
        <ele>267.3</ele>
        <time>2022-02-07T14:22:30Z</time>
      </trkpt>
      <trkpt lat="47.68368" lon="6.14869">
        <ele>267.7</ele>
        <time>2022-02-07T14:22:33Z</time>
      </trkpt>
      <trkpt lat="47.68368" lon="6.14861">
        <ele>268.1</ele>
        <time>2022-02-07T14:22:36Z</time>
      </trkpt>
      <trkpt lat="47.68368" lon="6.14854">
        <ele>268</ele>
        <time>2022-02-07T14:22:38Z</time>
      </trkpt>
      <trkpt lat="47.68369" lon="6.14844">
        <ele>267.9</ele>
        <time>2022-02-07T14:22:41Z</time>
      </trkpt>
      <trkpt lat="47.68369" lon="6.14837">
        <ele>267.8</ele>
        <time>2022-02-07T14:22:44Z</time>
      </trkpt>
      <trkpt lat="47.6837" lon="6.14828">
        <ele>267.9</ele>
        <time>2022-02-07T14:22:46Z</time>
      </trkpt>
      <trkpt lat="47.68371" lon="6.1482">
        <ele>268.1</ele>
        <time>2022-02-07T14:22:48Z</time>
      </trkpt>
      <trkpt lat="47.68372" lon="6.14802">
        <ele>268.4</ele>
        <time>2022-02-07T14:22:53Z</time>
      </trkpt>
      <trkpt lat="47.68373" lon="6.14795">
        <ele>268.3</ele>
        <time>2022-02-07T14:22:56Z</time>
      </trkpt>
      <trkpt lat="47.68372" lon="6.14789">
        <ele>268.4</ele>
        <time>2022-02-07T14:22:58Z</time>
      </trkpt>
      <trkpt lat="47.68372" lon="6.14781">
        <ele>268.4</ele>
        <time>2022-02-07T14:23:00Z</time>
      </trkpt>
      <trkpt lat="47.68372" lon="6.14773">
        <ele>268.5</ele>
        <time>2022-02-07T14:23:03Z</time>
      </trkpt>
      <trkpt lat="47.68372" lon="6.14766">
        <ele>268.7</ele>
        <time>2022-02-07T14:23:05Z</time>
      </trkpt>
      <trkpt lat="47.68368" lon="6.14742">
        <ele>269.2</ele>
        <time>2022-02-07T14:23:12Z</time>
      </trkpt>
      <trkpt lat="47.68365" lon="6.14727">
        <ele>269.6</ele>
        <time>2022-02-07T14:23:17Z</time>
      </trkpt>
      <trkpt lat="47.6836" lon="6.14713">
        <ele>269.7</ele>
        <time>2022-02-07T14:23:22Z</time>
      </trkpt>
      <trkpt lat="47.68358" lon="6.14706">
        <ele>269.6</ele>
        <time>2022-02-07T14:23:24Z</time>
      </trkpt>
      <trkpt lat="47.68356" lon="6.14699">
        <ele>269.5</ele>
        <time>2022-02-07T14:23:27Z</time>
      </trkpt>
      <trkpt lat="47.68354" lon="6.14692">
        <ele>269.5</ele>
        <time>2022-02-07T14:23:29Z</time>
      </trkpt>
      <trkpt lat="47.68352" lon="6.14686">
        <ele>269.7</ele>
        <time>2022-02-07T14:23:31Z</time>
      </trkpt>
      <trkpt lat="47.6835" lon="6.1468">
        <ele>269.8</ele>
        <time>2022-02-07T14:23:33Z</time>
      </trkpt>
      <trkpt lat="47.68347" lon="6.14672">
        <ele>270</ele>
        <time>2022-02-07T14:23:36Z</time>
      </trkpt>
      <trkpt lat="47.68344" lon="6.14664">
        <ele>270.3</ele>
        <time>2022-02-07T14:23:39Z</time>
      </trkpt>
      <trkpt lat="47.68341" lon="6.14657">
        <ele>270.4</ele>
        <time>2022-02-07T14:23:41Z</time>
      </trkpt>
      <trkpt lat="47.68338" lon="6.14652">
        <ele>270.6</ele>
        <time>2022-02-07T14:23:43Z</time>
      </trkpt>
      <trkpt lat="47.68335" lon="6.14645">
        <ele>270.9</ele>
        <time>2022-02-07T14:23:46Z</time>
      </trkpt>
      <trkpt lat="47.68332" lon="6.14639">
        <ele>271</ele>
        <time>2022-02-07T14:23:48Z</time>
      </trkpt>
      <trkpt lat="47.68329" lon="6.14633">
        <ele>271.2</ele>
        <time>2022-02-07T14:23:51Z</time>
      </trkpt>
      <trkpt lat="47.68325" lon="6.14626">
        <ele>271.3</ele>
        <time>2022-02-07T14:23:54Z</time>
      </trkpt>
      <trkpt lat="47.68322" lon="6.1462">
        <ele>271.4</ele>
        <time>2022-02-07T14:23:56Z</time>
      </trkpt>
      <trkpt lat="47.68318" lon="6.14614">
        <ele>271.5</ele>
        <time>2022-02-07T14:23:58Z</time>
      </trkpt>
      <trkpt lat="47.68315" lon="6.14607">
        <ele>271.7</ele>
        <time>2022-02-07T14:24:01Z</time>
      </trkpt>
      <trkpt lat="47.6831" lon="6.14598">
        <ele>271.8</ele>
        <time>2022-02-07T14:24:04Z</time>
      </trkpt>
      <trkpt lat="47.68307" lon="6.14592">
        <ele>272</ele>
        <time>2022-02-07T14:24:07Z</time>
      </trkpt>
      <trkpt lat="47.68299" lon="6.14579">
        <ele>272.2</ele>
        <time>2022-02-07T14:24:12Z</time>
      </trkpt>
      <trkpt lat="47.68293" lon="6.14567">
        <ele>272.4</ele>
        <time>2022-02-07T14:24:17Z</time>
      </trkpt>
      <trkpt lat="47.6829" lon="6.14561">
        <ele>272.6</ele>
        <time>2022-02-07T14:24:19Z</time>
      </trkpt>
      <trkpt lat="47.68287" lon="6.14554">
        <ele>272.7</ele>
        <time>2022-02-07T14:24:21Z</time>
      </trkpt>
      <trkpt lat="47.68283" lon="6.14547">
        <ele>272.8</ele>
        <time>2022-02-07T14:24:24Z</time>
      </trkpt>
      <trkpt lat="47.68279" lon="6.14541">
        <ele>272.9</ele>
        <time>2022-02-07T14:24:26Z</time>
      </trkpt>
      <trkpt lat="47.68277" lon="6.14535">
        <ele>273</ele>
        <time>2022-02-07T14:24:29Z</time>
      </trkpt>
      <trkpt lat="47.68273" lon="6.14527">
        <ele>273</ele>
        <time>2022-02-07T14:24:31Z</time>
      </trkpt>
      <trkpt lat="47.68266" lon="6.14513">
        <ele>273.3</ele>
        <time>2022-02-07T14:24:37Z</time>
      </trkpt>
      <trkpt lat="47.68263" lon="6.14508">
        <ele>273.3</ele>
        <time>2022-02-07T14:24:39Z</time>
      </trkpt>
      <trkpt lat="47.6826" lon="6.145">
        <ele>273.4</ele>
        <time>2022-02-07T14:24:42Z</time>
      </trkpt>
      <trkpt lat="47.68257" lon="6.14493">
        <ele>273.4</ele>
        <time>2022-02-07T14:24:44Z</time>
      </trkpt>
      <trkpt lat="47.68253" lon="6.14487">
        <ele>273.5</ele>
        <time>2022-02-07T14:24:46Z</time>
      </trkpt>
      <trkpt lat="47.68251" lon="6.14481">
        <ele>273.7</ele>
        <time>2022-02-07T14:24:48Z</time>
      </trkpt>
      <trkpt lat="47.68247" lon="6.14474">
        <ele>273.8</ele>
        <time>2022-02-07T14:24:51Z</time>
      </trkpt>
      <trkpt lat="47.68244" lon="6.14467">
        <ele>273.8</ele>
        <time>2022-02-07T14:24:53Z</time>
      </trkpt>
      <trkpt lat="47.6824" lon="6.14459">
        <ele>273.8</ele>
        <time>2022-02-07T14:24:55Z</time>
      </trkpt>
      <trkpt lat="47.68234" lon="6.14445">
        <ele>274</ele>
        <time>2022-02-07T14:24:59Z</time>
      </trkpt>
      <trkpt lat="47.68231" lon="6.14438">
        <ele>274.1</ele>
        <time>2022-02-07T14:25:01Z</time>
      </trkpt>
      <trkpt lat="47.68227" lon="6.14432">
        <ele>274.1</ele>
        <time>2022-02-07T14:25:03Z</time>
      </trkpt>
      <trkpt lat="47.68222" lon="6.1442">
        <ele>274</ele>
        <time>2022-02-07T14:25:06Z</time>
      </trkpt>
      <trkpt lat="47.68219" lon="6.14414">
        <ele>274.1</ele>
        <time>2022-02-07T14:25:08Z</time>
      </trkpt>
      <trkpt lat="47.68216" lon="6.14407">
        <ele>274.3</ele>
        <time>2022-02-07T14:25:10Z</time>
      </trkpt>
      <trkpt lat="47.68209" lon="6.14394">
        <ele>274.4</ele>
        <time>2022-02-07T14:25:13Z</time>
      </trkpt>
      <trkpt lat="47.68206" lon="6.14388">
        <ele>274.4</ele>
        <time>2022-02-07T14:25:15Z</time>
      </trkpt>
      <trkpt lat="47.68203" lon="6.14378">
        <ele>274.6</ele>
        <time>2022-02-07T14:25:17Z</time>
      </trkpt>
      <trkpt lat="47.68199" lon="6.14372">
        <ele>274.7</ele>
        <time>2022-02-07T14:25:19Z</time>
      </trkpt>
      <trkpt lat="47.68194" lon="6.14362">
        <ele>275</ele>
        <time>2022-02-07T14:25:21Z</time>
      </trkpt>
      <trkpt lat="47.68186" lon="6.14346">
        <ele>274.9</ele>
        <time>2022-02-07T14:25:25Z</time>
      </trkpt>
      <trkpt lat="47.68183" lon="6.14339">
        <ele>274.9</ele>
        <time>2022-02-07T14:25:27Z</time>
      </trkpt>
      <trkpt lat="47.68179" lon="6.14329">
        <ele>275.1</ele>
        <time>2022-02-07T14:25:29Z</time>
      </trkpt>
      <trkpt lat="47.68173" lon="6.14318">
        <ele>275.1</ele>
        <time>2022-02-07T14:25:32Z</time>
      </trkpt>
      <trkpt lat="47.68165" lon="6.14303">
        <ele>275.1</ele>
        <time>2022-02-07T14:25:35Z</time>
      </trkpt>
      <trkpt lat="47.68163" lon="6.14296">
        <ele>275.2</ele>
        <time>2022-02-07T14:25:37Z</time>
      </trkpt>
      <trkpt lat="47.68158" lon="6.14289">
        <ele>275.3</ele>
        <time>2022-02-07T14:25:39Z</time>
      </trkpt>
      <trkpt lat="47.68153" lon="6.1428">
        <ele>275.5</ele>
        <time>2022-02-07T14:25:41Z</time>
      </trkpt>
      <trkpt lat="47.68149" lon="6.14272">
        <ele>275.4</ele>
        <time>2022-02-07T14:25:43Z</time>
      </trkpt>
      <trkpt lat="47.68142" lon="6.14256">
        <ele>275.1</ele>
        <time>2022-02-07T14:25:47Z</time>
      </trkpt>
      <trkpt lat="47.68138" lon="6.14249">
        <ele>275</ele>
        <time>2022-02-07T14:25:49Z</time>
      </trkpt>
      <trkpt lat="47.68135" lon="6.1424">
        <ele>275.2</ele>
        <time>2022-02-07T14:25:51Z</time>
      </trkpt>
      <trkpt lat="47.68134" lon="6.1423">
        <ele>275.5</ele>
        <time>2022-02-07T14:25:53Z</time>
      </trkpt>
      <trkpt lat="47.68137" lon="6.14217">
        <ele>275.9</ele>
        <time>2022-02-07T14:25:56Z</time>
      </trkpt>
      <trkpt lat="47.68146" lon="6.14209">
        <ele>276.3</ele>
        <time>2022-02-07T14:26:00Z</time>
      </trkpt>
      <trkpt lat="47.6815" lon="6.14203">
        <ele>276.4</ele>
        <time>2022-02-07T14:26:02Z</time>
      </trkpt>
      <trkpt lat="47.68153" lon="6.14198">
        <ele>276.5</ele>
        <time>2022-02-07T14:26:05Z</time>
      </trkpt>
      <trkpt lat="47.68157" lon="6.14192">
        <ele>276.7</ele>
        <time>2022-02-07T14:26:07Z</time>
      </trkpt>
      <trkpt lat="47.68161" lon="6.14185">
        <ele>277.1</ele>
        <time>2022-02-07T14:26:09Z</time>
      </trkpt>
      <trkpt lat="47.68167" lon="6.14179">
        <ele>277.5</ele>
        <time>2022-02-07T14:26:11Z</time>
      </trkpt>
      <trkpt lat="47.68176" lon="6.1417">
        <ele>278.2</ele>
        <time>2022-02-07T14:26:15Z</time>
      </trkpt>
      <trkpt lat="47.6818" lon="6.14166">
        <ele>278.5</ele>
        <time>2022-02-07T14:26:17Z</time>
      </trkpt>
      <trkpt lat="47.68191" lon="6.14149">
        <ele>279.5</ele>
        <time>2022-02-07T14:26:23Z</time>
      </trkpt>
      <trkpt lat="47.68195" lon="6.14143">
        <ele>279.9</ele>
        <time>2022-02-07T14:26:26Z</time>
      </trkpt>
      <trkpt lat="47.68199" lon="6.14138">
        <ele>280.2</ele>
        <time>2022-02-07T14:26:28Z</time>
      </trkpt>
      <trkpt lat="47.68213" lon="6.14119">
        <ele>280.7</ele>
        <time>2022-02-07T14:26:31Z</time>
      </trkpt>
      <trkpt lat="47.68217" lon="6.14112">
        <ele>280.8</ele>
        <time>2022-02-07T14:26:39Z</time>
      </trkpt>
      <trkpt lat="47.68228" lon="6.14094">
        <ele>281.2</ele>
        <time>2022-02-07T14:26:42Z</time>
      </trkpt>
      <trkpt lat="47.68231" lon="6.14088">
        <ele>281.3</ele>
        <time>2022-02-07T14:26:50Z</time>
      </trkpt>
      <trkpt lat="47.68242" lon="6.14068">
        <ele>281.9</ele>
        <time>2022-02-07T14:26:53Z</time>
      </trkpt>
      <trkpt lat="47.68245" lon="6.14061">
        <ele>282</ele>
        <time>2022-02-07T14:27:01Z</time>
      </trkpt>
      <trkpt lat="47.68249" lon="6.14054">
        <ele>282</ele>
        <time>2022-02-07T14:27:04Z</time>
      </trkpt>
      <trkpt lat="47.68259" lon="6.14033">
        <ele>282.3</ele>
        <time>2022-02-07T14:27:07Z</time>
      </trkpt>
      <trkpt lat="47.68262" lon="6.14027">
        <ele>282.5</ele>
        <time>2022-02-07T14:27:15Z</time>
      </trkpt>
      <trkpt lat="47.6827" lon="6.14012">
        <ele>283.3</ele>
        <time>2022-02-07T14:27:16Z</time>
      </trkpt>
      <trkpt lat="47.68274" lon="6.14005">
        <ele>283.7</ele>
        <time>2022-02-07T14:27:19Z</time>
      </trkpt>
      <trkpt lat="47.68277" lon="6.13999">
        <ele>284</ele>
        <time>2022-02-07T14:27:22Z</time>
      </trkpt>
      <trkpt lat="47.68281" lon="6.13993">
        <ele>284.1</ele>
        <time>2022-02-07T14:27:30Z</time>
      </trkpt>
      <trkpt lat="47.68291" lon="6.13974">
        <ele>284.5</ele>
        <time>2022-02-07T14:27:38Z</time>
      </trkpt>
      <trkpt lat="47.68299" lon="6.13963">
        <ele>284.8</ele>
        <time>2022-02-07T14:27:44Z</time>
      </trkpt>
      <trkpt lat="47.68302" lon="6.13957">
        <ele>284.9</ele>
        <time>2022-02-07T14:27:46Z</time>
      </trkpt>
      <trkpt lat="47.68309" lon="6.13946">
        <ele>285.1</ele>
        <time>2022-02-07T14:27:52Z</time>
      </trkpt>
      <trkpt lat="47.68313" lon="6.13941">
        <ele>285.3</ele>
        <time>2022-02-07T14:27:54Z</time>
      </trkpt>
      <trkpt lat="47.68317" lon="6.13936">
        <ele>285.4</ele>
        <time>2022-02-07T14:27:57Z</time>
      </trkpt>
      <trkpt lat="47.68324" lon="6.13926">
        <ele>285.7</ele>
        <time>2022-02-07T14:28:02Z</time>
      </trkpt>
      <trkpt lat="47.68328" lon="6.13919">
        <ele>285.8</ele>
        <time>2022-02-07T14:28:05Z</time>
      </trkpt>
      <trkpt lat="47.68331" lon="6.13914">
        <ele>285.9</ele>
        <time>2022-02-07T14:28:07Z</time>
      </trkpt>
      <trkpt lat="47.68336" lon="6.13909">
        <ele>286.1</ele>
        <time>2022-02-07T14:28:10Z</time>
      </trkpt>
      <trkpt lat="47.68339" lon="6.13904">
        <ele>286.2</ele>
        <time>2022-02-07T14:28:12Z</time>
      </trkpt>
      <trkpt lat="47.68343" lon="6.13899">
        <ele>286.4</ele>
        <time>2022-02-07T14:28:15Z</time>
      </trkpt>
      <trkpt lat="47.68347" lon="6.13894">
        <ele>286.5</ele>
        <time>2022-02-07T14:28:17Z</time>
      </trkpt>
      <trkpt lat="47.68355" lon="6.13882">
        <ele>286.8</ele>
        <time>2022-02-07T14:28:18Z</time>
      </trkpt>
      <trkpt lat="47.68359" lon="6.13875">
        <ele>286.9</ele>
        <time>2022-02-07T14:28:26Z</time>
      </trkpt>
      <trkpt lat="47.68363" lon="6.13869">
        <ele>287.1</ele>
        <time>2022-02-07T14:28:29Z</time>
      </trkpt>
      <trkpt lat="47.68371" lon="6.13853">
        <ele>287.4</ele>
        <time>2022-02-07T14:28:34Z</time>
      </trkpt>
      <trkpt lat="47.68375" lon="6.13845">
        <ele>287.5</ele>
        <time>2022-02-07T14:28:36Z</time>
      </trkpt>
      <trkpt lat="47.68379" lon="6.13837">
        <ele>287.6</ele>
        <time>2022-02-07T14:28:38Z</time>
      </trkpt>
      <trkpt lat="47.68382" lon="6.13829">
        <ele>287.6</ele>
        <time>2022-02-07T14:28:40Z</time>
      </trkpt>
      <trkpt lat="47.68385" lon="6.1382">
        <ele>287.4</ele>
        <time>2022-02-07T14:28:42Z</time>
      </trkpt>
      <trkpt lat="47.68387" lon="6.13814">
        <ele>287.3</ele>
        <time>2022-02-07T14:28:44Z</time>
      </trkpt>
      <trkpt lat="47.68389" lon="6.13807">
        <ele>287</ele>
        <time>2022-02-07T14:28:46Z</time>
      </trkpt>
      <trkpt lat="47.68391" lon="6.13799">
        <ele>286.9</ele>
        <time>2022-02-07T14:28:48Z</time>
      </trkpt>
      <trkpt lat="47.68392" lon="6.13791">
        <ele>286.6</ele>
        <time>2022-02-07T14:28:50Z</time>
      </trkpt>
      <trkpt lat="47.68388" lon="6.13776">
        <ele>285.9</ele>
        <time>2022-02-07T14:28:53Z</time>
      </trkpt>
      <trkpt lat="47.68383" lon="6.13769">
        <ele>285.5</ele>
        <time>2022-02-07T14:28:55Z</time>
      </trkpt>
      <trkpt lat="47.68377" lon="6.13764">
        <ele>285.1</ele>
        <time>2022-02-07T14:28:57Z</time>
      </trkpt>
      <trkpt lat="47.68371" lon="6.13758">
        <ele>284.6</ele>
        <time>2022-02-07T14:28:58Z</time>
      </trkpt>
      <trkpt lat="47.68359" lon="6.13747">
        <ele>283.8</ele>
        <time>2022-02-07T14:29:01Z</time>
      </trkpt>
      <trkpt lat="47.68315" lon="6.13708">
        <ele>281.3</ele>
        <time>2022-02-07T14:29:02Z</time>
      </trkpt>
      <trkpt lat="47.68309" lon="6.13702">
        <ele>281.1</ele>
        <time>2022-02-07T14:29:03Z</time>
      </trkpt>
      <trkpt lat="47.68304" lon="6.13696">
        <ele>280.9</ele>
        <time>2022-02-07T14:29:04Z</time>
      </trkpt>
      <trkpt lat="47.68298" lon="6.1369">
        <ele>280.5</ele>
        <time>2022-02-07T14:29:05Z</time>
      </trkpt>
      <trkpt lat="47.68293" lon="6.13685">
        <ele>280.2</ele>
        <time>2022-02-07T14:29:06Z</time>
      </trkpt>
      <trkpt lat="47.68287" lon="6.13679">
        <ele>280</ele>
        <time>2022-02-07T14:29:07Z</time>
      </trkpt>
      <trkpt lat="47.68282" lon="6.13674">
        <ele>279.9</ele>
        <time>2022-02-07T14:29:08Z</time>
      </trkpt>
      <trkpt lat="47.68276" lon="6.13668">
        <ele>279.8</ele>
        <time>2022-02-07T14:29:09Z</time>
      </trkpt>
      <trkpt lat="47.68271" lon="6.13662">
        <ele>279.4</ele>
        <time>2022-02-07T14:29:10Z</time>
      </trkpt>
      <trkpt lat="47.68265" lon="6.13657">
        <ele>278.7</ele>
        <time>2022-02-07T14:29:11Z</time>
      </trkpt>
      <trkpt lat="47.6826" lon="6.13651">
        <ele>278.1</ele>
        <time>2022-02-07T14:29:12Z</time>
      </trkpt>
      <trkpt lat="47.68254" lon="6.13646">
        <ele>277.5</ele>
        <time>2022-02-07T14:29:13Z</time>
      </trkpt>
      <trkpt lat="47.68248" lon="6.1364">
        <ele>276.9</ele>
        <time>2022-02-07T14:29:14Z</time>
      </trkpt>
      <trkpt lat="47.68242" lon="6.13634">
        <ele>276.4</ele>
        <time>2022-02-07T14:29:15Z</time>
      </trkpt>
      <trkpt lat="47.68236" lon="6.13627">
        <ele>275.7</ele>
        <time>2022-02-07T14:29:16Z</time>
      </trkpt>
      <trkpt lat="47.68229" lon="6.1362">
        <ele>275</ele>
        <time>2022-02-07T14:29:17Z</time>
      </trkpt>
      <trkpt lat="47.68223" lon="6.13613">
        <ele>274.1</ele>
        <time>2022-02-07T14:29:18Z</time>
      </trkpt>
      <trkpt lat="47.68215" lon="6.13605">
        <ele>273.3</ele>
        <time>2022-02-07T14:29:19Z</time>
      </trkpt>
      <trkpt lat="47.68208" lon="6.13597">
        <ele>272.5</ele>
        <time>2022-02-07T14:29:20Z</time>
      </trkpt>
      <trkpt lat="47.68201" lon="6.1359">
        <ele>271.7</ele>
        <time>2022-02-07T14:29:21Z</time>
      </trkpt>
      <trkpt lat="47.68193" lon="6.13583">
        <ele>270.8</ele>
        <time>2022-02-07T14:29:22Z</time>
      </trkpt>
      <trkpt lat="47.68185" lon="6.13575">
        <ele>269.8</ele>
        <time>2022-02-07T14:29:23Z</time>
      </trkpt>
      <trkpt lat="47.68178" lon="6.13568">
        <ele>269</ele>
        <time>2022-02-07T14:29:24Z</time>
      </trkpt>
      <trkpt lat="47.6817" lon="6.1356">
        <ele>268.3</ele>
        <time>2022-02-07T14:29:25Z</time>
      </trkpt>
      <trkpt lat="47.68162" lon="6.13551">
        <ele>267.4</ele>
        <time>2022-02-07T14:29:26Z</time>
      </trkpt>
      <trkpt lat="47.68154" lon="6.13543">
        <ele>266.4</ele>
        <time>2022-02-07T14:29:27Z</time>
      </trkpt>
      <trkpt lat="47.68146" lon="6.13535">
        <ele>265.6</ele>
        <time>2022-02-07T14:29:28Z</time>
      </trkpt>
      <trkpt lat="47.68138" lon="6.13527">
        <ele>264.9</ele>
        <time>2022-02-07T14:29:29Z</time>
      </trkpt>
      <trkpt lat="47.6813" lon="6.13519">
        <ele>263.8</ele>
        <time>2022-02-07T14:29:30Z</time>
      </trkpt>
      <trkpt lat="47.68122" lon="6.13511">
        <ele>262.9</ele>
        <time>2022-02-07T14:29:31Z</time>
      </trkpt>
      <trkpt lat="47.68114" lon="6.13503">
        <ele>262.2</ele>
        <time>2022-02-07T14:29:32Z</time>
      </trkpt>
      <trkpt lat="47.68106" lon="6.13495">
        <ele>261.5</ele>
        <time>2022-02-07T14:29:33Z</time>
      </trkpt>
      <trkpt lat="47.68099" lon="6.13488">
        <ele>260.7</ele>
        <time>2022-02-07T14:29:34Z</time>
      </trkpt>
      <trkpt lat="47.68092" lon="6.13482">
        <ele>260</ele>
        <time>2022-02-07T14:29:35Z</time>
      </trkpt>
      <trkpt lat="47.68086" lon="6.13476">
        <ele>259.3</ele>
        <time>2022-02-07T14:29:36Z</time>
      </trkpt>
      <trkpt lat="47.68081" lon="6.1347">
        <ele>259.1</ele>
        <time>2022-02-07T14:29:37Z</time>
      </trkpt>
      <trkpt lat="47.68076" lon="6.13463">
        <ele>259.3</ele>
        <time>2022-02-07T14:29:38Z</time>
      </trkpt>
      <trkpt lat="47.68072" lon="6.13457">
        <ele>259.4</ele>
        <time>2022-02-07T14:29:39Z</time>
      </trkpt>
      <trkpt lat="47.68068" lon="6.13452">
        <ele>259.5</ele>
        <time>2022-02-07T14:29:40Z</time>
      </trkpt>
      <trkpt lat="47.68064" lon="6.13448">
        <ele>259.4</ele>
        <time>2022-02-07T14:29:41Z</time>
      </trkpt>
      <trkpt lat="47.6806" lon="6.13444">
        <ele>259.3</ele>
        <time>2022-02-07T14:29:42Z</time>
      </trkpt>
      <trkpt lat="47.68056" lon="6.13441">
        <ele>259.3</ele>
        <time>2022-02-07T14:29:43Z</time>
      </trkpt>
      <trkpt lat="47.6805" lon="6.13434">
        <ele>259.5</ele>
        <time>2022-02-07T14:29:45Z</time>
      </trkpt>
      <trkpt lat="47.68044" lon="6.13429">
        <ele>259.5</ele>
        <time>2022-02-07T14:29:47Z</time>
      </trkpt>
      <trkpt lat="47.68037" lon="6.13422">
        <ele>259.4</ele>
        <time>2022-02-07T14:29:49Z</time>
      </trkpt>
      <trkpt lat="47.68029" lon="6.13416">
        <ele>259.1</ele>
        <time>2022-02-07T14:29:50Z</time>
      </trkpt>
      <trkpt lat="47.68026" lon="6.13421">
        <ele>258.8</ele>
        <time>2022-02-07T14:29:57Z</time>
      </trkpt>
      <trkpt lat="47.68021" lon="6.13413">
        <ele>258.9</ele>
        <time>2022-02-07T14:29:59Z</time>
      </trkpt>
      <trkpt lat="47.68007" lon="6.13396">
        <ele>259</ele>
        <time>2022-02-07T14:30:04Z</time>
      </trkpt>
      <trkpt lat="47.67996" lon="6.13382">
        <ele>259.3</ele>
        <time>2022-02-07T14:30:09Z</time>
      </trkpt>
      <trkpt lat="47.67991" lon="6.13377">
        <ele>259.6</ele>
        <time>2022-02-07T14:30:12Z</time>
      </trkpt>
      <trkpt lat="47.67987" lon="6.13372">
        <ele>259.9</ele>
        <time>2022-02-07T14:30:14Z</time>
      </trkpt>
      <trkpt lat="47.67983" lon="6.13368">
        <ele>260.2</ele>
        <time>2022-02-07T14:30:16Z</time>
      </trkpt>
      <trkpt lat="47.6798" lon="6.13364">
        <ele>260.6</ele>
        <time>2022-02-07T14:30:18Z</time>
      </trkpt>
      <trkpt lat="47.6797" lon="6.13352">
        <ele>261.2</ele>
        <time>2022-02-07T14:30:24Z</time>
      </trkpt>
      <trkpt lat="47.67966" lon="6.13348">
        <ele>261.6</ele>
        <time>2022-02-07T14:30:26Z</time>
      </trkpt>
      <trkpt lat="47.67956" lon="6.13332">
        <ele>262.8</ele>
        <time>2022-02-07T14:30:32Z</time>
      </trkpt>
      <trkpt lat="47.67952" lon="6.13328">
        <ele>263.3</ele>
        <time>2022-02-07T14:30:35Z</time>
      </trkpt>
      <trkpt lat="47.67945" lon="6.13317">
        <ele>264</ele>
        <time>2022-02-07T14:30:43Z</time>
      </trkpt>
      <trkpt lat="47.67941" lon="6.13312">
        <ele>264</ele>
        <time>2022-02-07T14:30:47Z</time>
      </trkpt>
      <trkpt lat="47.67937" lon="6.13307">
        <ele>264</ele>
        <time>2022-02-07T14:30:50Z</time>
      </trkpt>
      <trkpt lat="47.67928" lon="6.13296">
        <ele>264.4</ele>
        <time>2022-02-07T14:30:55Z</time>
      </trkpt>
      <trkpt lat="47.67919" lon="6.13285">
        <ele>264.7</ele>
        <time>2022-02-07T14:31:00Z</time>
      </trkpt>
      <trkpt lat="47.67915" lon="6.13281">
        <ele>264.8</ele>
        <time>2022-02-07T14:31:02Z</time>
      </trkpt>
      <trkpt lat="47.6791" lon="6.13277">
        <ele>264.8</ele>
        <time>2022-02-07T14:31:04Z</time>
      </trkpt>
      <trkpt lat="47.67907" lon="6.13272">
        <ele>264.7</ele>
        <time>2022-02-07T14:31:06Z</time>
      </trkpt>
      <trkpt lat="47.679" lon="6.13264">
        <ele>264.4</ele>
        <time>2022-02-07T14:31:10Z</time>
      </trkpt>
      <trkpt lat="47.67896" lon="6.1326">
        <ele>264.3</ele>
        <time>2022-02-07T14:31:12Z</time>
      </trkpt>
      <trkpt lat="47.67892" lon="6.13256">
        <ele>264.1</ele>
        <time>2022-02-07T14:31:14Z</time>
      </trkpt>
      <trkpt lat="47.67888" lon="6.13253">
        <ele>264</ele>
        <time>2022-02-07T14:31:15Z</time>
      </trkpt>
      <trkpt lat="47.67883" lon="6.13246">
        <ele>264</ele>
        <time>2022-02-07T14:31:17Z</time>
      </trkpt>
      <trkpt lat="47.67879" lon="6.1324">
        <ele>263.9</ele>
        <time>2022-02-07T14:31:19Z</time>
      </trkpt>
      <trkpt lat="47.67876" lon="6.13235">
        <ele>263.7</ele>
        <time>2022-02-07T14:31:20Z</time>
      </trkpt>
      <trkpt lat="47.67871" lon="6.13227">
        <ele>263.5</ele>
        <time>2022-02-07T14:31:22Z</time>
      </trkpt>
      <trkpt lat="47.67858" lon="6.13205">
        <ele>262.9</ele>
        <time>2022-02-07T14:31:27Z</time>
      </trkpt>
      <trkpt lat="47.67855" lon="6.132">
        <ele>262.8</ele>
        <time>2022-02-07T14:31:28Z</time>
      </trkpt>
      <trkpt lat="47.6785" lon="6.13192">
        <ele>262.6</ele>
        <time>2022-02-07T14:31:30Z</time>
      </trkpt>
      <trkpt lat="47.67847" lon="6.13186">
        <ele>262.3</ele>
        <time>2022-02-07T14:31:31Z</time>
      </trkpt>
      <trkpt lat="47.67844" lon="6.13179">
        <ele>262</ele>
        <time>2022-02-07T14:31:32Z</time>
      </trkpt>
      <trkpt lat="47.67838" lon="6.13167">
        <ele>261.3</ele>
        <time>2022-02-07T14:31:34Z</time>
      </trkpt>
      <trkpt lat="47.67832" lon="6.13155">
        <ele>260.6</ele>
        <time>2022-02-07T14:31:36Z</time>
      </trkpt>
      <trkpt lat="47.6781" lon="6.13112">
        <ele>259.3</ele>
        <time>2022-02-07T14:31:37Z</time>
      </trkpt>
      <trkpt lat="47.67807" lon="6.13106">
        <ele>259.1</ele>
        <time>2022-02-07T14:31:38Z</time>
      </trkpt>
      <trkpt lat="47.67805" lon="6.131">
        <ele>259</ele>
        <time>2022-02-07T14:31:39Z</time>
      </trkpt>
      <trkpt lat="47.678" lon="6.1309">
        <ele>258.8</ele>
        <time>2022-02-07T14:31:41Z</time>
      </trkpt>
      <trkpt lat="47.67797" lon="6.13084">
        <ele>258.7</ele>
        <time>2022-02-07T14:31:48Z</time>
      </trkpt>
      <trkpt lat="47.67792" lon="6.13074">
        <ele>258.4</ele>
        <time>2022-02-07T14:31:50Z</time>
      </trkpt>
      <trkpt lat="47.67785" lon="6.13059">
        <ele>257.6</ele>
        <time>2022-02-07T14:31:53Z</time>
      </trkpt>
      <trkpt lat="47.67782" lon="6.1305">
        <ele>257.5</ele>
        <time>2022-02-07T14:31:54Z</time>
      </trkpt>
      <trkpt lat="47.67776" lon="6.13037">
        <ele>257.6</ele>
        <time>2022-02-07T14:31:57Z</time>
      </trkpt>
      <trkpt lat="47.67772" lon="6.13028">
        <ele>257.8</ele>
        <time>2022-02-07T14:31:58Z</time>
      </trkpt>
      <trkpt lat="47.67764" lon="6.13014">
        <ele>257.5</ele>
        <time>2022-02-07T14:32:01Z</time>
      </trkpt>
      <trkpt lat="47.67761" lon="6.13007">
        <ele>257.4</ele>
        <time>2022-02-07T14:32:02Z</time>
      </trkpt>
      <trkpt lat="47.67737" lon="6.12977">
        <ele>256.1</ele>
        <time>2022-02-07T14:32:02Z</time>
      </trkpt>
      <trkpt lat="47.67733" lon="6.12973">
        <ele>256</ele>
        <time>2022-02-07T14:32:03Z</time>
      </trkpt>
      <trkpt lat="47.67729" lon="6.12968">
        <ele>255.9</ele>
        <time>2022-02-07T14:32:04Z</time>
      </trkpt>
      <trkpt lat="47.67725" lon="6.12964">
        <ele>255.7</ele>
        <time>2022-02-07T14:32:05Z</time>
      </trkpt>
      <trkpt lat="47.67721" lon="6.12959">
        <ele>255.5</ele>
        <time>2022-02-07T14:32:06Z</time>
      </trkpt>
      <trkpt lat="47.67717" lon="6.12954">
        <ele>255.2</ele>
        <time>2022-02-07T14:32:07Z</time>
      </trkpt>
      <trkpt lat="47.67712" lon="6.12949">
        <ele>254.8</ele>
        <time>2022-02-07T14:32:08Z</time>
      </trkpt>
      <trkpt lat="47.67708" lon="6.12944">
        <ele>254.5</ele>
        <time>2022-02-07T14:32:09Z</time>
      </trkpt>
      <trkpt lat="47.67704" lon="6.12939">
        <ele>254.4</ele>
        <time>2022-02-07T14:32:10Z</time>
      </trkpt>
      <trkpt lat="47.677" lon="6.12934">
        <ele>254.3</ele>
        <time>2022-02-07T14:32:11Z</time>
      </trkpt>
      <trkpt lat="47.67696" lon="6.12929">
        <ele>254.1</ele>
        <time>2022-02-07T14:32:12Z</time>
      </trkpt>
      <trkpt lat="47.67691" lon="6.12923">
        <ele>253.9</ele>
        <time>2022-02-07T14:32:13Z</time>
      </trkpt>
      <trkpt lat="47.67687" lon="6.12918">
        <ele>253.7</ele>
        <time>2022-02-07T14:32:14Z</time>
      </trkpt>
      <trkpt lat="47.67682" lon="6.12913">
        <ele>253.6</ele>
        <time>2022-02-07T14:32:15Z</time>
      </trkpt>
      <trkpt lat="47.67678" lon="6.12908">
        <ele>253.4</ele>
        <time>2022-02-07T14:32:16Z</time>
      </trkpt>
      <trkpt lat="47.67674" lon="6.12903">
        <ele>253.3</ele>
        <time>2022-02-07T14:32:17Z</time>
      </trkpt>
      <trkpt lat="47.6767" lon="6.12899">
        <ele>253.1</ele>
        <time>2022-02-07T14:32:18Z</time>
      </trkpt>
      <trkpt lat="47.67666" lon="6.12894">
        <ele>253</ele>
        <time>2022-02-07T14:32:19Z</time>
      </trkpt>
      <trkpt lat="47.67661" lon="6.12889">
        <ele>252.8</ele>
        <time>2022-02-07T14:32:20Z</time>
      </trkpt>
      <trkpt lat="47.67657" lon="6.12885">
        <ele>252.7</ele>
        <time>2022-02-07T14:32:21Z</time>
      </trkpt>
      <trkpt lat="47.67653" lon="6.1288">
        <ele>252.5</ele>
        <time>2022-02-07T14:32:22Z</time>
      </trkpt>
      <trkpt lat="47.67649" lon="6.12876">
        <ele>252.4</ele>
        <time>2022-02-07T14:32:23Z</time>
      </trkpt>
      <trkpt lat="47.67645" lon="6.12871">
        <ele>252.2</ele>
        <time>2022-02-07T14:32:24Z</time>
      </trkpt>
      <trkpt lat="47.6764" lon="6.12867">
        <ele>252.1</ele>
        <time>2022-02-07T14:32:25Z</time>
      </trkpt>
      <trkpt lat="47.67637" lon="6.12862">
        <ele>251.9</ele>
        <time>2022-02-07T14:32:26Z</time>
      </trkpt>
      <trkpt lat="47.67632" lon="6.12858">
        <ele>251.9</ele>
        <time>2022-02-07T14:32:27Z</time>
      </trkpt>
      <trkpt lat="47.67628" lon="6.12853">
        <ele>251.8</ele>
        <time>2022-02-07T14:32:28Z</time>
      </trkpt>
      <trkpt lat="47.67624" lon="6.12849">
        <ele>251.7</ele>
        <time>2022-02-07T14:32:29Z</time>
      </trkpt>
      <trkpt lat="47.6762" lon="6.12845">
        <ele>251.5</ele>
        <time>2022-02-07T14:32:30Z</time>
      </trkpt>
      <trkpt lat="47.67616" lon="6.12841">
        <ele>251.3</ele>
        <time>2022-02-07T14:32:31Z</time>
      </trkpt>
      <trkpt lat="47.67612" lon="6.12837">
        <ele>251</ele>
        <time>2022-02-07T14:32:32Z</time>
      </trkpt>
      <trkpt lat="47.67608" lon="6.12832">
        <ele>250.9</ele>
        <time>2022-02-07T14:32:33Z</time>
      </trkpt>
      <trkpt lat="47.67604" lon="6.12827">
        <ele>250.7</ele>
        <time>2022-02-07T14:32:34Z</time>
      </trkpt>
      <trkpt lat="47.67601" lon="6.12822">
        <ele>250.6</ele>
        <time>2022-02-07T14:32:35Z</time>
      </trkpt>
      <trkpt lat="47.67598" lon="6.12817">
        <ele>250.5</ele>
        <time>2022-02-07T14:32:36Z</time>
      </trkpt>
      <trkpt lat="47.67592" lon="6.12807">
        <ele>250.3</ele>
        <time>2022-02-07T14:32:38Z</time>
      </trkpt>
      <trkpt lat="47.6759" lon="6.12801">
        <ele>250.3</ele>
        <time>2022-02-07T14:32:39Z</time>
      </trkpt>
      <trkpt lat="47.67585" lon="6.1279">
        <ele>250.1</ele>
        <time>2022-02-07T14:32:41Z</time>
      </trkpt>
      <trkpt lat="47.67581" lon="6.12779">
        <ele>249.8</ele>
        <time>2022-02-07T14:32:43Z</time>
      </trkpt>
      <trkpt lat="47.67577" lon="6.12768">
        <ele>249.5</ele>
        <time>2022-02-07T14:32:45Z</time>
      </trkpt>
      <trkpt lat="47.67573" lon="6.12756">
        <ele>249.2</ele>
        <time>2022-02-07T14:32:47Z</time>
      </trkpt>
      <trkpt lat="47.6757" lon="6.12745">
        <ele>248.9</ele>
        <time>2022-02-07T14:32:49Z</time>
      </trkpt>
      <trkpt lat="47.67566" lon="6.12734">
        <ele>248.5</ele>
        <time>2022-02-07T14:32:51Z</time>
      </trkpt>
      <trkpt lat="47.67562" lon="6.12722">
        <ele>248.2</ele>
        <time>2022-02-07T14:32:53Z</time>
      </trkpt>
      <trkpt lat="47.67559" lon="6.12716">
        <ele>247.9</ele>
        <time>2022-02-07T14:32:54Z</time>
      </trkpt>
      <trkpt lat="47.67557" lon="6.1271">
        <ele>247.6</ele>
        <time>2022-02-07T14:32:55Z</time>
      </trkpt>
      <trkpt lat="47.67554" lon="6.12704">
        <ele>247.2</ele>
        <time>2022-02-07T14:32:56Z</time>
      </trkpt>
      <trkpt lat="47.67551" lon="6.12696">
        <ele>246.9</ele>
        <time>2022-02-07T14:32:57Z</time>
      </trkpt>
      <trkpt lat="47.67549" lon="6.12689">
        <ele>246.6</ele>
        <time>2022-02-07T14:32:58Z</time>
      </trkpt>
      <trkpt lat="47.67546" lon="6.12681">
        <ele>246.2</ele>
        <time>2022-02-07T14:32:59Z</time>
      </trkpt>
      <trkpt lat="47.67542" lon="6.12673">
        <ele>245.7</ele>
        <time>2022-02-07T14:33:00Z</time>
      </trkpt>
      <trkpt lat="47.67539" lon="6.12664">
        <ele>245.3</ele>
        <time>2022-02-07T14:33:01Z</time>
      </trkpt>
      <trkpt lat="47.67535" lon="6.12655">
        <ele>245</ele>
        <time>2022-02-07T14:33:02Z</time>
      </trkpt>
      <trkpt lat="47.67532" lon="6.12646">
        <ele>244.5</ele>
        <time>2022-02-07T14:33:03Z</time>
      </trkpt>
      <trkpt lat="47.67528" lon="6.12637">
        <ele>243.9</ele>
        <time>2022-02-07T14:33:04Z</time>
      </trkpt>
      <trkpt lat="47.67524" lon="6.12628">
        <ele>243.5</ele>
        <time>2022-02-07T14:33:05Z</time>
      </trkpt>
      <trkpt lat="47.67521" lon="6.1262">
        <ele>243.1</ele>
        <time>2022-02-07T14:33:06Z</time>
      </trkpt>
      <trkpt lat="47.67517" lon="6.12614">
        <ele>242.7</ele>
        <time>2022-02-07T14:33:07Z</time>
      </trkpt>
      <trkpt lat="47.67512" lon="6.12611">
        <ele>242.4</ele>
        <time>2022-02-07T14:33:08Z</time>
      </trkpt>
      <trkpt lat="47.67508" lon="6.12611">
        <ele>242.3</ele>
        <time>2022-02-07T14:33:09Z</time>
      </trkpt>
      <trkpt lat="47.67502" lon="6.12615">
        <ele>242.2</ele>
        <time>2022-02-07T14:33:11Z</time>
      </trkpt>
      <trkpt lat="47.67496" lon="6.12623">
        <ele>242.4</ele>
        <time>2022-02-07T14:33:13Z</time>
      </trkpt>
      <trkpt lat="47.67492" lon="6.12628">
        <ele>242.4</ele>
        <time>2022-02-07T14:33:15Z</time>
      </trkpt>
      <trkpt lat="47.67484" lon="6.12641">
        <ele>242.5</ele>
        <time>2022-02-07T14:33:17Z</time>
      </trkpt>
      <trkpt lat="47.6748" lon="6.12645">
        <ele>242.5</ele>
        <time>2022-02-07T14:33:19Z</time>
      </trkpt>
      <trkpt lat="47.67475" lon="6.12649">
        <ele>242.5</ele>
        <time>2022-02-07T14:33:21Z</time>
      </trkpt>
      <trkpt lat="47.6747" lon="6.12654">
        <ele>242.5</ele>
        <time>2022-02-07T14:33:29Z</time>
      </trkpt>
      <trkpt lat="47.67467" lon="6.12658">
        <ele>242.5</ele>
        <time>2022-02-07T14:33:31Z</time>
      </trkpt>
      <trkpt lat="47.67457" lon="6.12668">
        <ele>242.5</ele>
        <time>2022-02-07T14:33:34Z</time>
      </trkpt>
      <trkpt lat="47.67446" lon="6.1268">
        <ele>242.5</ele>
        <time>2022-02-07T14:33:38Z</time>
      </trkpt>
      <trkpt lat="47.67441" lon="6.12686">
        <ele>242.6</ele>
        <time>2022-02-07T14:33:40Z</time>
      </trkpt>
      <trkpt lat="47.67437" lon="6.12691">
        <ele>242.6</ele>
        <time>2022-02-07T14:33:41Z</time>
      </trkpt>
      <trkpt lat="47.6743" lon="6.12698">
        <ele>242.6</ele>
        <time>2022-02-07T14:33:43Z</time>
      </trkpt>
      <trkpt lat="47.67422" lon="6.12708">
        <ele>242.7</ele>
        <time>2022-02-07T14:33:46Z</time>
      </trkpt>
      <trkpt lat="47.67418" lon="6.12712">
        <ele>242.7</ele>
        <time>2022-02-07T14:33:47Z</time>
      </trkpt>
      <trkpt lat="47.67414" lon="6.12716">
        <ele>242.7</ele>
        <time>2022-02-07T14:33:48Z</time>
      </trkpt>
      <trkpt lat="47.67408" lon="6.12723">
        <ele>242.7</ele>
        <time>2022-02-07T14:33:50Z</time>
      </trkpt>
      <trkpt lat="47.67403" lon="6.12728">
        <ele>242.7</ele>
        <time>2022-02-07T14:33:52Z</time>
      </trkpt>
      <trkpt lat="47.67392" lon="6.12738">
        <ele>242.7</ele>
        <time>2022-02-07T14:33:55Z</time>
      </trkpt>
      <trkpt lat="47.67388" lon="6.12742">
        <ele>242.7</ele>
        <time>2022-02-07T14:33:56Z</time>
      </trkpt>
      <trkpt lat="47.67382" lon="6.12747">
        <ele>242.6</ele>
        <time>2022-02-07T14:33:58Z</time>
      </trkpt>
      <trkpt lat="47.67375" lon="6.12753">
        <ele>242.5</ele>
        <time>2022-02-07T14:34:00Z</time>
      </trkpt>
      <trkpt lat="47.67371" lon="6.12757">
        <ele>242.3</ele>
        <time>2022-02-07T14:34:01Z</time>
      </trkpt>
      <trkpt lat="47.6736" lon="6.12764">
        <ele>242</ele>
        <time>2022-02-07T14:34:04Z</time>
      </trkpt>
      <trkpt lat="47.67356" lon="6.12767">
        <ele>241.8</ele>
        <time>2022-02-07T14:34:05Z</time>
      </trkpt>
      <trkpt lat="47.67351" lon="6.12771">
        <ele>241.6</ele>
        <time>2022-02-07T14:34:06Z</time>
      </trkpt>
      <trkpt lat="47.6734" lon="6.12778">
        <ele>241.3</ele>
        <time>2022-02-07T14:34:09Z</time>
      </trkpt>
      <trkpt lat="47.67324" lon="6.12786">
        <ele>241</ele>
        <time>2022-02-07T14:34:13Z</time>
      </trkpt>
      <trkpt lat="47.67318" lon="6.12788">
        <ele>241</ele>
        <time>2022-02-07T14:34:14Z</time>
      </trkpt>
      <trkpt lat="47.67308" lon="6.12792">
        <ele>241</ele>
        <time>2022-02-07T14:34:17Z</time>
      </trkpt>
      <trkpt lat="47.67303" lon="6.12794">
        <ele>240.9</ele>
        <time>2022-02-07T14:34:18Z</time>
      </trkpt>
      <trkpt lat="47.67297" lon="6.12796">
        <ele>240.7</ele>
        <time>2022-02-07T14:34:19Z</time>
      </trkpt>
      <trkpt lat="47.67292" lon="6.12798">
        <ele>240.5</ele>
        <time>2022-02-07T14:34:20Z</time>
      </trkpt>
      <trkpt lat="47.67264" lon="6.12807">
        <ele>240</ele>
        <time>2022-02-07T14:34:20Z</time>
      </trkpt>
      <trkpt lat="47.67259" lon="6.12809">
        <ele>240</ele>
        <time>2022-02-07T14:34:21Z</time>
      </trkpt>
      <trkpt lat="47.67255" lon="6.12814">
        <ele>240</ele>
        <time>2022-02-07T14:34:29Z</time>
      </trkpt>
      <trkpt lat="47.6725" lon="6.12817">
        <ele>240</ele>
        <time>2022-02-07T14:34:30Z</time>
      </trkpt>
      <trkpt lat="47.67243" lon="6.12817">
        <ele>239.9</ele>
        <time>2022-02-07T14:34:32Z</time>
      </trkpt>
      <trkpt lat="47.67238" lon="6.12818">
        <ele>239.7</ele>
        <time>2022-02-07T14:34:33Z</time>
      </trkpt>
      <trkpt lat="47.67231" lon="6.12818">
        <ele>239.6</ele>
        <time>2022-02-07T14:34:35Z</time>
      </trkpt>
      <trkpt lat="47.67227" lon="6.12819">
        <ele>239.6</ele>
        <time>2022-02-07T14:34:36Z</time>
      </trkpt>
      <trkpt lat="47.67209" lon="6.1282">
        <ele>239.5</ele>
        <time>2022-02-07T14:34:36Z</time>
      </trkpt>
      <trkpt lat="47.67205" lon="6.12823">
        <ele>239.6</ele>
        <time>2022-02-07T14:34:45Z</time>
      </trkpt>
      <trkpt lat="47.67199" lon="6.12826">
        <ele>239.7</ele>
        <time>2022-02-07T14:34:48Z</time>
      </trkpt>
      <trkpt lat="47.67193" lon="6.12826">
        <ele>239.7</ele>
        <time>2022-02-07T14:34:51Z</time>
      </trkpt>
      <trkpt lat="47.67188" lon="6.12828">
        <ele>239.8</ele>
        <time>2022-02-07T14:34:53Z</time>
      </trkpt>
      <trkpt lat="47.67183" lon="6.1283">
        <ele>239.9</ele>
        <time>2022-02-07T14:34:55Z</time>
      </trkpt>
      <trkpt lat="47.67177" lon="6.12831">
        <ele>239.9</ele>
        <time>2022-02-07T14:34:57Z</time>
      </trkpt>
      <trkpt lat="47.67167" lon="6.12834">
        <ele>240</ele>
        <time>2022-02-07T14:35:00Z</time>
      </trkpt>
      <trkpt lat="47.67162" lon="6.12836">
        <ele>240.3</ele>
        <time>2022-02-07T14:35:02Z</time>
      </trkpt>
      <trkpt lat="47.67144" lon="6.12841">
        <ele>240.9</ele>
        <time>2022-02-07T14:35:08Z</time>
      </trkpt>
      <trkpt lat="47.67132" lon="6.12845">
        <ele>240.9</ele>
        <time>2022-02-07T14:35:12Z</time>
      </trkpt>
      <trkpt lat="47.67126" lon="6.12847">
        <ele>240.8</ele>
        <time>2022-02-07T14:35:14Z</time>
      </trkpt>
      <trkpt lat="47.67121" lon="6.12849">
        <ele>240.7</ele>
        <time>2022-02-07T14:35:16Z</time>
      </trkpt>
      <trkpt lat="47.67115" lon="6.1285">
        <ele>240.7</ele>
        <time>2022-02-07T14:35:18Z</time>
      </trkpt>
      <trkpt lat="47.67104" lon="6.12855">
        <ele>240.8</ele>
        <time>2022-02-07T14:35:22Z</time>
      </trkpt>
      <trkpt lat="47.671" lon="6.12857">
        <ele>240.8</ele>
        <time>2022-02-07T14:35:24Z</time>
      </trkpt>
      <trkpt lat="47.67095" lon="6.1286">
        <ele>241</ele>
        <time>2022-02-07T14:35:26Z</time>
      </trkpt>
      <trkpt lat="47.67086" lon="6.12866">
        <ele>241</ele>
        <time>2022-02-07T14:35:29Z</time>
      </trkpt>
      <trkpt lat="47.67081" lon="6.1287">
        <ele>240.9</ele>
        <time>2022-02-07T14:35:31Z</time>
      </trkpt>
      <trkpt lat="47.67071" lon="6.12879">
        <ele>240.5</ele>
        <time>2022-02-07T14:35:34Z</time>
      </trkpt>
      <trkpt lat="47.67059" lon="6.12893">
        <ele>240.1</ele>
        <time>2022-02-07T14:35:38Z</time>
      </trkpt>
      <trkpt lat="47.67054" lon="6.129">
        <ele>240</ele>
        <time>2022-02-07T14:35:40Z</time>
      </trkpt>
      <trkpt lat="47.6705" lon="6.12905">
        <ele>239.9</ele>
        <time>2022-02-07T14:35:41Z</time>
      </trkpt>
      <trkpt lat="47.67047" lon="6.1291">
        <ele>239.8</ele>
        <time>2022-02-07T14:35:42Z</time>
      </trkpt>
      <trkpt lat="47.67042" lon="6.12919">
        <ele>239.5</ele>
        <time>2022-02-07T14:35:44Z</time>
      </trkpt>
      <trkpt lat="47.67038" lon="6.12926">
        <ele>239.4</ele>
        <time>2022-02-07T14:35:46Z</time>
      </trkpt>
      <trkpt lat="47.67035" lon="6.12933">
        <ele>239.3</ele>
        <time>2022-02-07T14:35:47Z</time>
      </trkpt>
      <trkpt lat="47.67031" lon="6.12942">
        <ele>239.1</ele>
        <time>2022-02-07T14:35:49Z</time>
      </trkpt>
      <trkpt lat="47.67028" lon="6.12948">
        <ele>239</ele>
        <time>2022-02-07T14:35:50Z</time>
      </trkpt>
      <trkpt lat="47.67026" lon="6.12955">
        <ele>238.9</ele>
        <time>2022-02-07T14:35:51Z</time>
      </trkpt>
      <trkpt lat="47.67022" lon="6.12965">
        <ele>238.8</ele>
        <time>2022-02-07T14:35:53Z</time>
      </trkpt>
      <trkpt lat="47.67019" lon="6.12972">
        <ele>238.7</ele>
        <time>2022-02-07T14:35:54Z</time>
      </trkpt>
      <trkpt lat="47.67017" lon="6.12979">
        <ele>238.6</ele>
        <time>2022-02-07T14:35:55Z</time>
      </trkpt>
      <trkpt lat="47.67011" lon="6.12998">
        <ele>238.4</ele>
        <time>2022-02-07T14:35:58Z</time>
      </trkpt>
      <trkpt lat="47.67007" lon="6.13009">
        <ele>238.3</ele>
        <time>2022-02-07T14:36:00Z</time>
      </trkpt>
      <trkpt lat="47.67002" lon="6.13025">
        <ele>238.1</ele>
        <time>2022-02-07T14:36:03Z</time>
      </trkpt>
      <trkpt lat="47.66998" lon="6.13034">
        <ele>237.9</ele>
        <time>2022-02-07T14:36:05Z</time>
      </trkpt>
      <trkpt lat="47.66995" lon="6.1304">
        <ele>237.9</ele>
        <time>2022-02-07T14:36:06Z</time>
      </trkpt>
      <trkpt lat="47.66993" lon="6.13049">
        <ele>237.9</ele>
        <time>2022-02-07T14:36:08Z</time>
      </trkpt>
      <trkpt lat="47.66987" lon="6.13065">
        <ele>238.2</ele>
        <time>2022-02-07T14:36:11Z</time>
      </trkpt>
      <trkpt lat="47.66984" lon="6.13073">
        <ele>238.3</ele>
        <time>2022-02-07T14:36:12Z</time>
      </trkpt>
      <trkpt lat="47.66981" lon="6.1308">
        <ele>238.3</ele>
        <time>2022-02-07T14:36:14Z</time>
      </trkpt>
      <trkpt lat="47.66975" lon="6.13095">
        <ele>238.5</ele>
        <time>2022-02-07T14:36:17Z</time>
      </trkpt>
      <trkpt lat="47.66969" lon="6.13118">
        <ele>239.3</ele>
        <time>2022-02-07T14:36:22Z</time>
      </trkpt>
      <trkpt lat="47.66966" lon="6.13126">
        <ele>239.5</ele>
        <time>2022-02-07T14:36:24Z</time>
      </trkpt>
      <trkpt lat="47.6696" lon="6.13139">
        <ele>240</ele>
        <time>2022-02-07T14:36:28Z</time>
      </trkpt>
      <trkpt lat="47.66958" lon="6.13146">
        <ele>240.3</ele>
        <time>2022-02-07T14:36:30Z</time>
      </trkpt>
      <trkpt lat="47.66954" lon="6.13154">
        <ele>240.6</ele>
        <time>2022-02-07T14:36:33Z</time>
      </trkpt>
      <trkpt lat="47.66951" lon="6.1316">
        <ele>240.8</ele>
        <time>2022-02-07T14:36:37Z</time>
      </trkpt>
      <trkpt lat="47.66946" lon="6.13172">
        <ele>241.4</ele>
        <time>2022-02-07T14:36:43Z</time>
      </trkpt>
      <trkpt lat="47.6694" lon="6.13183">
        <ele>242.1</ele>
        <time>2022-02-07T14:36:48Z</time>
      </trkpt>
      <trkpt lat="47.66938" lon="6.13191">
        <ele>242.5</ele>
        <time>2022-02-07T14:36:50Z</time>
      </trkpt>
      <trkpt lat="47.66935" lon="6.13198">
        <ele>242.8</ele>
        <time>2022-02-07T14:36:53Z</time>
      </trkpt>
      <trkpt lat="47.66933" lon="6.13203">
        <ele>242.9</ele>
        <time>2022-02-07T14:36:55Z</time>
      </trkpt>
      <trkpt lat="47.66931" lon="6.13211">
        <ele>243.1</ele>
        <time>2022-02-07T14:36:57Z</time>
      </trkpt>
      <trkpt lat="47.66928" lon="6.13217">
        <ele>243.2</ele>
        <time>2022-02-07T14:36:59Z</time>
      </trkpt>
      <trkpt lat="47.66924" lon="6.13232">
        <ele>243.6</ele>
        <time>2022-02-07T14:37:04Z</time>
      </trkpt>
      <trkpt lat="47.6692" lon="6.1325">
        <ele>244.1</ele>
        <time>2022-02-07T14:37:04Z</time>
      </trkpt>
      <trkpt lat="47.66918" lon="6.13258">
        <ele>244.3</ele>
        <time>2022-02-07T14:37:13Z</time>
      </trkpt>
      <trkpt lat="47.66916" lon="6.13264">
        <ele>244.5</ele>
        <time>2022-02-07T14:37:16Z</time>
      </trkpt>
      <trkpt lat="47.66916" lon="6.13272">
        <ele>244.7</ele>
        <time>2022-02-07T14:37:18Z</time>
      </trkpt>
      <trkpt lat="47.66912" lon="6.13285">
        <ele>244.7</ele>
        <time>2022-02-07T14:37:22Z</time>
      </trkpt>
      <trkpt lat="47.66911" lon="6.13293">
        <ele>244.7</ele>
        <time>2022-02-07T14:37:25Z</time>
      </trkpt>
      <trkpt lat="47.66907" lon="6.13308">
        <ele>244.8</ele>
        <time>2022-02-07T14:37:31Z</time>
      </trkpt>
      <trkpt lat="47.66904" lon="6.13324">
        <ele>245.2</ele>
        <time>2022-02-07T14:37:37Z</time>
      </trkpt>
      <trkpt lat="47.66902" lon="6.13338">
        <ele>245.5</ele>
        <time>2022-02-07T14:37:42Z</time>
      </trkpt>
      <trkpt lat="47.669" lon="6.13345">
        <ele>245.6</ele>
        <time>2022-02-07T14:37:44Z</time>
      </trkpt>
      <trkpt lat="47.66898" lon="6.13353">
        <ele>245.6</ele>
        <time>2022-02-07T14:37:47Z</time>
      </trkpt>
      <trkpt lat="47.66896" lon="6.13361">
        <ele>245.5</ele>
        <time>2022-02-07T14:37:49Z</time>
      </trkpt>
      <trkpt lat="47.66894" lon="6.13368">
        <ele>245.4</ele>
        <time>2022-02-07T14:37:51Z</time>
      </trkpt>
      <trkpt lat="47.66892" lon="6.13375">
        <ele>245.2</ele>
        <time>2022-02-07T14:37:53Z</time>
      </trkpt>
      <trkpt lat="47.66885" lon="6.13397">
        <ele>245</ele>
        <time>2022-02-07T14:39:01Z</time>
      </trkpt>
      <trkpt lat="47.66882" lon="6.13406">
        <ele>245</ele>
        <time>2022-02-07T14:39:03Z</time>
      </trkpt>
      <trkpt lat="47.66879" lon="6.13413">
        <ele>244.8</ele>
        <time>2022-02-07T14:39:05Z</time>
      </trkpt>
      <trkpt lat="47.66876" lon="6.1342">
        <ele>244.6</ele>
        <time>2022-02-07T14:39:06Z</time>
      </trkpt>
      <trkpt lat="47.66869" lon="6.13434">
        <ele>244.3</ele>
        <time>2022-02-07T14:39:09Z</time>
      </trkpt>
      <trkpt lat="47.66865" lon="6.13441">
        <ele>244.2</ele>
        <time>2022-02-07T14:39:10Z</time>
      </trkpt>
      <trkpt lat="47.66839" lon="6.13485">
        <ele>242.3</ele>
        <time>2022-02-07T14:39:10Z</time>
      </trkpt>
      <trkpt lat="47.66835" lon="6.13492">
        <ele>242.1</ele>
        <time>2022-02-07T14:39:11Z</time>
      </trkpt>
      <trkpt lat="47.6683" lon="6.13499">
        <ele>241.8</ele>
        <time>2022-02-07T14:39:12Z</time>
      </trkpt>
      <trkpt lat="47.66826" lon="6.13506">
        <ele>241.3</ele>
        <time>2022-02-07T14:39:13Z</time>
      </trkpt>
      <trkpt lat="47.66822" lon="6.13513">
        <ele>240.9</ele>
        <time>2022-02-07T14:39:14Z</time>
      </trkpt>
      <trkpt lat="47.66818" lon="6.1352">
        <ele>240.6</ele>
        <time>2022-02-07T14:39:15Z</time>
      </trkpt>
      <trkpt lat="47.66815" lon="6.13528">
        <ele>240.3</ele>
        <time>2022-02-07T14:39:16Z</time>
      </trkpt>
      <trkpt lat="47.66812" lon="6.13535">
        <ele>240.2</ele>
        <time>2022-02-07T14:39:17Z</time>
      </trkpt>
      <trkpt lat="47.66809" lon="6.13543">
        <ele>240.1</ele>
        <time>2022-02-07T14:39:18Z</time>
      </trkpt>
      <trkpt lat="47.66807" lon="6.13551">
        <ele>240.1</ele>
        <time>2022-02-07T14:39:19Z</time>
      </trkpt>
      <trkpt lat="47.66805" lon="6.13559">
        <ele>239.9</ele>
        <time>2022-02-07T14:39:20Z</time>
      </trkpt>
      <trkpt lat="47.66803" lon="6.13568">
        <ele>239.8</ele>
        <time>2022-02-07T14:39:21Z</time>
      </trkpt>
      <trkpt lat="47.66802" lon="6.13576">
        <ele>239.7</ele>
        <time>2022-02-07T14:39:22Z</time>
      </trkpt>
      <trkpt lat="47.668" lon="6.13584">
        <ele>239.6</ele>
        <time>2022-02-07T14:39:23Z</time>
      </trkpt>
      <trkpt lat="47.66799" lon="6.13593">
        <ele>239.6</ele>
        <time>2022-02-07T14:39:24Z</time>
      </trkpt>
      <trkpt lat="47.66799" lon="6.13601">
        <ele>239.5</ele>
        <time>2022-02-07T14:39:25Z</time>
      </trkpt>
      <trkpt lat="47.66798" lon="6.13609">
        <ele>239.5</ele>
        <time>2022-02-07T14:39:26Z</time>
      </trkpt>
      <trkpt lat="47.66798" lon="6.13618">
        <ele>239.3</ele>
        <time>2022-02-07T14:39:27Z</time>
      </trkpt>
      <trkpt lat="47.66799" lon="6.13626">
        <ele>239.1</ele>
        <time>2022-02-07T14:39:28Z</time>
      </trkpt>
      <trkpt lat="47.66799" lon="6.13634">
        <ele>238.9</ele>
        <time>2022-02-07T14:39:29Z</time>
      </trkpt>
      <trkpt lat="47.668" lon="6.13641">
        <ele>238.8</ele>
        <time>2022-02-07T14:39:30Z</time>
      </trkpt>
      <trkpt lat="47.668" lon="6.13649">
        <ele>238.8</ele>
        <time>2022-02-07T14:39:31Z</time>
      </trkpt>
      <trkpt lat="47.66801" lon="6.13656">
        <ele>238.8</ele>
        <time>2022-02-07T14:39:32Z</time>
      </trkpt>
      <trkpt lat="47.66802" lon="6.13663">
        <ele>238.9</ele>
        <time>2022-02-07T14:39:33Z</time>
      </trkpt>
      <trkpt lat="47.66803" lon="6.1367">
        <ele>238.9</ele>
        <time>2022-02-07T14:39:34Z</time>
      </trkpt>
      <trkpt lat="47.66804" lon="6.13677">
        <ele>238.9</ele>
        <time>2022-02-07T14:39:35Z</time>
      </trkpt>
      <trkpt lat="47.66807" lon="6.1369">
        <ele>239</ele>
        <time>2022-02-07T14:39:37Z</time>
      </trkpt>
      <trkpt lat="47.66809" lon="6.13701">
        <ele>238.9</ele>
        <time>2022-02-07T14:39:39Z</time>
      </trkpt>
      <trkpt lat="47.66812" lon="6.13711">
        <ele>238.6</ele>
        <time>2022-02-07T14:39:41Z</time>
      </trkpt>
      <trkpt lat="47.66814" lon="6.13724">
        <ele>238.3</ele>
        <time>2022-02-07T14:39:43Z</time>
      </trkpt>
      <trkpt lat="47.66817" lon="6.13748">
        <ele>238.4</ele>
        <time>2022-02-07T14:39:45Z</time>
      </trkpt>
      <trkpt lat="47.66819" lon="6.13758">
        <ele>238.5</ele>
        <time>2022-02-07T14:39:48Z</time>
      </trkpt>
      <trkpt lat="47.6682" lon="6.13771">
        <ele>238.5</ele>
        <time>2022-02-07T14:39:50Z</time>
      </trkpt>
      <trkpt lat="47.6682" lon="6.1378">
        <ele>238.5</ele>
        <time>2022-02-07T14:39:58Z</time>
      </trkpt>
      <trkpt lat="47.66821" lon="6.13787">
        <ele>238.5</ele>
        <time>2022-02-07T14:39:59Z</time>
      </trkpt>
      <trkpt lat="47.6682" lon="6.13799">
        <ele>238.5</ele>
        <time>2022-02-07T14:40:01Z</time>
      </trkpt>
      <trkpt lat="47.6682" lon="6.13806">
        <ele>238.5</ele>
        <time>2022-02-07T14:40:02Z</time>
      </trkpt>
      <trkpt lat="47.66819" lon="6.13812">
        <ele>238.5</ele>
        <time>2022-02-07T14:40:03Z</time>
      </trkpt>
      <trkpt lat="47.66811" lon="6.13837">
        <ele>238.3</ele>
        <time>2022-02-07T14:40:08Z</time>
      </trkpt>
      <trkpt lat="47.66802" lon="6.13866">
        <ele>239</ele>
        <time>2022-02-07T14:40:13Z</time>
      </trkpt>
      <trkpt lat="47.668" lon="6.13876">
        <ele>239.3</ele>
        <time>2022-02-07T14:40:15Z</time>
      </trkpt>
      <trkpt lat="47.66799" lon="6.13883">
        <ele>239.6</ele>
        <time>2022-02-07T14:40:16Z</time>
      </trkpt>
      <trkpt lat="47.66796" lon="6.13901">
        <ele>239.7</ele>
        <time>2022-02-07T14:40:20Z</time>
      </trkpt>
      <trkpt lat="47.66795" lon="6.13909">
        <ele>239.6</ele>
        <time>2022-02-07T14:40:21Z</time>
      </trkpt>
      <trkpt lat="47.66793" lon="6.13918">
        <ele>239.6</ele>
        <time>2022-02-07T14:40:23Z</time>
      </trkpt>
      <trkpt lat="47.66792" lon="6.13926">
        <ele>239.7</ele>
        <time>2022-02-07T14:40:25Z</time>
      </trkpt>
      <trkpt lat="47.66791" lon="6.13941">
        <ele>239.9</ele>
        <time>2022-02-07T14:40:28Z</time>
      </trkpt>
      <trkpt lat="47.6679" lon="6.1395">
        <ele>239.9</ele>
        <time>2022-02-07T14:40:30Z</time>
      </trkpt>
      <trkpt lat="47.66789" lon="6.13957">
        <ele>239.8</ele>
        <time>2022-02-07T14:40:31Z</time>
      </trkpt>
      <trkpt lat="47.66788" lon="6.13966">
        <ele>239.7</ele>
        <time>2022-02-07T14:40:33Z</time>
      </trkpt>
      <trkpt lat="47.66786" lon="6.13977">
        <ele>239.6</ele>
        <time>2022-02-07T14:40:35Z</time>
      </trkpt>
      <trkpt lat="47.66785" lon="6.13987">
        <ele>239.5</ele>
        <time>2022-02-07T14:40:37Z</time>
      </trkpt>
      <trkpt lat="47.66783" lon="6.14005">
        <ele>239.3</ele>
        <time>2022-02-07T14:40:40Z</time>
      </trkpt>
      <trkpt lat="47.66781" lon="6.14013">
        <ele>239.3</ele>
        <time>2022-02-07T14:40:41Z</time>
      </trkpt>
      <trkpt lat="47.66775" lon="6.14061">
        <ele>238.9</ele>
        <time>2022-02-07T14:40:43Z</time>
      </trkpt>
      <trkpt lat="47.66773" lon="6.14074">
        <ele>238.9</ele>
        <time>2022-02-07T14:40:45Z</time>
      </trkpt>
      <trkpt lat="47.66774" lon="6.14082">
        <ele>239</ele>
        <time>2022-02-07T14:40:52Z</time>
      </trkpt>
      <trkpt lat="47.66772" lon="6.14091">
        <ele>239.2</ele>
        <time>2022-02-07T14:40:53Z</time>
      </trkpt>
      <trkpt lat="47.6677" lon="6.14102">
        <ele>239.5</ele>
        <time>2022-02-07T14:40:55Z</time>
      </trkpt>
      <trkpt lat="47.66769" lon="6.14111">
        <ele>239.7</ele>
        <time>2022-02-07T14:40:56Z</time>
      </trkpt>
      <trkpt lat="47.66768" lon="6.14125">
        <ele>239.5</ele>
        <time>2022-02-07T14:40:59Z</time>
      </trkpt>
      <trkpt lat="47.66767" lon="6.14134">
        <ele>239.4</ele>
        <time>2022-02-07T14:41:00Z</time>
      </trkpt>
      <trkpt lat="47.66767" lon="6.14141">
        <ele>239.5</ele>
        <time>2022-02-07T14:41:01Z</time>
      </trkpt>
      <trkpt lat="47.66765" lon="6.1415">
        <ele>240.1</ele>
        <time>2022-02-07T14:41:03Z</time>
      </trkpt>
      <trkpt lat="47.66763" lon="6.14167">
        <ele>241</ele>
        <time>2022-02-07T14:41:08Z</time>
      </trkpt>
      <trkpt lat="47.66763" lon="6.14175">
        <ele>241.4</ele>
        <time>2022-02-07T14:41:12Z</time>
      </trkpt>
      <trkpt lat="47.66762" lon="6.14182">
        <ele>241.9</ele>
        <time>2022-02-07T14:41:15Z</time>
      </trkpt>
      <trkpt lat="47.66761" lon="6.14199">
        <ele>242.8</ele>
        <time>2022-02-07T14:41:22Z</time>
      </trkpt>
      <trkpt lat="47.66759" lon="6.14205">
        <ele>243.1</ele>
        <time>2022-02-07T14:41:26Z</time>
      </trkpt>
      <trkpt lat="47.66757" lon="6.14213">
        <ele>243.4</ele>
        <time>2022-02-07T14:41:31Z</time>
      </trkpt>
      <trkpt lat="47.66755" lon="6.14219">
        <ele>243.7</ele>
        <time>2022-02-07T14:41:35Z</time>
      </trkpt>
      <trkpt lat="47.66751" lon="6.14234">
        <ele>244.4</ele>
        <time>2022-02-07T14:41:38Z</time>
      </trkpt>
      <trkpt lat="47.6675" lon="6.14241">
        <ele>244.7</ele>
        <time>2022-02-07T14:41:42Z</time>
      </trkpt>
      <trkpt lat="47.66748" lon="6.14248">
        <ele>245</ele>
        <time>2022-02-07T14:41:46Z</time>
      </trkpt>
      <trkpt lat="47.66746" lon="6.14255">
        <ele>245.6</ele>
        <time>2022-02-07T14:41:49Z</time>
      </trkpt>
      <trkpt lat="47.66746" lon="6.14263">
        <ele>246.2</ele>
        <time>2022-02-07T14:41:58Z</time>
      </trkpt>
      <trkpt lat="47.66744" lon="6.14269">
        <ele>246.9</ele>
        <time>2022-02-07T14:42:02Z</time>
      </trkpt>
      <trkpt lat="47.66742" lon="6.14285">
        <ele>247.9</ele>
        <time>2022-02-07T14:42:04Z</time>
      </trkpt>
      <trkpt lat="47.66739" lon="6.14291">
        <ele>248.2</ele>
        <time>2022-02-07T14:42:07Z</time>
      </trkpt>
      <trkpt lat="47.66739" lon="6.14299">
        <ele>248.6</ele>
        <time>2022-02-07T14:42:16Z</time>
      </trkpt>
      <trkpt lat="47.66738" lon="6.14306">
        <ele>248.9</ele>
        <time>2022-02-07T14:42:20Z</time>
      </trkpt>
      <trkpt lat="47.66735" lon="6.14313">
        <ele>249.5</ele>
        <time>2022-02-07T14:42:24Z</time>
      </trkpt>
      <trkpt lat="47.66734" lon="6.1432">
        <ele>249.9</ele>
        <time>2022-02-07T14:42:28Z</time>
      </trkpt>
      <trkpt lat="47.66733" lon="6.14328">
        <ele>250.4</ele>
        <time>2022-02-07T14:42:32Z</time>
      </trkpt>
      <trkpt lat="47.66732" lon="6.14336">
        <ele>250.8</ele>
        <time>2022-02-07T14:42:36Z</time>
      </trkpt>
      <trkpt lat="47.6673" lon="6.14342">
        <ele>251.3</ele>
        <time>2022-02-07T14:42:40Z</time>
      </trkpt>
      <trkpt lat="47.66728" lon="6.14357">
        <ele>252.3</ele>
        <time>2022-02-07T14:42:44Z</time>
      </trkpt>
      <trkpt lat="47.66728" lon="6.14365">
        <ele>252.7</ele>
        <time>2022-02-07T14:42:53Z</time>
      </trkpt>
      <trkpt lat="47.66727" lon="6.14372">
        <ele>253.1</ele>
        <time>2022-02-07T14:42:58Z</time>
      </trkpt>
      <trkpt lat="47.66727" lon="6.14378">
        <ele>253.4</ele>
        <time>2022-02-07T14:43:02Z</time>
      </trkpt>
      <trkpt lat="47.66723" lon="6.14393">
        <ele>254.1</ele>
        <time>2022-02-07T14:43:05Z</time>
      </trkpt>
      <trkpt lat="47.66723" lon="6.144">
        <ele>254.4</ele>
        <time>2022-02-07T14:43:13Z</time>
      </trkpt>
      <trkpt lat="47.66721" lon="6.14414">
        <ele>254.9</ele>
        <time>2022-02-07T14:43:18Z</time>
      </trkpt>
      <trkpt lat="47.6672" lon="6.14422">
        <ele>255.3</ele>
        <time>2022-02-07T14:43:21Z</time>
      </trkpt>
      <trkpt lat="47.6672" lon="6.1443">
        <ele>255.5</ele>
        <time>2022-02-07T14:43:24Z</time>
      </trkpt>
      <trkpt lat="47.6672" lon="6.14439">
        <ele>255.9</ele>
        <time>2022-02-07T14:43:27Z</time>
      </trkpt>
      <trkpt lat="47.66719" lon="6.14447">
        <ele>256.1</ele>
        <time>2022-02-07T14:43:30Z</time>
      </trkpt>
      <trkpt lat="47.66719" lon="6.14454">
        <ele>256.2</ele>
        <time>2022-02-07T14:43:32Z</time>
      </trkpt>
      <trkpt lat="47.66718" lon="6.14462">
        <ele>256.2</ele>
        <time>2022-02-07T14:43:35Z</time>
      </trkpt>
      <trkpt lat="47.66719" lon="6.14478">
        <ele>256.4</ele>
        <time>2022-02-07T14:43:40Z</time>
      </trkpt>
      <trkpt lat="47.66718" lon="6.14485">
        <ele>256.7</ele>
        <time>2022-02-07T14:43:43Z</time>
      </trkpt>
      <trkpt lat="47.66718" lon="6.14493">
        <ele>257</ele>
        <time>2022-02-07T14:43:46Z</time>
      </trkpt>
      <trkpt lat="47.66719" lon="6.14509">
        <ele>257.4</ele>
        <time>2022-02-07T14:43:52Z</time>
      </trkpt>
      <trkpt lat="47.6672" lon="6.14516">
        <ele>257.6</ele>
        <time>2022-02-07T14:43:55Z</time>
      </trkpt>
      <trkpt lat="47.66723" lon="6.14532">
        <ele>258.1</ele>
        <time>2022-02-07T14:43:56Z</time>
      </trkpt>
      <trkpt lat="47.66724" lon="6.14539">
        <ele>258.4</ele>
        <time>2022-02-07T14:43:59Z</time>
      </trkpt>
      <trkpt lat="47.66724" lon="6.14546">
        <ele>258.6</ele>
        <time>2022-02-07T14:44:02Z</time>
      </trkpt>
      <trkpt lat="47.66725" lon="6.14553">
        <ele>258.8</ele>
        <time>2022-02-07T14:44:05Z</time>
      </trkpt>
      <trkpt lat="47.66726" lon="6.14562">
        <ele>258.9</ele>
        <time>2022-02-07T14:44:14Z</time>
      </trkpt>
      <trkpt lat="47.66727" lon="6.14569">
        <ele>258.9</ele>
        <time>2022-02-07T14:44:17Z</time>
      </trkpt>
      <trkpt lat="47.66731" lon="6.14593">
        <ele>259.4</ele>
        <time>2022-02-07T14:44:20Z</time>
      </trkpt>
      <trkpt lat="47.66732" lon="6.14602">
        <ele>259.7</ele>
        <time>2022-02-07T14:44:23Z</time>
      </trkpt>
      <trkpt lat="47.66734" lon="6.14611">
        <ele>260</ele>
        <time>2022-02-07T14:44:26Z</time>
      </trkpt>
      <trkpt lat="47.66735" lon="6.1462">
        <ele>260</ele>
        <time>2022-02-07T14:44:29Z</time>
      </trkpt>
      <trkpt lat="47.66736" lon="6.14628">
        <ele>260</ele>
        <time>2022-02-07T14:44:37Z</time>
      </trkpt>
      <trkpt lat="47.66736" lon="6.14636">
        <ele>260</ele>
        <time>2022-02-07T14:44:40Z</time>
      </trkpt>
      <trkpt lat="47.66738" lon="6.14643">
        <ele>260</ele>
        <time>2022-02-07T14:44:42Z</time>
      </trkpt>
      <trkpt lat="47.66738" lon="6.1465">
        <ele>260</ele>
        <time>2022-02-07T14:44:44Z</time>
      </trkpt>
      <trkpt lat="47.6674" lon="6.14667">
        <ele>260</ele>
        <time>2022-02-07T14:44:49Z</time>
      </trkpt>
      <trkpt lat="47.66741" lon="6.14695">
        <ele>260</ele>
        <time>2022-02-07T14:44:56Z</time>
      </trkpt>
      <trkpt lat="47.6674" lon="6.14702">
        <ele>260</ele>
        <time>2022-02-07T14:44:58Z</time>
      </trkpt>
      <trkpt lat="47.6674" lon="6.14709">
        <ele>260</ele>
        <time>2022-02-07T14:44:59Z</time>
      </trkpt>
      <trkpt lat="47.66739" lon="6.14718">
        <ele>260</ele>
        <time>2022-02-07T14:45:01Z</time>
      </trkpt>
      <trkpt lat="47.66738" lon="6.14727">
        <ele>260.1</ele>
        <time>2022-02-07T14:45:03Z</time>
      </trkpt>
      <trkpt lat="47.66735" lon="6.14742">
        <ele>260.3</ele>
        <time>2022-02-07T14:45:07Z</time>
      </trkpt>
      <trkpt lat="47.6673" lon="6.14758">
        <ele>260.2</ele>
        <time>2022-02-07T14:45:12Z</time>
      </trkpt>
      <trkpt lat="47.66728" lon="6.14766">
        <ele>260.1</ele>
        <time>2022-02-07T14:45:14Z</time>
      </trkpt>
      <trkpt lat="47.66726" lon="6.14774">
        <ele>260</ele>
        <time>2022-02-07T14:45:16Z</time>
      </trkpt>
      <trkpt lat="47.66721" lon="6.148">
        <ele>259.2</ele>
        <time>2022-02-07T14:45:21Z</time>
      </trkpt>
      <trkpt lat="47.66722" lon="6.14813">
        <ele>259</ele>
        <time>2022-02-07T14:45:24Z</time>
      </trkpt>
      <trkpt lat="47.66729" lon="6.14824">
        <ele>259.3</ele>
        <time>2022-02-07T14:45:27Z</time>
      </trkpt>
      <trkpt lat="47.66734" lon="6.14831">
        <ele>259.4</ele>
        <time>2022-02-07T14:45:29Z</time>
      </trkpt>
      <trkpt lat="47.66738" lon="6.14837">
        <ele>259.6</ele>
        <time>2022-02-07T14:45:31Z</time>
      </trkpt>
      <trkpt lat="47.66742" lon="6.14842">
        <ele>259.7</ele>
        <time>2022-02-07T14:45:33Z</time>
      </trkpt>
      <trkpt lat="47.66749" lon="6.14854">
        <ele>260</ele>
        <time>2022-02-07T14:45:37Z</time>
      </trkpt>
      <trkpt lat="47.66752" lon="6.14858">
        <ele>260</ele>
        <time>2022-02-07T14:45:39Z</time>
      </trkpt>
      <trkpt lat="47.66765" lon="6.14874">
        <ele>259.8</ele>
        <time>2022-02-07T14:45:40Z</time>
      </trkpt>
      <trkpt lat="47.66769" lon="6.14879">
        <ele>259.8</ele>
        <time>2022-02-07T14:45:47Z</time>
      </trkpt>
      <trkpt lat="47.66775" lon="6.14885">
        <ele>259.9</ele>
        <time>2022-02-07T14:45:49Z</time>
      </trkpt>
      <trkpt lat="47.66779" lon="6.14889">
        <ele>260</ele>
        <time>2022-02-07T14:45:51Z</time>
      </trkpt>
      <trkpt lat="47.66783" lon="6.14895">
        <ele>260.2</ele>
        <time>2022-02-07T14:45:53Z</time>
      </trkpt>
      <trkpt lat="47.66787" lon="6.149">
        <ele>260.3</ele>
        <time>2022-02-07T14:45:55Z</time>
      </trkpt>
      <trkpt lat="47.66792" lon="6.14906">
        <ele>260.5</ele>
        <time>2022-02-07T14:45:57Z</time>
      </trkpt>
      <trkpt lat="47.66796" lon="6.14912">
        <ele>260.6</ele>
        <time>2022-02-07T14:45:59Z</time>
      </trkpt>
      <trkpt lat="47.66799" lon="6.14917">
        <ele>260.8</ele>
        <time>2022-02-07T14:46:01Z</time>
      </trkpt>
      <trkpt lat="47.66804" lon="6.14922">
        <ele>260.9</ele>
        <time>2022-02-07T14:46:03Z</time>
      </trkpt>
      <trkpt lat="47.66807" lon="6.14926">
        <ele>261.1</ele>
        <time>2022-02-07T14:46:05Z</time>
      </trkpt>
      <trkpt lat="47.66811" lon="6.14931">
        <ele>261.2</ele>
        <time>2022-02-07T14:46:07Z</time>
      </trkpt>
      <trkpt lat="47.66815" lon="6.14936">
        <ele>261.3</ele>
        <time>2022-02-07T14:46:09Z</time>
      </trkpt>
      <trkpt lat="47.66822" lon="6.14945">
        <ele>261.6</ele>
        <time>2022-02-07T14:46:12Z</time>
      </trkpt>
      <trkpt lat="47.66827" lon="6.1495">
        <ele>261.8</ele>
        <time>2022-02-07T14:46:14Z</time>
      </trkpt>
      <trkpt lat="47.6683" lon="6.14955">
        <ele>261.9</ele>
        <time>2022-02-07T14:46:16Z</time>
      </trkpt>
      <trkpt lat="47.66835" lon="6.14962">
        <ele>262</ele>
        <time>2022-02-07T14:46:19Z</time>
      </trkpt>
      <trkpt lat="47.66839" lon="6.14966">
        <ele>262.2</ele>
        <time>2022-02-07T14:46:21Z</time>
      </trkpt>
      <trkpt lat="47.66843" lon="6.14971">
        <ele>262.3</ele>
        <time>2022-02-07T14:46:24Z</time>
      </trkpt>
      <trkpt lat="47.6685" lon="6.14985">
        <ele>262.3</ele>
        <time>2022-02-07T14:46:30Z</time>
      </trkpt>
      <trkpt lat="47.66854" lon="6.14993">
        <ele>262.2</ele>
        <time>2022-02-07T14:46:33Z</time>
      </trkpt>
      <trkpt lat="47.66868" lon="6.15012">
        <ele>262.2</ele>
        <time>2022-02-07T14:46:40Z</time>
      </trkpt>
      <trkpt lat="47.66872" lon="6.15018">
        <ele>262.4</ele>
        <time>2022-02-07T14:46:42Z</time>
      </trkpt>
      <trkpt lat="47.66875" lon="6.15023">
        <ele>262.5</ele>
        <time>2022-02-07T14:46:44Z</time>
      </trkpt>
      <trkpt lat="47.66887" lon="6.15042">
        <ele>263</ele>
        <time>2022-02-07T14:46:51Z</time>
      </trkpt>
      <trkpt lat="47.66895" lon="6.15052">
        <ele>263.2</ele>
        <time>2022-02-07T14:46:56Z</time>
      </trkpt>
      <trkpt lat="47.669" lon="6.15066">
        <ele>263.6</ele>
        <time>2022-02-07T14:47:01Z</time>
      </trkpt>
      <trkpt lat="47.66904" lon="6.15072">
        <ele>263.8</ele>
        <time>2022-02-07T14:47:03Z</time>
      </trkpt>
      <trkpt lat="47.6691" lon="6.15086">
        <ele>264.1</ele>
        <time>2022-02-07T14:47:08Z</time>
      </trkpt>
      <trkpt lat="47.66913" lon="6.15091">
        <ele>264.3</ele>
        <time>2022-02-07T14:47:10Z</time>
      </trkpt>
      <trkpt lat="47.66916" lon="6.151">
        <ele>264.6</ele>
        <time>2022-02-07T14:47:13Z</time>
      </trkpt>
      <trkpt lat="47.66922" lon="6.15122">
        <ele>265.9</ele>
        <time>2022-02-07T14:47:21Z</time>
      </trkpt>
      <trkpt lat="47.66926" lon="6.15138">
        <ele>267</ele>
        <time>2022-02-07T14:47:27Z</time>
      </trkpt>
      <trkpt lat="47.66927" lon="6.15146">
        <ele>267</ele>
        <time>2022-02-07T14:47:30Z</time>
      </trkpt>
      <trkpt lat="47.66925" lon="6.15153">
        <ele>267</ele>
        <time>2022-02-07T14:47:32Z</time>
      </trkpt>
      <trkpt lat="47.66922" lon="6.15169">
        <ele>267</ele>
        <time>2022-02-07T14:47:33Z</time>
      </trkpt>
      <trkpt lat="47.66919" lon="6.15175">
        <ele>267</ele>
        <time>2022-02-07T14:47:35Z</time>
      </trkpt>
      <trkpt lat="47.66916" lon="6.15181">
        <ele>267</ele>
        <time>2022-02-07T14:47:37Z</time>
      </trkpt>
      <trkpt lat="47.66914" lon="6.15188">
        <ele>266.9</ele>
        <time>2022-02-07T14:47:39Z</time>
      </trkpt>
      <trkpt lat="47.66911" lon="6.15195">
        <ele>266.8</ele>
        <time>2022-02-07T14:47:42Z</time>
      </trkpt>
      <trkpt lat="47.66909" lon="6.15202">
        <ele>266.7</ele>
        <time>2022-02-07T14:47:45Z</time>
      </trkpt>
      <trkpt lat="47.66913" lon="6.15208">
        <ele>266.9</ele>
        <time>2022-02-07T14:47:49Z</time>
      </trkpt>
      <trkpt lat="47.66915" lon="6.15216">
        <ele>266.9</ele>
        <time>2022-02-07T14:47:52Z</time>
      </trkpt>
      <trkpt lat="47.66916" lon="6.15225">
        <ele>267</ele>
        <time>2022-02-07T14:47:55Z</time>
      </trkpt>
      <trkpt lat="47.66919" lon="6.15234">
        <ele>267</ele>
        <time>2022-02-07T14:47:57Z</time>
      </trkpt>
      <trkpt lat="47.66922" lon="6.15242">
        <ele>267</ele>
        <time>2022-02-07T14:47:59Z</time>
      </trkpt>
      <trkpt lat="47.66925" lon="6.15252">
        <ele>266.9</ele>
        <time>2022-02-07T14:48:01Z</time>
      </trkpt>
      <trkpt lat="47.66928" lon="6.15264">
        <ele>266.7</ele>
        <time>2022-02-07T14:48:03Z</time>
      </trkpt>
      <trkpt lat="47.66929" lon="6.15271">
        <ele>266.6</ele>
        <time>2022-02-07T14:48:04Z</time>
      </trkpt>
      <trkpt lat="47.66932" lon="6.15283">
        <ele>266.4</ele>
        <time>2022-02-07T14:48:06Z</time>
      </trkpt>
      <trkpt lat="47.66934" lon="6.1529">
        <ele>266.2</ele>
        <time>2022-02-07T14:48:07Z</time>
      </trkpt>
      <trkpt lat="47.66935" lon="6.15298">
        <ele>266</ele>
        <time>2022-02-07T14:48:08Z</time>
      </trkpt>
      <trkpt lat="47.66936" lon="6.15305">
        <ele>265.7</ele>
        <time>2022-02-07T14:48:09Z</time>
      </trkpt>
      <trkpt lat="47.66938" lon="6.15319">
        <ele>265.2</ele>
        <time>2022-02-07T14:48:11Z</time>
      </trkpt>
      <trkpt lat="47.66939" lon="6.15327">
        <ele>264.9</ele>
        <time>2022-02-07T14:48:12Z</time>
      </trkpt>
      <trkpt lat="47.66939" lon="6.15335">
        <ele>264.6</ele>
        <time>2022-02-07T14:48:13Z</time>
      </trkpt>
      <trkpt lat="47.66939" lon="6.15345">
        <ele>264.1</ele>
        <time>2022-02-07T14:48:14Z</time>
      </trkpt>
      <trkpt lat="47.66939" lon="6.15356">
        <ele>263.7</ele>
        <time>2022-02-07T14:48:15Z</time>
      </trkpt>
      <trkpt lat="47.6694" lon="6.15365">
        <ele>263.2</ele>
        <time>2022-02-07T14:48:16Z</time>
      </trkpt>
      <trkpt lat="47.6694" lon="6.15376">
        <ele>262.4</ele>
        <time>2022-02-07T14:48:17Z</time>
      </trkpt>
      <trkpt lat="47.6694" lon="6.15388">
        <ele>261.5</ele>
        <time>2022-02-07T14:48:18Z</time>
      </trkpt>
      <trkpt lat="47.6694" lon="6.154">
        <ele>261.2</ele>
        <time>2022-02-07T14:48:19Z</time>
      </trkpt>
      <trkpt lat="47.6694" lon="6.15412">
        <ele>260.8</ele>
        <time>2022-02-07T14:48:20Z</time>
      </trkpt>
      <trkpt lat="47.6694" lon="6.15422">
        <ele>260.6</ele>
        <time>2022-02-07T14:48:21Z</time>
      </trkpt>
      <trkpt lat="47.6694" lon="6.15433">
        <ele>260.6</ele>
        <time>2022-02-07T14:48:22Z</time>
      </trkpt>
      <trkpt lat="47.6694" lon="6.15443">
        <ele>260.5</ele>
        <time>2022-02-07T14:48:23Z</time>
      </trkpt>
      <trkpt lat="47.6694" lon="6.15452">
        <ele>260.8</ele>
        <time>2022-02-07T14:48:24Z</time>
      </trkpt>
      <trkpt lat="47.6694" lon="6.15461">
        <ele>261.2</ele>
        <time>2022-02-07T14:48:25Z</time>
      </trkpt>
      <trkpt lat="47.66941" lon="6.15469">
        <ele>261.5</ele>
        <time>2022-02-07T14:48:26Z</time>
      </trkpt>
      <trkpt lat="47.66941" lon="6.15477">
        <ele>261.8</ele>
        <time>2022-02-07T14:48:27Z</time>
      </trkpt>
      <trkpt lat="47.66941" lon="6.15483">
        <ele>262.1</ele>
        <time>2022-02-07T14:48:28Z</time>
      </trkpt>
      <trkpt lat="47.6694" lon="6.15494">
        <ele>262.4</ele>
        <time>2022-02-07T14:48:30Z</time>
      </trkpt>
      <trkpt lat="47.6694" lon="6.15504">
        <ele>262.9</ele>
        <time>2022-02-07T14:48:32Z</time>
      </trkpt>
      <trkpt lat="47.6694" lon="6.15512">
        <ele>263.2</ele>
        <time>2022-02-07T14:48:34Z</time>
      </trkpt>
      <trkpt lat="47.6694" lon="6.15521">
        <ele>263.5</ele>
        <time>2022-02-07T14:48:36Z</time>
      </trkpt>
      <trkpt lat="47.6694" lon="6.1553">
        <ele>263.9</ele>
        <time>2022-02-07T14:48:38Z</time>
      </trkpt>
      <trkpt lat="47.66941" lon="6.15537">
        <ele>264.2</ele>
        <time>2022-02-07T14:48:40Z</time>
      </trkpt>
      <trkpt lat="47.66942" lon="6.15545">
        <ele>264.5</ele>
        <time>2022-02-07T14:48:42Z</time>
      </trkpt>
      <trkpt lat="47.66942" lon="6.15552">
        <ele>264.8</ele>
        <time>2022-02-07T14:48:44Z</time>
      </trkpt>
      <trkpt lat="47.66942" lon="6.1556">
        <ele>265.1</ele>
        <time>2022-02-07T14:48:46Z</time>
      </trkpt>
      <trkpt lat="47.66942" lon="6.15567">
        <ele>265.4</ele>
        <time>2022-02-07T14:48:48Z</time>
      </trkpt>
      <trkpt lat="47.66943" lon="6.15575">
        <ele>265.6</ele>
        <time>2022-02-07T14:48:50Z</time>
      </trkpt>
      <trkpt lat="47.66943" lon="6.15582">
        <ele>265.9</ele>
        <time>2022-02-07T14:48:52Z</time>
      </trkpt>
      <trkpt lat="47.66943" lon="6.15592">
        <ele>266</ele>
        <time>2022-02-07T14:48:55Z</time>
      </trkpt>
      <trkpt lat="47.66944" lon="6.15601">
        <ele>266</ele>
        <time>2022-02-07T14:48:58Z</time>
      </trkpt>
      <trkpt lat="47.66944" lon="6.15608">
        <ele>266</ele>
        <time>2022-02-07T14:49:00Z</time>
      </trkpt>
      <trkpt lat="47.66945" lon="6.15615">
        <ele>266</ele>
        <time>2022-02-07T14:49:02Z</time>
      </trkpt>
      <trkpt lat="47.66945" lon="6.15623">
        <ele>266</ele>
        <time>2022-02-07T14:49:04Z</time>
      </trkpt>
      <trkpt lat="47.66945" lon="6.1563">
        <ele>266</ele>
        <time>2022-02-07T14:49:06Z</time>
      </trkpt>
      <trkpt lat="47.66945" lon="6.15637">
        <ele>266</ele>
        <time>2022-02-07T14:49:08Z</time>
      </trkpt>
      <trkpt lat="47.66947" lon="6.15644">
        <ele>266.1</ele>
        <time>2022-02-07T14:49:10Z</time>
      </trkpt>
      <trkpt lat="47.66948" lon="6.15652">
        <ele>266.1</ele>
        <time>2022-02-07T14:49:12Z</time>
      </trkpt>
      <trkpt lat="47.66948" lon="6.15661">
        <ele>266.1</ele>
        <time>2022-02-07T14:49:14Z</time>
      </trkpt>
      <trkpt lat="47.66948" lon="6.15669">
        <ele>266.1</ele>
        <time>2022-02-07T14:49:16Z</time>
      </trkpt>
      <trkpt lat="47.66949" lon="6.15678">
        <ele>265.7</ele>
        <time>2022-02-07T14:49:18Z</time>
      </trkpt>
      <trkpt lat="47.66949" lon="6.15687">
        <ele>265.4</ele>
        <time>2022-02-07T14:49:20Z</time>
      </trkpt>
      <trkpt lat="47.66949" lon="6.15698">
        <ele>265.3</ele>
        <time>2022-02-07T14:49:22Z</time>
      </trkpt>
      <trkpt lat="47.66949" lon="6.15711">
        <ele>265.7</ele>
        <time>2022-02-07T14:49:24Z</time>
      </trkpt>
      <trkpt lat="47.6695" lon="6.15724">
        <ele>265.9</ele>
        <time>2022-02-07T14:49:26Z</time>
      </trkpt>
      <trkpt lat="47.66951" lon="6.15732">
        <ele>265.7</ele>
        <time>2022-02-07T14:49:27Z</time>
      </trkpt>
      <trkpt lat="47.66952" lon="6.1574">
        <ele>265.4</ele>
        <time>2022-02-07T14:49:28Z</time>
      </trkpt>
      <trkpt lat="47.66952" lon="6.15747">
        <ele>265.1</ele>
        <time>2022-02-07T14:49:29Z</time>
      </trkpt>
      <trkpt lat="47.66953" lon="6.15755">
        <ele>265</ele>
        <time>2022-02-07T14:49:30Z</time>
      </trkpt>
      <trkpt lat="47.66953" lon="6.15762">
        <ele>264.9</ele>
        <time>2022-02-07T14:49:31Z</time>
      </trkpt>
      <trkpt lat="47.66954" lon="6.1577">
        <ele>264.8</ele>
        <time>2022-02-07T14:49:32Z</time>
      </trkpt>
      <trkpt lat="47.66955" lon="6.15778">
        <ele>264.6</ele>
        <time>2022-02-07T14:49:33Z</time>
      </trkpt>
      <trkpt lat="47.66956" lon="6.15785">
        <ele>264.3</ele>
        <time>2022-02-07T14:49:34Z</time>
      </trkpt>
      <trkpt lat="47.66956" lon="6.15793">
        <ele>264</ele>
        <time>2022-02-07T14:49:35Z</time>
      </trkpt>
      <trkpt lat="47.66957" lon="6.15801">
        <ele>263.7</ele>
        <time>2022-02-07T14:49:36Z</time>
      </trkpt>
      <trkpt lat="47.66958" lon="6.15809">
        <ele>263.4</ele>
        <time>2022-02-07T14:49:37Z</time>
      </trkpt>
      <trkpt lat="47.66959" lon="6.15818">
        <ele>263</ele>
        <time>2022-02-07T14:49:38Z</time>
      </trkpt>
      <trkpt lat="47.6696" lon="6.15827">
        <ele>262.7</ele>
        <time>2022-02-07T14:49:39Z</time>
      </trkpt>
      <trkpt lat="47.6696" lon="6.15837">
        <ele>262.3</ele>
        <time>2022-02-07T14:49:40Z</time>
      </trkpt>
      <trkpt lat="47.66961" lon="6.15847">
        <ele>261.9</ele>
        <time>2022-02-07T14:49:41Z</time>
      </trkpt>
      <trkpt lat="47.66962" lon="6.15857">
        <ele>261.5</ele>
        <time>2022-02-07T14:49:42Z</time>
      </trkpt>
      <trkpt lat="47.66963" lon="6.15868">
        <ele>261</ele>
        <time>2022-02-07T14:49:43Z</time>
      </trkpt>
      <trkpt lat="47.66963" lon="6.15879">
        <ele>260.5</ele>
        <time>2022-02-07T14:49:44Z</time>
      </trkpt>
      <trkpt lat="47.66964" lon="6.15891">
        <ele>259.9</ele>
        <time>2022-02-07T14:49:45Z</time>
      </trkpt>
      <trkpt lat="47.66965" lon="6.15903">
        <ele>259.1</ele>
        <time>2022-02-07T14:49:46Z</time>
      </trkpt>
      <trkpt lat="47.66966" lon="6.15916">
        <ele>258.3</ele>
        <time>2022-02-07T14:49:47Z</time>
      </trkpt>
      <trkpt lat="47.66967" lon="6.15928">
        <ele>257.8</ele>
        <time>2022-02-07T14:49:48Z</time>
      </trkpt>
      <trkpt lat="47.66968" lon="6.15941">
        <ele>257.3</ele>
        <time>2022-02-07T14:49:49Z</time>
      </trkpt>
      <trkpt lat="47.66969" lon="6.15954">
        <ele>256.8</ele>
        <time>2022-02-07T14:49:50Z</time>
      </trkpt>
      <trkpt lat="47.6697" lon="6.15967">
        <ele>256.3</ele>
        <time>2022-02-07T14:49:51Z</time>
      </trkpt>
      <trkpt lat="47.66971" lon="6.1598">
        <ele>255.7</ele>
        <time>2022-02-07T14:49:52Z</time>
      </trkpt>
      <trkpt lat="47.66972" lon="6.15993">
        <ele>255.2</ele>
        <time>2022-02-07T14:49:53Z</time>
      </trkpt>
      <trkpt lat="47.66973" lon="6.16007">
        <ele>255</ele>
        <time>2022-02-07T14:49:54Z</time>
      </trkpt>
      <trkpt lat="47.66975" lon="6.1602">
        <ele>254.9</ele>
        <time>2022-02-07T14:49:55Z</time>
      </trkpt>
      <trkpt lat="47.66976" lon="6.16033">
        <ele>254.7</ele>
        <time>2022-02-07T14:49:56Z</time>
      </trkpt>
      <trkpt lat="47.66976" lon="6.16047">
        <ele>254.2</ele>
        <time>2022-02-07T14:49:57Z</time>
      </trkpt>
      <trkpt lat="47.66976" lon="6.16061">
        <ele>253.7</ele>
        <time>2022-02-07T14:49:58Z</time>
      </trkpt>
      <trkpt lat="47.66975" lon="6.16074">
        <ele>253.2</ele>
        <time>2022-02-07T14:49:59Z</time>
      </trkpt>
      <trkpt lat="47.66975" lon="6.16088">
        <ele>252.8</ele>
        <time>2022-02-07T14:50:00Z</time>
      </trkpt>
      <trkpt lat="47.66974" lon="6.16101">
        <ele>252.4</ele>
        <time>2022-02-07T14:50:01Z</time>
      </trkpt>
      <trkpt lat="47.66972" lon="6.16114">
        <ele>251.8</ele>
        <time>2022-02-07T14:50:02Z</time>
      </trkpt>
      <trkpt lat="47.6697" lon="6.16127">
        <ele>250.8</ele>
        <time>2022-02-07T14:50:03Z</time>
      </trkpt>
      <trkpt lat="47.66968" lon="6.16139">
        <ele>250</ele>
        <time>2022-02-07T14:50:04Z</time>
      </trkpt>
      <trkpt lat="47.66965" lon="6.16151">
        <ele>249.4</ele>
        <time>2022-02-07T14:50:05Z</time>
      </trkpt>
      <trkpt lat="47.66962" lon="6.16162">
        <ele>248.8</ele>
        <time>2022-02-07T14:50:06Z</time>
      </trkpt>
      <trkpt lat="47.66959" lon="6.16173">
        <ele>248</ele>
        <time>2022-02-07T14:50:07Z</time>
      </trkpt>
      <trkpt lat="47.66956" lon="6.16184">
        <ele>247.2</ele>
        <time>2022-02-07T14:50:08Z</time>
      </trkpt>
      <trkpt lat="47.66953" lon="6.16194">
        <ele>246.3</ele>
        <time>2022-02-07T14:50:09Z</time>
      </trkpt>
      <trkpt lat="47.6695" lon="6.16204">
        <ele>245.8</ele>
        <time>2022-02-07T14:50:10Z</time>
      </trkpt>
      <trkpt lat="47.66948" lon="6.16214">
        <ele>245.3</ele>
        <time>2022-02-07T14:50:11Z</time>
      </trkpt>
      <trkpt lat="47.66945" lon="6.16225">
        <ele>244.9</ele>
        <time>2022-02-07T14:50:12Z</time>
      </trkpt>
      <trkpt lat="47.66944" lon="6.16235">
        <ele>244.5</ele>
        <time>2022-02-07T14:50:13Z</time>
      </trkpt>
      <trkpt lat="47.66944" lon="6.16247">
        <ele>244.1</ele>
        <time>2022-02-07T14:50:14Z</time>
      </trkpt>
      <trkpt lat="47.66945" lon="6.16258">
        <ele>243.7</ele>
        <time>2022-02-07T14:50:15Z</time>
      </trkpt>
      <trkpt lat="47.66946" lon="6.16269">
        <ele>243.3</ele>
        <time>2022-02-07T14:50:16Z</time>
      </trkpt>
      <trkpt lat="47.66948" lon="6.1628">
        <ele>242.9</ele>
        <time>2022-02-07T14:50:17Z</time>
      </trkpt>
      <trkpt lat="47.6695" lon="6.16292">
        <ele>242.5</ele>
        <time>2022-02-07T14:50:18Z</time>
      </trkpt>
      <trkpt lat="47.66952" lon="6.16302">
        <ele>242.1</ele>
        <time>2022-02-07T14:50:19Z</time>
      </trkpt>
      <trkpt lat="47.66955" lon="6.16313">
        <ele>241.5</ele>
        <time>2022-02-07T14:50:20Z</time>
      </trkpt>
      <trkpt lat="47.66957" lon="6.16323">
        <ele>240.7</ele>
        <time>2022-02-07T14:50:21Z</time>
      </trkpt>
      <trkpt lat="47.66958" lon="6.16335">
        <ele>240</ele>
        <time>2022-02-07T14:50:22Z</time>
      </trkpt>
      <trkpt lat="47.66959" lon="6.16346">
        <ele>239.5</ele>
        <time>2022-02-07T14:50:23Z</time>
      </trkpt>
      <trkpt lat="47.66959" lon="6.16358">
        <ele>239.1</ele>
        <time>2022-02-07T14:50:24Z</time>
      </trkpt>
      <trkpt lat="47.66958" lon="6.16369">
        <ele>238.6</ele>
        <time>2022-02-07T14:50:25Z</time>
      </trkpt>
      <trkpt lat="47.66956" lon="6.1638">
        <ele>238.1</ele>
        <time>2022-02-07T14:50:26Z</time>
      </trkpt>
      <trkpt lat="47.66954" lon="6.1639">
        <ele>237.6</ele>
        <time>2022-02-07T14:50:27Z</time>
      </trkpt>
      <trkpt lat="47.66952" lon="6.164">
        <ele>237.3</ele>
        <time>2022-02-07T14:50:28Z</time>
      </trkpt>
      <trkpt lat="47.6695" lon="6.1641">
        <ele>237.1</ele>
        <time>2022-02-07T14:50:29Z</time>
      </trkpt>
      <trkpt lat="47.66949" lon="6.16419">
        <ele>236.8</ele>
        <time>2022-02-07T14:50:30Z</time>
      </trkpt>
      <trkpt lat="47.66948" lon="6.16427">
        <ele>236.5</ele>
        <time>2022-02-07T14:50:31Z</time>
      </trkpt>
      <trkpt lat="47.66946" lon="6.16435">
        <ele>236.3</ele>
        <time>2022-02-07T14:50:32Z</time>
      </trkpt>
      <trkpt lat="47.66945" lon="6.16441">
        <ele>236.1</ele>
        <time>2022-02-07T14:50:33Z</time>
      </trkpt>
      <trkpt lat="47.66943" lon="6.16449">
        <ele>235.8</ele>
        <time>2022-02-07T14:50:35Z</time>
      </trkpt>
      <trkpt lat="47.66942" lon="6.16456">
        <ele>235.6</ele>
        <time>2022-02-07T14:50:38Z</time>
      </trkpt>
      <trkpt lat="47.66946" lon="6.16464">
        <ele>235.3</ele>
        <time>2022-02-07T14:50:41Z</time>
      </trkpt>
      <trkpt lat="47.66946" lon="6.16472">
        <ele>235</ele>
        <time>2022-02-07T14:50:43Z</time>
      </trkpt>
      <trkpt lat="47.66946" lon="6.1648">
        <ele>234.7</ele>
        <time>2022-02-07T14:50:51Z</time>
      </trkpt>
      <trkpt lat="47.66946" lon="6.16538">
        <ele>234</ele>
        <time>2022-02-07T14:50:51Z</time>
      </trkpt>
      <trkpt lat="47.66945" lon="6.16545">
        <ele>234</ele>
        <time>2022-02-07T14:50:52Z</time>
      </trkpt>
      <trkpt lat="47.66945" lon="6.16554">
        <ele>234</ele>
        <time>2022-02-07T14:51:00Z</time>
      </trkpt>
      <trkpt lat="47.66942" lon="6.16575">
        <ele>233.9</ele>
        <time>2022-02-07T14:51:04Z</time>
      </trkpt>
      <trkpt lat="47.66939" lon="6.16582">
        <ele>233.8</ele>
        <time>2022-02-07T14:51:05Z</time>
      </trkpt>
      <trkpt lat="47.66936" lon="6.16598">
        <ele>233.3</ele>
        <time>2022-02-07T14:51:08Z</time>
      </trkpt>
      <trkpt lat="47.66935" lon="6.16607">
        <ele>233.1</ele>
        <time>2022-02-07T14:51:09Z</time>
      </trkpt>
      <trkpt lat="47.66933" lon="6.16615">
        <ele>233</ele>
        <time>2022-02-07T14:51:11Z</time>
      </trkpt>
      <trkpt lat="47.66931" lon="6.16631">
        <ele>233</ele>
        <time>2022-02-07T14:51:14Z</time>
      </trkpt>
      <trkpt lat="47.66927" lon="6.16648">
        <ele>233.2</ele>
        <time>2022-02-07T14:51:17Z</time>
      </trkpt>
      <trkpt lat="47.66925" lon="6.16658">
        <ele>233.5</ele>
        <time>2022-02-07T14:51:19Z</time>
      </trkpt>
      <trkpt lat="47.66921" lon="6.16672">
        <ele>233.8</ele>
        <time>2022-02-07T14:51:22Z</time>
      </trkpt>
      <trkpt lat="47.6692" lon="6.16699">
        <ele>233.9</ele>
        <time>2022-02-07T14:51:27Z</time>
      </trkpt>
      <trkpt lat="47.6692" lon="6.16707">
        <ele>233.9</ele>
        <time>2022-02-07T14:51:28Z</time>
      </trkpt>
      <trkpt lat="47.66921" lon="6.16722">
        <ele>233.8</ele>
        <time>2022-02-07T14:51:31Z</time>
      </trkpt>
      <trkpt lat="47.66924" lon="6.16739">
        <ele>233.7</ele>
        <time>2022-02-07T14:51:34Z</time>
      </trkpt>
      <trkpt lat="47.66926" lon="6.16746">
        <ele>233.7</ele>
        <time>2022-02-07T14:51:35Z</time>
      </trkpt>
      <trkpt lat="47.66928" lon="6.16752">
        <ele>233.7</ele>
        <time>2022-02-07T14:51:36Z</time>
      </trkpt>
      <trkpt lat="47.66934" lon="6.16766">
        <ele>233.9</ele>
        <time>2022-02-07T14:51:39Z</time>
      </trkpt>
      <trkpt lat="47.66959" lon="6.16797">
        <ele>233.8</ele>
        <time>2022-02-07T14:51:39Z</time>
      </trkpt>
      <trkpt lat="47.66963" lon="6.16801">
        <ele>233.6</ele>
        <time>2022-02-07T14:51:40Z</time>
      </trkpt>
      <trkpt lat="47.66967" lon="6.16804">
        <ele>233.4</ele>
        <time>2022-02-07T14:51:41Z</time>
      </trkpt>
      <trkpt lat="47.66971" lon="6.16808">
        <ele>233.3</ele>
        <time>2022-02-07T14:51:42Z</time>
      </trkpt>
      <trkpt lat="47.66975" lon="6.16812">
        <ele>233.3</ele>
        <time>2022-02-07T14:51:43Z</time>
      </trkpt>
      <trkpt lat="47.6698" lon="6.16816">
        <ele>233.4</ele>
        <time>2022-02-07T14:51:44Z</time>
      </trkpt>
      <trkpt lat="47.66984" lon="6.16819">
        <ele>233.3</ele>
        <time>2022-02-07T14:51:45Z</time>
      </trkpt>
      <trkpt lat="47.66989" lon="6.16824">
        <ele>233.3</ele>
        <time>2022-02-07T14:51:46Z</time>
      </trkpt>
      <trkpt lat="47.66994" lon="6.16828">
        <ele>233.2</ele>
        <time>2022-02-07T14:51:47Z</time>
      </trkpt>
      <trkpt lat="47.66999" lon="6.16832">
        <ele>233.1</ele>
        <time>2022-02-07T14:51:48Z</time>
      </trkpt>
      <trkpt lat="47.67003" lon="6.16837">
        <ele>233</ele>
        <time>2022-02-07T14:51:49Z</time>
      </trkpt>
      <trkpt lat="47.67008" lon="6.16842">
        <ele>233</ele>
        <time>2022-02-07T14:51:50Z</time>
      </trkpt>
      <trkpt lat="47.67012" lon="6.16847">
        <ele>232.8</ele>
        <time>2022-02-07T14:51:51Z</time>
      </trkpt>
      <trkpt lat="47.67017" lon="6.16851">
        <ele>232.6</ele>
        <time>2022-02-07T14:51:52Z</time>
      </trkpt>
      <trkpt lat="47.67022" lon="6.16856">
        <ele>232.4</ele>
        <time>2022-02-07T14:51:53Z</time>
      </trkpt>
      <trkpt lat="47.67027" lon="6.16861">
        <ele>232.1</ele>
        <time>2022-02-07T14:51:54Z</time>
      </trkpt>
      <trkpt lat="47.67031" lon="6.16866">
        <ele>231.8</ele>
        <time>2022-02-07T14:51:55Z</time>
      </trkpt>
      <trkpt lat="47.67036" lon="6.16872">
        <ele>231.6</ele>
        <time>2022-02-07T14:51:56Z</time>
      </trkpt>
      <trkpt lat="47.6704" lon="6.16879">
        <ele>231.3</ele>
        <time>2022-02-07T14:51:57Z</time>
      </trkpt>
      <trkpt lat="47.67045" lon="6.16886">
        <ele>230.8</ele>
        <time>2022-02-07T14:51:58Z</time>
      </trkpt>
      <trkpt lat="47.67049" lon="6.16894">
        <ele>230.4</ele>
        <time>2022-02-07T14:51:59Z</time>
      </trkpt>
      <trkpt lat="47.67054" lon="6.16902">
        <ele>230.1</ele>
        <time>2022-02-07T14:52:00Z</time>
      </trkpt>
      <trkpt lat="47.67057" lon="6.16911">
        <ele>230</ele>
        <time>2022-02-07T14:52:01Z</time>
      </trkpt>
      <trkpt lat="47.6706" lon="6.16921">
        <ele>229.7</ele>
        <time>2022-02-07T14:52:02Z</time>
      </trkpt>
      <trkpt lat="47.67061" lon="6.16931">
        <ele>229.4</ele>
        <time>2022-02-07T14:52:03Z</time>
      </trkpt>
      <trkpt lat="47.67061" lon="6.16942">
        <ele>229.1</ele>
        <time>2022-02-07T14:52:04Z</time>
      </trkpt>
      <trkpt lat="47.6706" lon="6.16952">
        <ele>229</ele>
        <time>2022-02-07T14:52:05Z</time>
      </trkpt>
      <trkpt lat="47.67059" lon="6.16961">
        <ele>229</ele>
        <time>2022-02-07T14:52:06Z</time>
      </trkpt>
      <trkpt lat="47.67057" lon="6.1697">
        <ele>229</ele>
        <time>2022-02-07T14:52:07Z</time>
      </trkpt>
      <trkpt lat="47.67056" lon="6.16979">
        <ele>229</ele>
        <time>2022-02-07T14:52:08Z</time>
      </trkpt>
      <trkpt lat="47.67054" lon="6.16988">
        <ele>229</ele>
        <time>2022-02-07T14:52:09Z</time>
      </trkpt>
      <trkpt lat="47.67053" lon="6.16997">
        <ele>229</ele>
        <time>2022-02-07T14:52:10Z</time>
      </trkpt>
      <trkpt lat="47.67052" lon="6.17005">
        <ele>229</ele>
        <time>2022-02-07T14:52:11Z</time>
      </trkpt>
      <trkpt lat="47.6705" lon="6.17014">
        <ele>229</ele>
        <time>2022-02-07T14:52:12Z</time>
      </trkpt>
      <trkpt lat="47.67049" lon="6.17022">
        <ele>229</ele>
        <time>2022-02-07T14:52:13Z</time>
      </trkpt>
      <trkpt lat="47.67048" lon="6.1703">
        <ele>229</ele>
        <time>2022-02-07T14:52:14Z</time>
      </trkpt>
      <trkpt lat="47.67047" lon="6.17037">
        <ele>229</ele>
        <time>2022-02-07T14:52:15Z</time>
      </trkpt>
      <trkpt lat="47.67046" lon="6.17045">
        <ele>229</ele>
        <time>2022-02-07T14:52:16Z</time>
      </trkpt>
      <trkpt lat="47.67046" lon="6.17052">
        <ele>229</ele>
        <time>2022-02-07T14:52:17Z</time>
      </trkpt>
      <trkpt lat="47.67047" lon="6.1706">
        <ele>229</ele>
        <time>2022-02-07T14:52:18Z</time>
      </trkpt>
      <trkpt lat="47.67047" lon="6.17067">
        <ele>229</ele>
        <time>2022-02-07T14:52:19Z</time>
      </trkpt>
      <trkpt lat="47.67047" lon="6.17074">
        <ele>229</ele>
        <time>2022-02-07T14:52:20Z</time>
      </trkpt>
      <trkpt lat="47.67047" lon="6.17081">
        <ele>229</ele>
        <time>2022-02-07T14:52:21Z</time>
      </trkpt>
      <trkpt lat="47.67047" lon="6.17089">
        <ele>229</ele>
        <time>2022-02-07T14:52:22Z</time>
      </trkpt>
      <trkpt lat="47.67047" lon="6.17096">
        <ele>229</ele>
        <time>2022-02-07T14:52:23Z</time>
      </trkpt>
      <trkpt lat="47.67048" lon="6.17104">
        <ele>229</ele>
        <time>2022-02-07T14:52:24Z</time>
      </trkpt>
      <trkpt lat="47.67048" lon="6.17111">
        <ele>229</ele>
        <time>2022-02-07T14:52:25Z</time>
      </trkpt>
      <trkpt lat="47.67049" lon="6.17118">
        <ele>229</ele>
        <time>2022-02-07T14:52:26Z</time>
      </trkpt>
      <trkpt lat="47.67049" lon="6.17126">
        <ele>229</ele>
        <time>2022-02-07T14:52:27Z</time>
      </trkpt>
      <trkpt lat="47.67049" lon="6.17133">
        <ele>229</ele>
        <time>2022-02-07T14:52:28Z</time>
      </trkpt>
      <trkpt lat="47.6705" lon="6.1714">
        <ele>229</ele>
        <time>2022-02-07T14:52:29Z</time>
      </trkpt>
      <trkpt lat="47.6705" lon="6.17147">
        <ele>229</ele>
        <time>2022-02-07T14:52:30Z</time>
      </trkpt>
      <trkpt lat="47.6705" lon="6.17154">
        <ele>229</ele>
        <time>2022-02-07T14:52:31Z</time>
      </trkpt>
      <trkpt lat="47.67051" lon="6.1716">
        <ele>229</ele>
        <time>2022-02-07T14:52:32Z</time>
      </trkpt>
      <trkpt lat="47.67051" lon="6.17167">
        <ele>229</ele>
        <time>2022-02-07T14:52:33Z</time>
      </trkpt>
      <trkpt lat="47.67051" lon="6.17174">
        <ele>229</ele>
        <time>2022-02-07T14:52:34Z</time>
      </trkpt>
      <trkpt lat="47.67052" lon="6.17181">
        <ele>229</ele>
        <time>2022-02-07T14:52:35Z</time>
      </trkpt>
      <trkpt lat="47.67052" lon="6.17188">
        <ele>229</ele>
        <time>2022-02-07T14:52:36Z</time>
      </trkpt>
      <trkpt lat="47.67052" lon="6.17195">
        <ele>229</ele>
        <time>2022-02-07T14:52:37Z</time>
      </trkpt>
      <trkpt lat="47.67052" lon="6.17202">
        <ele>229</ele>
        <time>2022-02-07T14:52:38Z</time>
      </trkpt>
      <trkpt lat="47.67052" lon="6.17209">
        <ele>229</ele>
        <time>2022-02-07T14:52:39Z</time>
      </trkpt>
      <trkpt lat="47.67051" lon="6.17216">
        <ele>229</ele>
        <time>2022-02-07T14:52:40Z</time>
      </trkpt>
      <trkpt lat="47.67051" lon="6.17223">
        <ele>229</ele>
        <time>2022-02-07T14:52:41Z</time>
      </trkpt>
      <trkpt lat="47.6705" lon="6.17229">
        <ele>229.2</ele>
        <time>2022-02-07T14:52:42Z</time>
      </trkpt>
      <trkpt lat="47.67047" lon="6.1724">
        <ele>229.4</ele>
        <time>2022-02-07T14:52:44Z</time>
      </trkpt>
      <trkpt lat="47.67045" lon="6.17252">
        <ele>229.6</ele>
        <time>2022-02-07T14:52:46Z</time>
      </trkpt>
      <trkpt lat="47.67043" lon="6.17263">
        <ele>229.5</ele>
        <time>2022-02-07T14:52:48Z</time>
      </trkpt>
      <trkpt lat="47.67036" lon="6.17259">
        <ele>229.3</ele>
        <time>2022-02-07T14:52:50Z</time>
      </trkpt>
      <trkpt lat="47.67034" lon="6.17268">
        <ele>229.2</ele>
        <time>2022-02-07T14:52:58Z</time>
      </trkpt>
      <trkpt lat="47.67033" lon="6.17277">
        <ele>229.2</ele>
        <time>2022-02-07T14:52:59Z</time>
      </trkpt>
      <trkpt lat="47.67032" lon="6.17286">
        <ele>229.4</ele>
        <time>2022-02-07T14:53:00Z</time>
      </trkpt>
      <trkpt lat="47.6703" lon="6.17295">
        <ele>229.7</ele>
        <time>2022-02-07T14:53:02Z</time>
      </trkpt>
      <trkpt lat="47.67028" lon="6.17304">
        <ele>229.9</ele>
        <time>2022-02-07T14:53:03Z</time>
      </trkpt>
      <trkpt lat="47.67025" lon="6.17312">
        <ele>230.2</ele>
        <time>2022-02-07T14:53:05Z</time>
      </trkpt>
      <trkpt lat="47.67023" lon="6.17319">
        <ele>230.5</ele>
        <time>2022-02-07T14:53:06Z</time>
      </trkpt>
      <trkpt lat="47.67019" lon="6.17326">
        <ele>230.7</ele>
        <time>2022-02-07T14:53:08Z</time>
      </trkpt>
      <trkpt lat="47.67015" lon="6.17331">
        <ele>230.9</ele>
        <time>2022-02-07T14:53:09Z</time>
      </trkpt>
      <trkpt lat="47.6701" lon="6.17338">
        <ele>231.1</ele>
        <time>2022-02-07T14:53:11Z</time>
      </trkpt>
      <trkpt lat="47.67005" lon="6.17344">
        <ele>231.1</ele>
        <time>2022-02-07T14:53:13Z</time>
      </trkpt>
      <trkpt lat="47.67001" lon="6.17348">
        <ele>231</ele>
        <time>2022-02-07T14:53:14Z</time>
      </trkpt>
      <trkpt lat="47.66991" lon="6.17358">
        <ele>231</ele>
        <time>2022-02-07T14:53:18Z</time>
      </trkpt>
      <trkpt lat="47.66982" lon="6.17366">
        <ele>231.2</ele>
        <time>2022-02-07T14:53:21Z</time>
      </trkpt>
      <trkpt lat="47.66976" lon="6.17367">
        <ele>231.2</ele>
        <time>2022-02-07T14:53:23Z</time>
      </trkpt>
      <trkpt lat="47.66971" lon="6.17369">
        <ele>231.3</ele>
        <time>2022-02-07T14:53:24Z</time>
      </trkpt>
      <trkpt lat="47.66966" lon="6.17372">
        <ele>231.4</ele>
        <time>2022-02-07T14:53:26Z</time>
      </trkpt>
      <trkpt lat="47.66959" lon="6.17377">
        <ele>231.6</ele>
        <time>2022-02-07T14:53:28Z</time>
      </trkpt>
      <trkpt lat="47.66954" lon="6.17381">
        <ele>231.7</ele>
        <time>2022-02-07T14:53:30Z</time>
      </trkpt>
      <trkpt lat="47.66944" lon="6.17388">
        <ele>231.9</ele>
        <time>2022-02-07T14:53:33Z</time>
      </trkpt>
      <trkpt lat="47.66939" lon="6.17391">
        <ele>231.8</ele>
        <time>2022-02-07T14:53:35Z</time>
      </trkpt>
      <trkpt lat="47.66933" lon="6.17393">
        <ele>231.8</ele>
        <time>2022-02-07T14:53:36Z</time>
      </trkpt>
      <trkpt lat="47.66927" lon="6.17397">
        <ele>231.7</ele>
        <time>2022-02-07T14:53:38Z</time>
      </trkpt>
      <trkpt lat="47.66917" lon="6.17403">
        <ele>231.5</ele>
        <time>2022-02-07T14:53:41Z</time>
      </trkpt>
      <trkpt lat="47.66912" lon="6.17407">
        <ele>231.7</ele>
        <time>2022-02-07T14:53:43Z</time>
      </trkpt>
      <trkpt lat="47.66905" lon="6.17411">
        <ele>231.8</ele>
        <time>2022-02-07T14:53:45Z</time>
      </trkpt>
      <trkpt lat="47.66893" lon="6.17418">
        <ele>232</ele>
        <time>2022-02-07T14:53:49Z</time>
      </trkpt>
      <trkpt lat="47.66881" lon="6.17423">
        <ele>231.9</ele>
        <time>2022-02-07T14:53:53Z</time>
      </trkpt>
      <trkpt lat="47.66875" lon="6.17425">
        <ele>231.8</ele>
        <time>2022-02-07T14:53:54Z</time>
      </trkpt>
      <trkpt lat="47.66868" lon="6.17427">
        <ele>231.6</ele>
        <time>2022-02-07T14:53:56Z</time>
      </trkpt>
      <trkpt lat="47.66864" lon="6.17427">
        <ele>231.5</ele>
        <time>2022-02-07T14:53:57Z</time>
      </trkpt>
      <trkpt lat="47.66859" lon="6.17428">
        <ele>231.4</ele>
        <time>2022-02-07T14:53:58Z</time>
      </trkpt>
      <trkpt lat="47.66852" lon="6.17428">
        <ele>231.4</ele>
        <time>2022-02-07T14:54:00Z</time>
      </trkpt>
      <trkpt lat="47.66847" lon="6.17428">
        <ele>231.4</ele>
        <time>2022-02-07T14:54:01Z</time>
      </trkpt>
      <trkpt lat="47.66836" lon="6.17428">
        <ele>231.4</ele>
        <time>2022-02-07T14:54:04Z</time>
      </trkpt>
      <trkpt lat="47.66824" lon="6.17427">
        <ele>231.4</ele>
        <time>2022-02-07T14:54:07Z</time>
      </trkpt>
      <trkpt lat="47.66818" lon="6.17427">
        <ele>231.4</ele>
        <time>2022-02-07T14:54:08Z</time>
      </trkpt>
      <trkpt lat="47.66813" lon="6.17426">
        <ele>231.3</ele>
        <time>2022-02-07T14:54:10Z</time>
      </trkpt>
      <trkpt lat="47.66807" lon="6.17426">
        <ele>231.3</ele>
        <time>2022-02-07T14:54:11Z</time>
      </trkpt>
      <trkpt lat="47.66801" lon="6.17426">
        <ele>231.3</ele>
        <time>2022-02-07T14:54:13Z</time>
      </trkpt>
      <trkpt lat="47.66796" lon="6.17426">
        <ele>231.3</ele>
        <time>2022-02-07T14:54:14Z</time>
      </trkpt>
      <trkpt lat="47.66792" lon="6.17426">
        <ele>231.3</ele>
        <time>2022-02-07T14:54:15Z</time>
      </trkpt>
      <trkpt lat="47.66785" lon="6.17427">
        <ele>231.4</ele>
        <time>2022-02-07T14:54:17Z</time>
      </trkpt>
      <trkpt lat="47.66779" lon="6.17428">
        <ele>231.4</ele>
        <time>2022-02-07T14:54:19Z</time>
      </trkpt>
      <trkpt lat="47.66773" lon="6.17429">
        <ele>231.3</ele>
        <time>2022-02-07T14:54:20Z</time>
      </trkpt>
      <trkpt lat="47.66765" lon="6.1743">
        <ele>231</ele>
        <time>2022-02-07T14:54:22Z</time>
      </trkpt>
      <trkpt lat="47.66758" lon="6.17431">
        <ele>230.8</ele>
        <time>2022-02-07T14:54:24Z</time>
      </trkpt>
      <trkpt lat="47.66751" lon="6.17433">
        <ele>230.6</ele>
        <time>2022-02-07T14:54:26Z</time>
      </trkpt>
      <trkpt lat="47.66745" lon="6.17433">
        <ele>230.6</ele>
        <time>2022-02-07T14:54:28Z</time>
      </trkpt>
      <trkpt lat="47.66739" lon="6.17434">
        <ele>230.6</ele>
        <time>2022-02-07T14:54:29Z</time>
      </trkpt>
      <trkpt lat="47.66733" lon="6.17435">
        <ele>230.7</ele>
        <time>2022-02-07T14:54:31Z</time>
      </trkpt>
      <trkpt lat="47.66728" lon="6.17436">
        <ele>230.7</ele>
        <time>2022-02-07T14:54:32Z</time>
      </trkpt>
      <trkpt lat="47.66721" lon="6.17437">
        <ele>230.7</ele>
        <time>2022-02-07T14:54:34Z</time>
      </trkpt>
      <trkpt lat="47.66716" lon="6.17437">
        <ele>230.7</ele>
        <time>2022-02-07T14:54:35Z</time>
      </trkpt>
      <trkpt lat="47.66701" lon="6.17441">
        <ele>230.9</ele>
        <time>2022-02-07T14:54:39Z</time>
      </trkpt>
      <trkpt lat="47.66696" lon="6.17442">
        <ele>230.9</ele>
        <time>2022-02-07T14:54:40Z</time>
      </trkpt>
      <trkpt lat="47.66691" lon="6.17443">
        <ele>230.8</ele>
        <time>2022-02-07T14:54:41Z</time>
      </trkpt>
      <trkpt lat="47.66684" lon="6.17445">
        <ele>230.6</ele>
        <time>2022-02-07T14:54:43Z</time>
      </trkpt>
      <trkpt lat="47.66678" lon="6.17447">
        <ele>230.5</ele>
        <time>2022-02-07T14:54:44Z</time>
      </trkpt>
      <trkpt lat="47.66671" lon="6.17449">
        <ele>230.3</ele>
        <time>2022-02-07T14:54:46Z</time>
      </trkpt>
      <trkpt lat="47.6666" lon="6.17453">
        <ele>230.2</ele>
        <time>2022-02-07T14:54:49Z</time>
      </trkpt>
      <trkpt lat="47.66654" lon="6.17456">
        <ele>230.2</ele>
        <time>2022-02-07T14:54:50Z</time>
      </trkpt>
      <trkpt lat="47.66647" lon="6.17459">
        <ele>230.1</ele>
        <time>2022-02-07T14:54:52Z</time>
      </trkpt>
      <trkpt lat="47.66637" lon="6.17465">
        <ele>230</ele>
        <time>2022-02-07T14:54:55Z</time>
      </trkpt>
      <trkpt lat="47.66631" lon="6.17467">
        <ele>229.9</ele>
        <time>2022-02-07T14:54:56Z</time>
      </trkpt>
      <trkpt lat="47.66625" lon="6.1747">
        <ele>230</ele>
        <time>2022-02-07T14:54:57Z</time>
      </trkpt>
      <trkpt lat="47.66614" lon="6.17476">
        <ele>230</ele>
        <time>2022-02-07T14:55:00Z</time>
      </trkpt>
      <trkpt lat="47.66601" lon="6.17482">
        <ele>229.8</ele>
        <time>2022-02-07T14:55:03Z</time>
      </trkpt>
      <trkpt lat="47.66594" lon="6.17486">
        <ele>229.7</ele>
        <time>2022-02-07T14:55:05Z</time>
      </trkpt>
      <trkpt lat="47.66589" lon="6.17488">
        <ele>229.7</ele>
        <time>2022-02-07T14:55:06Z</time>
      </trkpt>
      <trkpt lat="47.66584" lon="6.17491">
        <ele>229.7</ele>
        <time>2022-02-07T14:55:07Z</time>
      </trkpt>
      <trkpt lat="47.6658" lon="6.17493">
        <ele>229.6</ele>
        <time>2022-02-07T14:55:08Z</time>
      </trkpt>
      <trkpt lat="47.66573" lon="6.17495">
        <ele>229.5</ele>
        <time>2022-02-07T14:55:10Z</time>
      </trkpt>
      <trkpt lat="47.66545" lon="6.17513">
        <ele>229.1</ele>
        <time>2022-02-07T14:55:10Z</time>
      </trkpt>
      <trkpt lat="47.66541" lon="6.17516">
        <ele>229</ele>
        <time>2022-02-07T14:55:11Z</time>
      </trkpt>
      <trkpt lat="47.66536" lon="6.17519">
        <ele>229</ele>
        <time>2022-02-07T14:55:12Z</time>
      </trkpt>
      <trkpt lat="47.66532" lon="6.17522">
        <ele>229</ele>
        <time>2022-02-07T14:55:13Z</time>
      </trkpt>
      <trkpt lat="47.66528" lon="6.17525">
        <ele>228.9</ele>
        <time>2022-02-07T14:55:14Z</time>
      </trkpt>
      <trkpt lat="47.66523" lon="6.17528">
        <ele>229</ele>
        <time>2022-02-07T14:55:15Z</time>
      </trkpt>
      <trkpt lat="47.66519" lon="6.17531">
        <ele>229</ele>
        <time>2022-02-07T14:55:16Z</time>
      </trkpt>
      <trkpt lat="47.66515" lon="6.17534">
        <ele>229</ele>
        <time>2022-02-07T14:55:17Z</time>
      </trkpt>
      <trkpt lat="47.6651" lon="6.17537">
        <ele>229</ele>
        <time>2022-02-07T14:55:18Z</time>
      </trkpt>
      <trkpt lat="47.66506" lon="6.17541">
        <ele>229</ele>
        <time>2022-02-07T14:55:19Z</time>
      </trkpt>
      <trkpt lat="47.66501" lon="6.17544">
        <ele>229</ele>
        <time>2022-02-07T14:55:20Z</time>
      </trkpt>
      <trkpt lat="47.66497" lon="6.17547">
        <ele>229</ele>
        <time>2022-02-07T14:55:21Z</time>
      </trkpt>
      <trkpt lat="47.66493" lon="6.1755">
        <ele>228.9</ele>
        <time>2022-02-07T14:55:22Z</time>
      </trkpt>
      <trkpt lat="47.66488" lon="6.17553">
        <ele>229</ele>
        <time>2022-02-07T14:55:23Z</time>
      </trkpt>
      <trkpt lat="47.66484" lon="6.17556">
        <ele>229</ele>
        <time>2022-02-07T14:55:24Z</time>
      </trkpt>
      <trkpt lat="47.66479" lon="6.17559">
        <ele>229</ele>
        <time>2022-02-07T14:55:25Z</time>
      </trkpt>
      <trkpt lat="47.66475" lon="6.17562">
        <ele>229</ele>
        <time>2022-02-07T14:55:26Z</time>
      </trkpt>
      <trkpt lat="47.6647" lon="6.17564">
        <ele>229</ele>
        <time>2022-02-07T14:55:27Z</time>
      </trkpt>
      <trkpt lat="47.66466" lon="6.17567">
        <ele>228.9</ele>
        <time>2022-02-07T14:55:28Z</time>
      </trkpt>
      <trkpt lat="47.66462" lon="6.17569">
        <ele>228.8</ele>
        <time>2022-02-07T14:55:29Z</time>
      </trkpt>
      <trkpt lat="47.66457" lon="6.17572">
        <ele>228.8</ele>
        <time>2022-02-07T14:55:30Z</time>
      </trkpt>
      <trkpt lat="47.66453" lon="6.17575">
        <ele>228.8</ele>
        <time>2022-02-07T14:55:31Z</time>
      </trkpt>
      <trkpt lat="47.66449" lon="6.17578">
        <ele>228.8</ele>
        <time>2022-02-07T14:55:32Z</time>
      </trkpt>
      <trkpt lat="47.66445" lon="6.1758">
        <ele>228.9</ele>
        <time>2022-02-07T14:55:33Z</time>
      </trkpt>
      <trkpt lat="47.66438" lon="6.17585">
        <ele>228.8</ele>
        <time>2022-02-07T14:55:35Z</time>
      </trkpt>
      <trkpt lat="47.6643" lon="6.17591">
        <ele>228.6</ele>
        <time>2022-02-07T14:55:37Z</time>
      </trkpt>
      <trkpt lat="47.66422" lon="6.17597">
        <ele>228.6</ele>
        <time>2022-02-07T14:55:39Z</time>
      </trkpt>
      <trkpt lat="47.66415" lon="6.17604">
        <ele>228.7</ele>
        <time>2022-02-07T14:55:41Z</time>
      </trkpt>
      <trkpt lat="47.66409" lon="6.17608">
        <ele>228.6</ele>
        <time>2022-02-07T14:55:50Z</time>
      </trkpt>
      <trkpt lat="47.66406" lon="6.17613">
        <ele>228.6</ele>
        <time>2022-02-07T14:55:51Z</time>
      </trkpt>
      <trkpt lat="47.66402" lon="6.1762">
        <ele>228.5</ele>
        <time>2022-02-07T14:55:52Z</time>
      </trkpt>
      <trkpt lat="47.66398" lon="6.17628">
        <ele>228.5</ele>
        <time>2022-02-07T14:55:53Z</time>
      </trkpt>
      <trkpt lat="47.66395" lon="6.17633">
        <ele>228.7</ele>
        <time>2022-02-07T14:55:54Z</time>
      </trkpt>
      <trkpt lat="47.66386" lon="6.17648">
        <ele>228.6</ele>
        <time>2022-02-07T14:55:57Z</time>
      </trkpt>
      <trkpt lat="47.66382" lon="6.17653">
        <ele>228.4</ele>
        <time>2022-02-07T14:55:58Z</time>
      </trkpt>
      <trkpt lat="47.66375" lon="6.17666">
        <ele>228</ele>
        <time>2022-02-07T14:56:01Z</time>
      </trkpt>
      <trkpt lat="47.66373" lon="6.17672">
        <ele>228</ele>
        <time>2022-02-07T14:56:02Z</time>
      </trkpt>
      <trkpt lat="47.6637" lon="6.17678">
        <ele>228</ele>
        <time>2022-02-07T14:56:03Z</time>
      </trkpt>
      <trkpt lat="47.66362" lon="6.17696">
        <ele>228</ele>
        <time>2022-02-07T14:56:06Z</time>
      </trkpt>
      <trkpt lat="47.6636" lon="6.17704">
        <ele>228</ele>
        <time>2022-02-07T14:56:08Z</time>
      </trkpt>
      <trkpt lat="47.6635" lon="6.17755">
        <ele>228</ele>
        <time>2022-02-07T14:56:09Z</time>
      </trkpt>
      <trkpt lat="47.66349" lon="6.17762">
        <ele>228</ele>
        <time>2022-02-07T14:56:10Z</time>
      </trkpt>
      <trkpt lat="47.66348" lon="6.17769">
        <ele>228</ele>
        <time>2022-02-07T14:56:11Z</time>
      </trkpt>
      <trkpt lat="47.66347" lon="6.17776">
        <ele>228</ele>
        <time>2022-02-07T14:56:12Z</time>
      </trkpt>
      <trkpt lat="47.66344" lon="6.17786">
        <ele>228.1</ele>
        <time>2022-02-07T14:56:20Z</time>
      </trkpt>
      <trkpt lat="47.66344" lon="6.17793">
        <ele>228.2</ele>
        <time>2022-02-07T14:56:21Z</time>
      </trkpt>
      <trkpt lat="47.66344" lon="6.17802">
        <ele>228.3</ele>
        <time>2022-02-07T14:56:23Z</time>
      </trkpt>
      <trkpt lat="47.66342" lon="6.17836">
        <ele>228.4</ele>
        <time>2022-02-07T14:56:28Z</time>
      </trkpt>
      <trkpt lat="47.66341" lon="6.17853">
        <ele>228.8</ele>
        <time>2022-02-07T14:56:31Z</time>
      </trkpt>
      <trkpt lat="47.66339" lon="6.17873">
        <ele>229</ele>
        <time>2022-02-07T14:56:34Z</time>
      </trkpt>
      <trkpt lat="47.66339" lon="6.17888">
        <ele>229</ele>
        <time>2022-02-07T14:56:37Z</time>
      </trkpt>
      <trkpt lat="47.66338" lon="6.17897">
        <ele>229.1</ele>
        <time>2022-02-07T14:56:38Z</time>
      </trkpt>
      <trkpt lat="47.66337" lon="6.17924">
        <ele>229.1</ele>
        <time>2022-02-07T14:56:43Z</time>
      </trkpt>
      <trkpt lat="47.66336" lon="6.17931">
        <ele>229.1</ele>
        <time>2022-02-07T14:56:44Z</time>
      </trkpt>
      <trkpt lat="47.66333" lon="6.17961">
        <ele>229</ele>
        <time>2022-02-07T14:56:50Z</time>
      </trkpt>
      <trkpt lat="47.66329" lon="6.17967">
        <ele>229</ele>
        <time>2022-02-07T14:56:51Z</time>
      </trkpt>
      <trkpt lat="47.66325" lon="6.1797">
        <ele>229</ele>
        <time>2022-02-07T14:56:52Z</time>
      </trkpt>
      <trkpt lat="47.66321" lon="6.17971">
        <ele>229</ele>
        <time>2022-02-07T14:56:53Z</time>
      </trkpt>
      <trkpt lat="47.66311" lon="6.1797">
        <ele>229</ele>
        <time>2022-02-07T14:56:56Z</time>
      </trkpt>
      <trkpt lat="47.66305" lon="6.17969">
        <ele>229</ele>
        <time>2022-02-07T14:56:57Z</time>
      </trkpt>
      <trkpt lat="47.66297" lon="6.17968">
        <ele>229.2</ele>
        <time>2022-02-07T14:56:59Z</time>
      </trkpt>
      <trkpt lat="47.66292" lon="6.17966">
        <ele>229.4</ele>
        <time>2022-02-07T14:57:00Z</time>
      </trkpt>
      <trkpt lat="47.66286" lon="6.17967">
        <ele>229.6</ele>
        <time>2022-02-07T14:57:02Z</time>
      </trkpt>
      <trkpt lat="47.66281" lon="6.17967">
        <ele>229.7</ele>
        <time>2022-02-07T14:57:03Z</time>
      </trkpt>
      <trkpt lat="47.6627" lon="6.17964">
        <ele>229.9</ele>
        <time>2022-02-07T14:57:06Z</time>
      </trkpt>
      <trkpt lat="47.66265" lon="6.17965">
        <ele>230.1</ele>
        <time>2022-02-07T14:57:08Z</time>
      </trkpt>
      <trkpt lat="47.66258" lon="6.17964">
        <ele>230.2</ele>
        <time>2022-02-07T14:57:10Z</time>
      </trkpt>
      <trkpt lat="47.66248" lon="6.17963">
        <ele>230.5</ele>
        <time>2022-02-07T14:57:14Z</time>
      </trkpt>
      <trkpt lat="47.66236" lon="6.17962">
        <ele>231.1</ele>
        <time>2022-02-07T14:57:19Z</time>
      </trkpt>
      <trkpt lat="47.6623" lon="6.17959">
        <ele>231.1</ele>
        <time>2022-02-07T14:57:21Z</time>
      </trkpt>
      <trkpt lat="47.66226" lon="6.17957">
        <ele>231.1</ele>
        <time>2022-02-07T14:57:23Z</time>
      </trkpt>
      <trkpt lat="47.66219" lon="6.17956">
        <ele>231.3</ele>
        <time>2022-02-07T14:57:25Z</time>
      </trkpt>
      <trkpt lat="47.66214" lon="6.17954">
        <ele>231.4</ele>
        <time>2022-02-07T14:57:27Z</time>
      </trkpt>
      <trkpt lat="47.66204" lon="6.17951">
        <ele>231.4</ele>
        <time>2022-02-07T14:57:30Z</time>
      </trkpt>
      <trkpt lat="47.66199" lon="6.1795">
        <ele>231.5</ele>
        <time>2022-02-07T14:57:32Z</time>
      </trkpt>
      <trkpt lat="47.66193" lon="6.17949">
        <ele>231.5</ele>
        <time>2022-02-07T14:57:34Z</time>
      </trkpt>
      <trkpt lat="47.66183" lon="6.17948">
        <ele>231.4</ele>
        <time>2022-02-07T14:57:37Z</time>
      </trkpt>
      <trkpt lat="47.66178" lon="6.17948">
        <ele>231.4</ele>
        <time>2022-02-07T14:57:38Z</time>
      </trkpt>
      <trkpt lat="47.66171" lon="6.17947">
        <ele>231.3</ele>
        <time>2022-02-07T14:57:40Z</time>
      </trkpt>
      <trkpt lat="47.66165" lon="6.17946">
        <ele>231.2</ele>
        <time>2022-02-07T14:57:42Z</time>
      </trkpt>
      <trkpt lat="47.66156" lon="6.17945">
        <ele>231.1</ele>
        <time>2022-02-07T14:57:44Z</time>
      </trkpt>
      <trkpt lat="47.66145" lon="6.17945">
        <ele>231.1</ele>
        <time>2022-02-07T14:57:47Z</time>
      </trkpt>
      <trkpt lat="47.6614" lon="6.17945">
        <ele>231</ele>
        <time>2022-02-07T14:57:48Z</time>
      </trkpt>
      <trkpt lat="47.66129" lon="6.17945">
        <ele>231</ele>
        <time>2022-02-07T14:57:51Z</time>
      </trkpt>
      <trkpt lat="47.66124" lon="6.17945">
        <ele>231.1</ele>
        <time>2022-02-07T14:57:52Z</time>
      </trkpt>
      <trkpt lat="47.66111" lon="6.17945">
        <ele>231</ele>
        <time>2022-02-07T14:57:55Z</time>
      </trkpt>
      <trkpt lat="47.66106" lon="6.17945">
        <ele>230.8</ele>
        <time>2022-02-07T14:57:56Z</time>
      </trkpt>
      <trkpt lat="47.66082" lon="6.17945">
        <ele>230.1</ele>
        <time>2022-02-07T14:58:01Z</time>
      </trkpt>
      <trkpt lat="47.66077" lon="6.17945">
        <ele>230.1</ele>
        <time>2022-02-07T14:58:02Z</time>
      </trkpt>
      <trkpt lat="47.66041" lon="6.17945">
        <ele>230</ele>
        <time>2022-02-07T14:58:03Z</time>
      </trkpt>
      <trkpt lat="47.66036" lon="6.17944">
        <ele>230</ele>
        <time>2022-02-07T14:58:04Z</time>
      </trkpt>
      <trkpt lat="47.66031" lon="6.17944">
        <ele>230</ele>
        <time>2022-02-07T14:58:05Z</time>
      </trkpt>
      <trkpt lat="47.66026" lon="6.17944">
        <ele>230</ele>
        <time>2022-02-07T14:58:06Z</time>
      </trkpt>
      <trkpt lat="47.66022" lon="6.17944">
        <ele>230.2</ele>
        <time>2022-02-07T14:58:07Z</time>
      </trkpt>
      <trkpt lat="47.66017" lon="6.17945">
        <ele>230.4</ele>
        <time>2022-02-07T14:58:08Z</time>
      </trkpt>
      <trkpt lat="47.66009" lon="6.17945">
        <ele>230.7</ele>
        <time>2022-02-07T14:58:10Z</time>
      </trkpt>
      <trkpt lat="47.66001" lon="6.17945">
        <ele>231</ele>
        <time>2022-02-07T14:58:12Z</time>
      </trkpt>
      <trkpt lat="47.65995" lon="6.17944">
        <ele>231.1</ele>
        <time>2022-02-07T14:58:14Z</time>
      </trkpt>
      <trkpt lat="47.65988" lon="6.17944">
        <ele>231.3</ele>
        <time>2022-02-07T14:58:16Z</time>
      </trkpt>
      <trkpt lat="47.65981" lon="6.17943">
        <ele>231.5</ele>
        <time>2022-02-07T14:58:18Z</time>
      </trkpt>
      <trkpt lat="47.65977" lon="6.17938">
        <ele>231.1</ele>
        <time>2022-02-07T14:58:25Z</time>
      </trkpt>
      <trkpt lat="47.65967" lon="6.1794">
        <ele>231.5</ele>
        <time>2022-02-07T14:58:28Z</time>
      </trkpt>
      <trkpt lat="47.65962" lon="6.17941">
        <ele>231.7</ele>
        <time>2022-02-07T14:58:29Z</time>
      </trkpt>
      <trkpt lat="47.65955" lon="6.17942">
        <ele>231.8</ele>
        <time>2022-02-07T14:58:31Z</time>
      </trkpt>
      <trkpt lat="47.65945" lon="6.17941">
        <ele>231.8</ele>
        <time>2022-02-07T14:58:35Z</time>
      </trkpt>
      <trkpt lat="47.65936" lon="6.17942">
        <ele>232.5</ele>
        <time>2022-02-07T14:58:38Z</time>
      </trkpt>
      <trkpt lat="47.65931" lon="6.17943">
        <ele>232.9</ele>
        <time>2022-02-07T14:58:40Z</time>
      </trkpt>
      <trkpt lat="47.65926" lon="6.17944">
        <ele>233.3</ele>
        <time>2022-02-07T14:58:42Z</time>
      </trkpt>
      <trkpt lat="47.65919" lon="6.17944">
        <ele>233.8</ele>
        <time>2022-02-07T14:58:45Z</time>
      </trkpt>
      <trkpt lat="47.65914" lon="6.17944">
        <ele>233.9</ele>
        <time>2022-02-07T14:58:48Z</time>
      </trkpt>
      <trkpt lat="47.65899" lon="6.17943">
        <ele>233.9</ele>
        <time>2022-02-07T14:58:49Z</time>
      </trkpt>
      <trkpt lat="47.65894" lon="6.17949">
        <ele>234.3</ele>
        <time>2022-02-07T14:58:52Z</time>
      </trkpt>
      <trkpt lat="47.65889" lon="6.1795">
        <ele>234.4</ele>
        <time>2022-02-07T14:58:54Z</time>
      </trkpt>
      <trkpt lat="47.65884" lon="6.17951">
        <ele>234.5</ele>
        <time>2022-02-07T14:58:56Z</time>
      </trkpt>
      <trkpt lat="47.65879" lon="6.17953">
        <ele>234.7</ele>
        <time>2022-02-07T14:59:03Z</time>
      </trkpt>
      <trkpt lat="47.65874" lon="6.17954">
        <ele>234.9</ele>
        <time>2022-02-07T14:59:05Z</time>
      </trkpt>
      <trkpt lat="47.65857" lon="6.17962">
        <ele>235.9</ele>
        <time>2022-02-07T14:59:06Z</time>
      </trkpt>
      <trkpt lat="47.65853" lon="6.17964">
        <ele>236.1</ele>
        <time>2022-02-07T14:59:13Z</time>
      </trkpt>
      <trkpt lat="47.65848" lon="6.17967">
        <ele>236.4</ele>
        <time>2022-02-07T14:59:16Z</time>
      </trkpt>
      <trkpt lat="47.65833" lon="6.17979">
        <ele>237.7</ele>
        <time>2022-02-07T14:59:18Z</time>
      </trkpt>
      <trkpt lat="47.65827" lon="6.17983">
        <ele>238</ele>
        <time>2022-02-07T14:59:21Z</time>
      </trkpt>
      <trkpt lat="47.65822" lon="6.17987">
        <ele>238.2</ele>
        <time>2022-02-07T14:59:29Z</time>
      </trkpt>
      <trkpt lat="47.65808" lon="6.17997">
        <ele>238.8</ele>
        <time>2022-02-07T14:59:30Z</time>
      </trkpt>
      <trkpt lat="47.65803" lon="6.18001">
        <ele>239</ele>
        <time>2022-02-07T14:59:38Z</time>
      </trkpt>
      <trkpt lat="47.6579" lon="6.18013">
        <ele>239.5</ele>
        <time>2022-02-07T14:59:45Z</time>
      </trkpt>
      <trkpt lat="47.6578" lon="6.18022">
        <ele>239.7</ele>
        <time>2022-02-07T14:59:49Z</time>
      </trkpt>
      <trkpt lat="47.65776" lon="6.18025">
        <ele>239.4</ele>
        <time>2022-02-07T14:59:51Z</time>
      </trkpt>
      <trkpt lat="47.65771" lon="6.18026">
        <ele>238.9</ele>
        <time>2022-02-07T14:59:52Z</time>
      </trkpt>
      <trkpt lat="47.65757" lon="6.18033">
        <ele>237.8</ele>
        <time>2022-02-07T14:59:56Z</time>
      </trkpt>
      <trkpt lat="47.65752" lon="6.18036">
        <ele>237.5</ele>
        <time>2022-02-07T14:59:57Z</time>
      </trkpt>
      <trkpt lat="47.65746" lon="6.18041">
        <ele>237.3</ele>
        <time>2022-02-07T14:59:58Z</time>
      </trkpt>
      <trkpt lat="47.65741" lon="6.18044">
        <ele>237.1</ele>
        <time>2022-02-07T14:59:59Z</time>
      </trkpt>
      <trkpt lat="47.65735" lon="6.18049">
        <ele>236.6</ele>
        <time>2022-02-07T15:00:00Z</time>
      </trkpt>
      <trkpt lat="47.65696" lon="6.18097">
        <ele>234.7</ele>
        <time>2022-02-07T15:00:01Z</time>
      </trkpt>
      <trkpt lat="47.65692" lon="6.18106">
        <ele>234.5</ele>
        <time>2022-02-07T15:00:02Z</time>
      </trkpt>
      <trkpt lat="47.65688" lon="6.18115">
        <ele>234.6</ele>
        <time>2022-02-07T15:00:03Z</time>
      </trkpt>
      <trkpt lat="47.65685" lon="6.18122">
        <ele>234.8</ele>
        <time>2022-02-07T15:00:04Z</time>
      </trkpt>
      <trkpt lat="47.65682" lon="6.18128">
        <ele>234.9</ele>
        <time>2022-02-07T15:00:05Z</time>
      </trkpt>
      <trkpt lat="47.65678" lon="6.18134">
        <ele>234.9</ele>
        <time>2022-02-07T15:00:06Z</time>
      </trkpt>
      <trkpt lat="47.65676" lon="6.18141">
        <ele>235.2</ele>
        <time>2022-02-07T15:00:13Z</time>
      </trkpt>
      <trkpt lat="47.6567" lon="6.18144">
        <ele>235</ele>
        <time>2022-02-07T15:00:15Z</time>
      </trkpt>
      <trkpt lat="47.65661" lon="6.18149">
        <ele>234.5</ele>
        <time>2022-02-07T15:00:17Z</time>
      </trkpt>
      <trkpt lat="47.65626" lon="6.18159">
        <ele>231.9</ele>
        <time>2022-02-07T15:00:18Z</time>
      </trkpt>
      <trkpt lat="47.65619" lon="6.1816">
        <ele>231.3</ele>
        <time>2022-02-07T15:00:19Z</time>
      </trkpt>
      <trkpt lat="47.65613" lon="6.18162">
        <ele>230.9</ele>
        <time>2022-02-07T15:00:20Z</time>
      </trkpt>
      <trkpt lat="47.65608" lon="6.18167">
        <ele>230.8</ele>
        <time>2022-02-07T15:00:21Z</time>
      </trkpt>
      <trkpt lat="47.65604" lon="6.18173">
        <ele>231.2</ele>
        <time>2022-02-07T15:00:22Z</time>
      </trkpt>
      <trkpt lat="47.656" lon="6.18179">
        <ele>231.8</ele>
        <time>2022-02-07T15:00:23Z</time>
      </trkpt>
      <trkpt lat="47.65593" lon="6.18186">
        <ele>232.2</ele>
        <time>2022-02-07T15:00:25Z</time>
      </trkpt>
      <trkpt lat="47.65588" lon="6.18195">
        <ele>233.2</ele>
        <time>2022-02-07T15:00:27Z</time>
      </trkpt>
      <trkpt lat="47.65585" lon="6.182">
        <ele>233.3</ele>
        <time>2022-02-07T15:00:34Z</time>
      </trkpt>
      <trkpt lat="47.65581" lon="6.18206">
        <ele>233.2</ele>
        <time>2022-02-07T15:00:36Z</time>
      </trkpt>
      <trkpt lat="47.65574" lon="6.18212">
        <ele>233.1</ele>
        <time>2022-02-07T15:00:38Z</time>
      </trkpt>
      <trkpt lat="47.6557" lon="6.18216">
        <ele>233.1</ele>
        <time>2022-02-07T15:00:40Z</time>
      </trkpt>
      <trkpt lat="47.65564" lon="6.18225">
        <ele>233.5</ele>
        <time>2022-02-07T15:00:42Z</time>
      </trkpt>
      <trkpt lat="47.65557" lon="6.18229">
        <ele>233.6</ele>
        <time>2022-02-07T15:00:44Z</time>
      </trkpt>
      <trkpt lat="47.65552" lon="6.18231">
        <ele>233.2</ele>
        <time>2022-02-07T15:00:45Z</time>
      </trkpt>
      <trkpt lat="47.65547" lon="6.18234">
        <ele>232.9</ele>
        <time>2022-02-07T15:00:46Z</time>
      </trkpt>
      <trkpt lat="47.65518" lon="6.18249">
        <ele>232.1</ele>
        <time>2022-02-07T15:00:47Z</time>
      </trkpt>
      <trkpt lat="47.65512" lon="6.18252">
        <ele>232</ele>
        <time>2022-02-07T15:00:48Z</time>
      </trkpt>
      <trkpt lat="47.65506" lon="6.18254">
        <ele>231.9</ele>
        <time>2022-02-07T15:00:49Z</time>
      </trkpt>
      <trkpt lat="47.655" lon="6.18257">
        <ele>231.7</ele>
        <time>2022-02-07T15:00:50Z</time>
      </trkpt>
      <trkpt lat="47.65495" lon="6.18259">
        <ele>231.4</ele>
        <time>2022-02-07T15:00:51Z</time>
      </trkpt>
      <trkpt lat="47.65489" lon="6.1826">
        <ele>230.9</ele>
        <time>2022-02-07T15:00:52Z</time>
      </trkpt>
      <trkpt lat="47.65482" lon="6.1826">
        <ele>230.4</ele>
        <time>2022-02-07T15:00:53Z</time>
      </trkpt>
      <trkpt lat="47.65476" lon="6.1826">
        <ele>229.7</ele>
        <time>2022-02-07T15:00:54Z</time>
      </trkpt>
      <trkpt lat="47.65469" lon="6.18259">
        <ele>229.2</ele>
        <time>2022-02-07T15:00:55Z</time>
      </trkpt>
      <trkpt lat="47.65462" lon="6.18259">
        <ele>228.9</ele>
        <time>2022-02-07T15:00:56Z</time>
      </trkpt>
      <trkpt lat="47.65455" lon="6.18258">
        <ele>228.5</ele>
        <time>2022-02-07T15:00:57Z</time>
      </trkpt>
      <trkpt lat="47.65447" lon="6.18256">
        <ele>227.9</ele>
        <time>2022-02-07T15:00:58Z</time>
      </trkpt>
      <trkpt lat="47.6544" lon="6.18253">
        <ele>227.4</ele>
        <time>2022-02-07T15:00:59Z</time>
      </trkpt>
      <trkpt lat="47.65432" lon="6.1825">
        <ele>227</ele>
        <time>2022-02-07T15:01:00Z</time>
      </trkpt>
      <trkpt lat="47.65424" lon="6.18246">
        <ele>226.7</ele>
        <time>2022-02-07T15:01:01Z</time>
      </trkpt>
      <trkpt lat="47.65416" lon="6.18242">
        <ele>226.5</ele>
        <time>2022-02-07T15:01:02Z</time>
      </trkpt>
      <trkpt lat="47.65409" lon="6.18237">
        <ele>226.4</ele>
        <time>2022-02-07T15:01:03Z</time>
      </trkpt>
      <trkpt lat="47.65402" lon="6.18232">
        <ele>226.1</ele>
        <time>2022-02-07T15:01:04Z</time>
      </trkpt>
      <trkpt lat="47.65395" lon="6.18227">
        <ele>225.6</ele>
        <time>2022-02-07T15:01:05Z</time>
      </trkpt>
      <trkpt lat="47.65389" lon="6.18221">
        <ele>225</ele>
        <time>2022-02-07T15:01:06Z</time>
      </trkpt>
      <trkpt lat="47.65383" lon="6.18216">
        <ele>225.3</ele>
        <time>2022-02-07T15:01:07Z</time>
      </trkpt>
      <trkpt lat="47.65377" lon="6.1821">
        <ele>225.5</ele>
        <time>2022-02-07T15:01:08Z</time>
      </trkpt>
      <trkpt lat="47.65372" lon="6.18204">
        <ele>225.4</ele>
        <time>2022-02-07T15:01:09Z</time>
      </trkpt>
      <trkpt lat="47.65366" lon="6.18199">
        <ele>225.3</ele>
        <time>2022-02-07T15:01:10Z</time>
      </trkpt>
      <trkpt lat="47.65361" lon="6.18193">
        <ele>225</ele>
        <time>2022-02-07T15:01:11Z</time>
      </trkpt>
      <trkpt lat="47.65357" lon="6.18188">
        <ele>225.1</ele>
        <time>2022-02-07T15:01:12Z</time>
      </trkpt>
      <trkpt lat="47.65351" lon="6.18184">
        <ele>225.2</ele>
        <time>2022-02-07T15:01:13Z</time>
      </trkpt>
      <trkpt lat="47.65345" lon="6.18179">
        <ele>225.3</ele>
        <time>2022-02-07T15:01:14Z</time>
      </trkpt>
      <trkpt lat="47.6534" lon="6.18174">
        <ele>225.2</ele>
        <time>2022-02-07T15:01:15Z</time>
      </trkpt>
      <trkpt lat="47.65335" lon="6.18169">
        <ele>225.1</ele>
        <time>2022-02-07T15:01:16Z</time>
      </trkpt>
      <trkpt lat="47.65331" lon="6.18163">
        <ele>225.1</ele>
        <time>2022-02-07T15:01:17Z</time>
      </trkpt>
      <trkpt lat="47.65327" lon="6.18158">
        <ele>225.4</ele>
        <time>2022-02-07T15:01:18Z</time>
      </trkpt>
      <trkpt lat="47.65324" lon="6.18151">
        <ele>225.5</ele>
        <time>2022-02-07T15:01:19Z</time>
      </trkpt>
      <trkpt lat="47.65321" lon="6.18145">
        <ele>225.5</ele>
        <time>2022-02-07T15:01:20Z</time>
      </trkpt>
      <trkpt lat="47.65318" lon="6.18138">
        <ele>225.5</ele>
        <time>2022-02-07T15:01:21Z</time>
      </trkpt>
      <trkpt lat="47.65315" lon="6.18132">
        <ele>225.4</ele>
        <time>2022-02-07T15:01:22Z</time>
      </trkpt>
      <trkpt lat="47.65313" lon="6.18125">
        <ele>225.2</ele>
        <time>2022-02-07T15:01:23Z</time>
      </trkpt>
      <trkpt lat="47.6531" lon="6.18117">
        <ele>225.1</ele>
        <time>2022-02-07T15:01:24Z</time>
      </trkpt>
      <trkpt lat="47.65309" lon="6.1811">
        <ele>224.9</ele>
        <time>2022-02-07T15:01:25Z</time>
      </trkpt>
      <trkpt lat="47.65307" lon="6.18103">
        <ele>224.9</ele>
        <time>2022-02-07T15:01:26Z</time>
      </trkpt>
      <trkpt lat="47.65306" lon="6.18096">
        <ele>225</ele>
        <time>2022-02-07T15:01:27Z</time>
      </trkpt>
      <trkpt lat="47.65304" lon="6.18085">
        <ele>225.2</ele>
        <time>2022-02-07T15:01:29Z</time>
      </trkpt>
      <trkpt lat="47.65303" lon="6.18078">
        <ele>225.3</ele>
        <time>2022-02-07T15:01:30Z</time>
      </trkpt>
      <trkpt lat="47.65301" lon="6.18066">
        <ele>225.4</ele>
        <time>2022-02-07T15:01:32Z</time>
      </trkpt>
      <trkpt lat="47.653" lon="6.18058">
        <ele>225.4</ele>
        <time>2022-02-07T15:01:33Z</time>
      </trkpt>
      <trkpt lat="47.65304" lon="6.1805">
        <ele>225.1</ele>
        <time>2022-02-07T15:01:41Z</time>
      </trkpt>
      <trkpt lat="47.65296" lon="6.18027">
        <ele>225.3</ele>
        <time>2022-02-07T15:01:45Z</time>
      </trkpt>
      <trkpt lat="47.65292" lon="6.18018">
        <ele>225.3</ele>
        <time>2022-02-07T15:01:46Z</time>
      </trkpt>
      <trkpt lat="47.65288" lon="6.18008">
        <ele>225.4</ele>
        <time>2022-02-07T15:01:48Z</time>
      </trkpt>
      <trkpt lat="47.65285" lon="6.18002">
        <ele>225.5</ele>
        <time>2022-02-07T15:01:49Z</time>
      </trkpt>
      <trkpt lat="47.65276" lon="6.17991">
        <ele>225.4</ele>
        <time>2022-02-07T15:01:52Z</time>
      </trkpt>
      <trkpt lat="47.65272" lon="6.17986">
        <ele>225.3</ele>
        <time>2022-02-07T15:01:53Z</time>
      </trkpt>
      <trkpt lat="47.65262" lon="6.17978">
        <ele>225.4</ele>
        <time>2022-02-07T15:01:56Z</time>
      </trkpt>
      <trkpt lat="47.65258" lon="6.17975">
        <ele>225.6</ele>
        <time>2022-02-07T15:01:57Z</time>
      </trkpt>
      <trkpt lat="47.65251" lon="6.17972">
        <ele>225.9</ele>
        <time>2022-02-07T15:01:59Z</time>
      </trkpt>
      <trkpt lat="47.65246" lon="6.1797">
        <ele>225.8</ele>
        <time>2022-02-07T15:02:00Z</time>
      </trkpt>
      <trkpt lat="47.65241" lon="6.1797">
        <ele>225.8</ele>
        <time>2022-02-07T15:02:01Z</time>
      </trkpt>
      <trkpt lat="47.65235" lon="6.1797">
        <ele>225.8</ele>
        <time>2022-02-07T15:02:03Z</time>
      </trkpt>
      <trkpt lat="47.6523" lon="6.17973">
        <ele>226</ele>
        <time>2022-02-07T15:02:05Z</time>
      </trkpt>
      <trkpt lat="47.65226" lon="6.17975">
        <ele>226.1</ele>
        <time>2022-02-07T15:02:06Z</time>
      </trkpt>
      <trkpt lat="47.65221" lon="6.17978">
        <ele>226.1</ele>
        <time>2022-02-07T15:02:07Z</time>
      </trkpt>
      <trkpt lat="47.65216" lon="6.17982">
        <ele>225.9</ele>
        <time>2022-02-07T15:02:08Z</time>
      </trkpt>
      <trkpt lat="47.65211" lon="6.17988">
        <ele>225.7</ele>
        <time>2022-02-07T15:02:10Z</time>
      </trkpt>
      <trkpt lat="47.65202" lon="6.18001">
        <ele>225.6</ele>
        <time>2022-02-07T15:02:13Z</time>
      </trkpt>
      <trkpt lat="47.65192" lon="6.18012">
        <ele>225.3</ele>
        <time>2022-02-07T15:02:16Z</time>
      </trkpt>
      <trkpt lat="47.65188" lon="6.18018">
        <ele>225.3</ele>
        <time>2022-02-07T15:02:18Z</time>
      </trkpt>
      <trkpt lat="47.6517" lon="6.18047">
        <ele>225.1</ele>
        <time>2022-02-07T15:02:23Z</time>
      </trkpt>
      <trkpt lat="47.65141" lon="6.1808">
        <ele>224.2</ele>
        <time>2022-02-07T15:02:24Z</time>
      </trkpt>
      <trkpt lat="47.65137" lon="6.18085">
        <ele>224.2</ele>
        <time>2022-02-07T15:02:25Z</time>
      </trkpt>
      <trkpt lat="47.65131" lon="6.18089">
        <ele>224.8</ele>
        <time>2022-02-07T15:02:26Z</time>
      </trkpt>
      <trkpt lat="47.65126" lon="6.18092">
        <ele>225.1</ele>
        <time>2022-02-07T15:02:27Z</time>
      </trkpt>
      <trkpt lat="47.6512" lon="6.18094">
        <ele>225.2</ele>
        <time>2022-02-07T15:02:28Z</time>
      </trkpt>
      <trkpt lat="47.65115" lon="6.18097">
        <ele>225.2</ele>
        <time>2022-02-07T15:02:29Z</time>
      </trkpt>
      <trkpt lat="47.6511" lon="6.18099">
        <ele>225.1</ele>
        <time>2022-02-07T15:02:30Z</time>
      </trkpt>
      <trkpt lat="47.65106" lon="6.18101">
        <ele>225.1</ele>
        <time>2022-02-07T15:02:31Z</time>
      </trkpt>
      <trkpt lat="47.65101" lon="6.18102">
        <ele>225.1</ele>
        <time>2022-02-07T15:02:32Z</time>
      </trkpt>
      <trkpt lat="47.65093" lon="6.18103">
        <ele>224.9</ele>
        <time>2022-02-07T15:02:34Z</time>
      </trkpt>
      <trkpt lat="47.65089" lon="6.18102">
        <ele>224.8</ele>
        <time>2022-02-07T15:02:35Z</time>
      </trkpt>
      <trkpt lat="47.65084" lon="6.18101">
        <ele>224.7</ele>
        <time>2022-02-07T15:02:36Z</time>
      </trkpt>
      <trkpt lat="47.65076" lon="6.18099">
        <ele>225</ele>
        <time>2022-02-07T15:02:38Z</time>
      </trkpt>
      <trkpt lat="47.6507" lon="6.18095">
        <ele>225</ele>
        <time>2022-02-07T15:02:46Z</time>
      </trkpt>
      <trkpt lat="47.65057" lon="6.18093">
        <ele>225.3</ele>
        <time>2022-02-07T15:02:49Z</time>
      </trkpt>
      <trkpt lat="47.65052" lon="6.18093">
        <ele>225.4</ele>
        <time>2022-02-07T15:02:50Z</time>
      </trkpt>
      <trkpt lat="47.65025" lon="6.18095">
        <ele>225.3</ele>
        <time>2022-02-07T15:02:56Z</time>
      </trkpt>
      <trkpt lat="47.65019" lon="6.18096">
        <ele>225.7</ele>
        <time>2022-02-07T15:02:57Z</time>
      </trkpt>
      <trkpt lat="47.65014" lon="6.18097">
        <ele>225.9</ele>
        <time>2022-02-07T15:02:58Z</time>
      </trkpt>
      <trkpt lat="47.65009" lon="6.18097">
        <ele>226.2</ele>
        <time>2022-02-07T15:02:59Z</time>
      </trkpt>
      <trkpt lat="47.65003" lon="6.18098">
        <ele>226.5</ele>
        <time>2022-02-07T15:03:00Z</time>
      </trkpt>
      <trkpt lat="47.64995" lon="6.18098">
        <ele>226.7</ele>
        <time>2022-02-07T15:03:02Z</time>
      </trkpt>
      <trkpt lat="47.6499" lon="6.18099">
        <ele>226.7</ele>
        <time>2022-02-07T15:03:03Z</time>
      </trkpt>
      <trkpt lat="47.64984" lon="6.18101">
        <ele>226.9</ele>
        <time>2022-02-07T15:03:05Z</time>
      </trkpt>
      <trkpt lat="47.6498" lon="6.18102">
        <ele>227</ele>
        <time>2022-02-07T15:03:06Z</time>
      </trkpt>
      <trkpt lat="47.64973" lon="6.18103">
        <ele>227.2</ele>
        <time>2022-02-07T15:03:07Z</time>
      </trkpt>
      <trkpt lat="47.64968" lon="6.18104">
        <ele>227.2</ele>
        <time>2022-02-07T15:03:08Z</time>
      </trkpt>
      <trkpt lat="47.64959" lon="6.18104">
        <ele>226.7</ele>
        <time>2022-02-07T15:03:10Z</time>
      </trkpt>
      <trkpt lat="47.64954" lon="6.18102">
        <ele>226.2</ele>
        <time>2022-02-07T15:03:12Z</time>
      </trkpt>
      <trkpt lat="47.6494" lon="6.181">
        <ele>225.3</ele>
        <time>2022-02-07T15:03:15Z</time>
      </trkpt>
      <trkpt lat="47.64934" lon="6.18098">
        <ele>225.1</ele>
        <time>2022-02-07T15:03:17Z</time>
      </trkpt>
      <trkpt lat="47.64921" lon="6.18094">
        <ele>224.6</ele>
        <time>2022-02-07T15:03:20Z</time>
      </trkpt>
      <trkpt lat="47.64916" lon="6.18093">
        <ele>224.4</ele>
        <time>2022-02-07T15:03:21Z</time>
      </trkpt>
      <trkpt lat="47.6491" lon="6.18092">
        <ele>224.3</ele>
        <time>2022-02-07T15:03:23Z</time>
      </trkpt>
      <trkpt lat="47.64905" lon="6.18089">
        <ele>224.1</ele>
        <time>2022-02-07T15:03:24Z</time>
      </trkpt>
      <trkpt lat="47.64897" lon="6.18086">
        <ele>224</ele>
        <time>2022-02-07T15:03:26Z</time>
      </trkpt>
      <trkpt lat="47.64892" lon="6.18085">
        <ele>224</ele>
        <time>2022-02-07T15:03:27Z</time>
      </trkpt>
      <trkpt lat="47.64882" lon="6.18082">
        <ele>224.2</ele>
        <time>2022-02-07T15:03:30Z</time>
      </trkpt>
      <trkpt lat="47.64876" lon="6.18081">
        <ele>224.4</ele>
        <time>2022-02-07T15:03:31Z</time>
      </trkpt>
      <trkpt lat="47.64872" lon="6.1808">
        <ele>224.5</ele>
        <time>2022-02-07T15:03:32Z</time>
      </trkpt>
      <trkpt lat="47.64865" lon="6.18077">
        <ele>224.6</ele>
        <time>2022-02-07T15:03:34Z</time>
      </trkpt>
      <trkpt lat="47.6486" lon="6.18075">
        <ele>224.7</ele>
        <time>2022-02-07T15:03:35Z</time>
      </trkpt>
      <trkpt lat="47.64853" lon="6.18073">
        <ele>224.6</ele>
        <time>2022-02-07T15:03:37Z</time>
      </trkpt>
      <trkpt lat="47.64846" lon="6.18071">
        <ele>224.5</ele>
        <time>2022-02-07T15:03:39Z</time>
      </trkpt>
      <trkpt lat="47.64834" lon="6.18066">
        <ele>224.4</ele>
        <time>2022-02-07T15:03:42Z</time>
      </trkpt>
      <trkpt lat="47.64829" lon="6.18064">
        <ele>224.2</ele>
        <time>2022-02-07T15:03:43Z</time>
      </trkpt>
      <trkpt lat="47.64795" lon="6.18059">
        <ele>223.4</ele>
        <time>2022-02-07T15:03:44Z</time>
      </trkpt>
      <trkpt lat="47.6479" lon="6.18057">
        <ele>223.2</ele>
        <time>2022-02-07T15:03:45Z</time>
      </trkpt>
      <trkpt lat="47.64786" lon="6.18055">
        <ele>223</ele>
        <time>2022-02-07T15:03:46Z</time>
      </trkpt>
      <trkpt lat="47.64779" lon="6.1805">
        <ele>223</ele>
        <time>2022-02-07T15:03:53Z</time>
      </trkpt>
      <trkpt lat="47.64769" lon="6.1804">
        <ele>223.9</ele>
        <time>2022-02-07T15:03:56Z</time>
      </trkpt>
      <trkpt lat="47.64765" lon="6.18036">
        <ele>224</ele>
        <time>2022-02-07T15:03:57Z</time>
      </trkpt>
      <trkpt lat="47.64757" lon="6.18025">
        <ele>223.7</ele>
        <time>2022-02-07T15:04:00Z</time>
      </trkpt>
      <trkpt lat="47.64753" lon="6.18022">
        <ele>223.7</ele>
        <time>2022-02-07T15:04:01Z</time>
      </trkpt>
      <trkpt lat="47.64745" lon="6.18009">
        <ele>224</ele>
        <time>2022-02-07T15:04:04Z</time>
      </trkpt>
      <trkpt lat="47.64735" lon="6.17994">
        <ele>223.9</ele>
        <time>2022-02-07T15:04:08Z</time>
      </trkpt>
      <trkpt lat="47.64731" lon="6.17989">
        <ele>223.8</ele>
        <time>2022-02-07T15:04:09Z</time>
      </trkpt>
      <trkpt lat="47.64727" lon="6.17982">
        <ele>223.6</ele>
        <time>2022-02-07T15:04:11Z</time>
      </trkpt>
      <trkpt lat="47.64724" lon="6.17977">
        <ele>223.3</ele>
        <time>2022-02-07T15:04:12Z</time>
      </trkpt>
      <trkpt lat="47.64709" lon="6.17954">
        <ele>223.5</ele>
        <time>2022-02-07T15:04:17Z</time>
      </trkpt>
      <trkpt lat="47.64702" lon="6.17945">
        <ele>223</ele>
        <time>2022-02-07T15:04:19Z</time>
      </trkpt>
      <trkpt lat="47.64693" lon="6.17934">
        <ele>223.1</ele>
        <time>2022-02-07T15:04:22Z</time>
      </trkpt>
      <trkpt lat="47.64689" lon="6.17929">
        <ele>223.2</ele>
        <time>2022-02-07T15:04:23Z</time>
      </trkpt>
      <trkpt lat="47.64685" lon="6.17924">
        <ele>223.3</ele>
        <time>2022-02-07T15:04:24Z</time>
      </trkpt>
      <trkpt lat="47.6468" lon="6.17918">
        <ele>223.1</ele>
        <time>2022-02-07T15:04:26Z</time>
      </trkpt>
      <trkpt lat="47.64676" lon="6.17914">
        <ele>223</ele>
        <time>2022-02-07T15:04:27Z</time>
      </trkpt>
      <trkpt lat="47.64671" lon="6.1791">
        <ele>223</ele>
        <time>2022-02-07T15:04:28Z</time>
      </trkpt>
      <trkpt lat="47.64665" lon="6.17905">
        <ele>223</ele>
        <time>2022-02-07T15:04:30Z</time>
      </trkpt>
      <trkpt lat="47.64659" lon="6.17901">
        <ele>223.1</ele>
        <time>2022-02-07T15:04:31Z</time>
      </trkpt>
      <trkpt lat="47.64651" lon="6.17897">
        <ele>223.2</ele>
        <time>2022-02-07T15:04:33Z</time>
      </trkpt>
      <trkpt lat="47.64639" lon="6.17891">
        <ele>223.1</ele>
        <time>2022-02-07T15:04:36Z</time>
      </trkpt>
      <trkpt lat="47.64635" lon="6.17889">
        <ele>223</ele>
        <time>2022-02-07T15:04:37Z</time>
      </trkpt>
      <trkpt lat="47.64619" lon="6.17885">
        <ele>223</ele>
        <time>2022-02-07T15:04:40Z</time>
      </trkpt>
      <trkpt lat="47.64589" lon="6.179">
        <ele>222.9</ele>
        <time>2022-02-07T15:04:41Z</time>
      </trkpt>
      <trkpt lat="47.64583" lon="6.17904">
        <ele>223.1</ele>
        <time>2022-02-07T15:04:48Z</time>
      </trkpt>
      <trkpt lat="47.64579" lon="6.17907">
        <ele>223.1</ele>
        <time>2022-02-07T15:04:50Z</time>
      </trkpt>
      <trkpt lat="47.64575" lon="6.17916">
        <ele>223.3</ele>
        <time>2022-02-07T15:04:52Z</time>
      </trkpt>
      <trkpt lat="47.6457" lon="6.17923">
        <ele>223.5</ele>
        <time>2022-02-07T15:04:53Z</time>
      </trkpt>
      <trkpt lat="47.64564" lon="6.17932">
        <ele>224.1</ele>
        <time>2022-02-07T15:04:55Z</time>
      </trkpt>
      <trkpt lat="47.6456" lon="6.17941">
        <ele>224.9</ele>
        <time>2022-02-07T15:04:57Z</time>
      </trkpt>
      <trkpt lat="47.64559" lon="6.17949">
        <ele>225.4</ele>
        <time>2022-02-07T15:04:58Z</time>
      </trkpt>
      <trkpt lat="47.64555" lon="6.17969">
        <ele>225.8</ele>
        <time>2022-02-07T15:05:02Z</time>
      </trkpt>
      <trkpt lat="47.64552" lon="6.17979">
        <ele>226.1</ele>
        <time>2022-02-07T15:05:03Z</time>
      </trkpt>
      <trkpt lat="47.6455" lon="6.17985">
        <ele>226.4</ele>
        <time>2022-02-07T15:05:04Z</time>
      </trkpt>
      <trkpt lat="47.64545" lon="6.17998">
        <ele>226.7</ele>
        <time>2022-02-07T15:05:07Z</time>
      </trkpt>
      <trkpt lat="47.64539" lon="6.18012">
        <ele>226.4</ele>
        <time>2022-02-07T15:05:10Z</time>
      </trkpt>
      <trkpt lat="47.64536" lon="6.18019">
        <ele>226</ele>
        <time>2022-02-07T15:05:12Z</time>
      </trkpt>
      <trkpt lat="47.64533" lon="6.18025">
        <ele>225.7</ele>
        <time>2022-02-07T15:05:13Z</time>
      </trkpt>
      <trkpt lat="47.6453" lon="6.1803">
        <ele>225.4</ele>
        <time>2022-02-07T15:05:14Z</time>
      </trkpt>
      <trkpt lat="47.64518" lon="6.1804">
        <ele>224.7</ele>
        <time>2022-02-07T15:05:17Z</time>
      </trkpt>
      <trkpt lat="47.64512" lon="6.18042">
        <ele>224.3</ele>
        <time>2022-02-07T15:05:18Z</time>
      </trkpt>
      <trkpt lat="47.6447" lon="6.18026">
        <ele>223</ele>
        <time>2022-02-07T15:05:19Z</time>
      </trkpt>
      <trkpt lat="47.64465" lon="6.18021">
        <ele>223</ele>
        <time>2022-02-07T15:05:20Z</time>
      </trkpt>
      <trkpt lat="47.64461" lon="6.18016">
        <ele>223</ele>
        <time>2022-02-07T15:05:20Z</time>
      </trkpt>
      <trkpt lat="47.64456" lon="6.18009">
        <ele>223</ele>
        <time>2022-02-07T15:05:21Z</time>
      </trkpt>
      <trkpt lat="47.64453" lon="6.18003">
        <ele>223</ele>
        <time>2022-02-07T15:05:22Z</time>
      </trkpt>
      <trkpt lat="47.6445" lon="6.17997">
        <ele>222.9</ele>
        <time>2022-02-07T15:05:23Z</time>
      </trkpt>
      <trkpt lat="47.64446" lon="6.17986">
        <ele>222.5</ele>
        <time>2022-02-07T15:05:25Z</time>
      </trkpt>
      <trkpt lat="47.64442" lon="6.1799">
        <ele>222.6</ele>
        <time>2022-02-07T15:05:28Z</time>
      </trkpt>
      <trkpt lat="47.64446" lon="6.17995">
        <ele>222.8</ele>
        <time>2022-02-07T15:05:30Z</time>
      </trkpt>
      <trkpt lat="47.64449" lon="6.17999">
        <ele>223</ele>
        <time>2022-02-07T15:05:32Z</time>
      </trkpt>
      <trkpt lat="47.64451" lon="6.18007">
        <ele>223</ele>
        <time>2022-02-07T15:05:41Z</time>
      </trkpt>
      <trkpt lat="47.64455" lon="6.18013">
        <ele>223</ele>
        <time>2022-02-07T15:05:42Z</time>
      </trkpt>
      <trkpt lat="47.64459" lon="6.18017">
        <ele>223</ele>
        <time>2022-02-07T15:05:44Z</time>
      </trkpt>
      <trkpt lat="47.64479" lon="6.1804">
        <ele>223.1</ele>
        <time>2022-02-07T15:05:52Z</time>
      </trkpt>
      <trkpt lat="47.64483" lon="6.18044">
        <ele>223.2</ele>
        <time>2022-02-07T15:05:54Z</time>
      </trkpt>
      <trkpt lat="47.64488" lon="6.18048">
        <ele>223.4</ele>
        <time>2022-02-07T15:05:56Z</time>
      </trkpt>
      <trkpt lat="47.64493" lon="6.1805">
        <ele>223.6</ele>
        <time>2022-02-07T15:05:58Z</time>
      </trkpt>
      <trkpt lat="47.64505" lon="6.18054">
        <ele>224.3</ele>
        <time>2022-02-07T15:06:02Z</time>
      </trkpt>
      <trkpt lat="47.6451" lon="6.18056">
        <ele>224.7</ele>
        <time>2022-02-07T15:06:04Z</time>
      </trkpt>
      <trkpt lat="47.64512" lon="6.18073">
        <ele>224.7</ele>
        <time>2022-02-07T15:06:09Z</time>
      </trkpt>
      <trkpt lat="47.64507" lon="6.18089">
        <ele>224</ele>
        <time>2022-02-07T15:06:13Z</time>
      </trkpt>
      <trkpt lat="47.64504" lon="6.18098">
        <ele>223.6</ele>
        <time>2022-02-07T15:06:15Z</time>
      </trkpt>
      <trkpt lat="47.64501" lon="6.1811">
        <ele>223.2</ele>
        <time>2022-02-07T15:06:17Z</time>
      </trkpt>
      <trkpt lat="47.64497" lon="6.18158">
        <ele>222.9</ele>
        <time>2022-02-07T15:06:18Z</time>
      </trkpt>
      <trkpt lat="47.64499" lon="6.18169">
        <ele>223</ele>
        <time>2022-02-07T15:06:20Z</time>
      </trkpt>
      <trkpt lat="47.64501" lon="6.18179">
        <ele>223.6</ele>
        <time>2022-02-07T15:06:22Z</time>
      </trkpt>
      <trkpt lat="47.64501" lon="6.1819">
        <ele>224.1</ele>
        <time>2022-02-07T15:06:24Z</time>
      </trkpt>
      <trkpt lat="47.64499" lon="6.18197">
        <ele>224.1</ele>
        <time>2022-02-07T15:06:26Z</time>
      </trkpt>
      <trkpt lat="47.64496" lon="6.18205">
        <ele>224.4</ele>
        <time>2022-02-07T15:06:28Z</time>
      </trkpt>
      <trkpt lat="47.64494" lon="6.18213">
        <ele>224.8</ele>
        <time>2022-02-07T15:06:30Z</time>
      </trkpt>
      <trkpt lat="47.64492" lon="6.1822">
        <ele>225</ele>
        <time>2022-02-07T15:06:38Z</time>
      </trkpt>
      <trkpt lat="47.64489" lon="6.18227">
        <ele>225.2</ele>
        <time>2022-02-07T15:06:40Z</time>
      </trkpt>
      <trkpt lat="47.64486" lon="6.18234">
        <ele>225.1</ele>
        <time>2022-02-07T15:06:42Z</time>
      </trkpt>
      <trkpt lat="47.64483" lon="6.18239">
        <ele>224.9</ele>
        <time>2022-02-07T15:06:43Z</time>
      </trkpt>
      <trkpt lat="47.64475" lon="6.18252">
        <ele>223.8</ele>
        <time>2022-02-07T15:06:46Z</time>
      </trkpt>
      <trkpt lat="47.64472" lon="6.18258">
        <ele>223.6</ele>
        <time>2022-02-07T15:06:47Z</time>
      </trkpt>
      <trkpt lat="47.64459" lon="6.18279">
        <ele>224.1</ele>
        <time>2022-02-07T15:06:47Z</time>
      </trkpt>
      <trkpt lat="47.64454" lon="6.18283">
        <ele>224</ele>
        <time>2022-02-07T15:06:49Z</time>
      </trkpt>
      <trkpt lat="47.64451" lon="6.18287">
        <ele>223.9</ele>
        <time>2022-02-07T15:06:57Z</time>
      </trkpt>
      <trkpt lat="47.64447" lon="6.18292">
        <ele>223.8</ele>
        <time>2022-02-07T15:06:59Z</time>
      </trkpt>
      <trkpt lat="47.64442" lon="6.18298">
        <ele>223.6</ele>
        <time>2022-02-07T15:07:01Z</time>
      </trkpt>
      <trkpt lat="47.64439" lon="6.18302">
        <ele>223.7</ele>
        <time>2022-02-07T15:07:02Z</time>
      </trkpt>
      <trkpt lat="47.64427" lon="6.18313">
        <ele>223.8</ele>
        <time>2022-02-07T15:07:06Z</time>
      </trkpt>
      <trkpt lat="47.64418" lon="6.1832">
        <ele>223.6</ele>
        <time>2022-02-07T15:07:09Z</time>
      </trkpt>
      <trkpt lat="47.64414" lon="6.18324">
        <ele>223.6</ele>
        <time>2022-02-07T15:07:10Z</time>
      </trkpt>
      <trkpt lat="47.64408" lon="6.18331">
        <ele>223.6</ele>
        <time>2022-02-07T15:07:12Z</time>
      </trkpt>
      <trkpt lat="47.64398" lon="6.18344">
        <ele>223.8</ele>
        <time>2022-02-07T15:07:16Z</time>
      </trkpt>
      <trkpt lat="47.64394" lon="6.18349">
        <ele>223.9</ele>
        <time>2022-02-07T15:07:17Z</time>
      </trkpt>
      <trkpt lat="47.6439" lon="6.18354">
        <ele>223.8</ele>
        <time>2022-02-07T15:07:18Z</time>
      </trkpt>
      <trkpt lat="47.64386" lon="6.18358">
        <ele>223.8</ele>
        <time>2022-02-07T15:07:20Z</time>
      </trkpt>
      <trkpt lat="47.64381" lon="6.18362">
        <ele>223.8</ele>
        <time>2022-02-07T15:07:22Z</time>
      </trkpt>
      <trkpt lat="47.64375" lon="6.18366">
        <ele>223.8</ele>
        <time>2022-02-07T15:07:24Z</time>
      </trkpt>
      <trkpt lat="47.6437" lon="6.18368">
        <ele>223.7</ele>
        <time>2022-02-07T15:07:26Z</time>
      </trkpt>
      <trkpt lat="47.6436" lon="6.18377">
        <ele>223.5</ele>
        <time>2022-02-07T15:07:30Z</time>
      </trkpt>
      <trkpt lat="47.64356" lon="6.18382">
        <ele>223.6</ele>
        <time>2022-02-07T15:07:32Z</time>
      </trkpt>
      <trkpt lat="47.64351" lon="6.18394">
        <ele>224</ele>
        <time>2022-02-07T15:07:35Z</time>
      </trkpt>
      <trkpt lat="47.64348" lon="6.18402">
        <ele>224.3</ele>
        <time>2022-02-07T15:07:37Z</time>
      </trkpt>
      <trkpt lat="47.64345" lon="6.1841">
        <ele>224.5</ele>
        <time>2022-02-07T15:07:39Z</time>
      </trkpt>
      <trkpt lat="47.64343" lon="6.18415">
        <ele>224.6</ele>
        <time>2022-02-07T15:07:41Z</time>
      </trkpt>
      <trkpt lat="47.6434" lon="6.18421">
        <ele>224.5</ele>
        <time>2022-02-07T15:07:43Z</time>
      </trkpt>
      <trkpt lat="47.64332" lon="6.18435">
        <ele>224</ele>
        <time>2022-02-07T15:07:47Z</time>
      </trkpt>
      <trkpt lat="47.64328" lon="6.18442">
        <ele>223.8</ele>
        <time>2022-02-07T15:07:49Z</time>
      </trkpt>
      <trkpt lat="47.64319" lon="6.18466">
        <ele>223.8</ele>
        <time>2022-02-07T15:07:55Z</time>
      </trkpt>
      <trkpt lat="47.64316" lon="6.18473">
        <ele>223.8</ele>
        <time>2022-02-07T15:07:57Z</time>
      </trkpt>
      <trkpt lat="47.64312" lon="6.18488">
        <ele>223.5</ele>
        <time>2022-02-07T15:08:00Z</time>
      </trkpt>
      <trkpt lat="47.64314" lon="6.18504">
        <ele>223.6</ele>
        <time>2022-02-07T15:08:03Z</time>
      </trkpt>
      <trkpt lat="47.64317" lon="6.18511">
        <ele>223.8</ele>
        <time>2022-02-07T15:08:04Z</time>
      </trkpt>
      <trkpt lat="47.6432" lon="6.1852">
        <ele>224.1</ele>
        <time>2022-02-07T15:08:06Z</time>
      </trkpt>
      <trkpt lat="47.64323" lon="6.18527">
        <ele>224.3</ele>
        <time>2022-02-07T15:08:08Z</time>
      </trkpt>
      <trkpt lat="47.64326" lon="6.18533">
        <ele>224.4</ele>
        <time>2022-02-07T15:08:09Z</time>
      </trkpt>
      <trkpt lat="47.6433" lon="6.18538">
        <ele>224.5</ele>
        <time>2022-02-07T15:08:11Z</time>
      </trkpt>
      <trkpt lat="47.64335" lon="6.18541">
        <ele>224.6</ele>
        <time>2022-02-07T15:08:13Z</time>
      </trkpt>
      <trkpt lat="47.6434" lon="6.18544">
        <ele>224.8</ele>
        <time>2022-02-07T15:08:16Z</time>
      </trkpt>
      <trkpt lat="47.64341" lon="6.18542">
        <ele>224.9</ele>
        <time>2022-02-07T15:09:01Z</time>
      </trkpt>
      <trkpt lat="47.64326" lon="6.18526">
        <ele>224.4</ele>
        <time>2022-02-07T15:09:06Z</time>
      </trkpt>
      <trkpt lat="47.6432" lon="6.18516">
        <ele>224</ele>
        <time>2022-02-07T15:09:08Z</time>
      </trkpt>
      <trkpt lat="47.64316" lon="6.18509">
        <ele>223.8</ele>
        <time>2022-02-07T15:09:09Z</time>
      </trkpt>
      <trkpt lat="47.64314" lon="6.185">
        <ele>223.6</ele>
        <time>2022-02-07T15:09:11Z</time>
      </trkpt>
      <trkpt lat="47.64316" lon="6.18483">
        <ele>223.7</ele>
        <time>2022-02-07T15:09:14Z</time>
      </trkpt>
      <trkpt lat="47.64317" lon="6.18476">
        <ele>223.8</ele>
        <time>2022-02-07T15:09:16Z</time>
      </trkpt>
      <trkpt lat="47.64322" lon="6.18461">
        <ele>223.9</ele>
        <time>2022-02-07T15:09:21Z</time>
      </trkpt>
      <trkpt lat="47.64325" lon="6.18454">
        <ele>223.9</ele>
        <time>2022-02-07T15:09:23Z</time>
      </trkpt>
      <trkpt lat="47.64328" lon="6.18447">
        <ele>223.9</ele>
        <time>2022-02-07T15:09:26Z</time>
      </trkpt>
      <trkpt lat="47.6433" lon="6.18441">
        <ele>223.9</ele>
        <time>2022-02-07T15:09:28Z</time>
      </trkpt>
      <trkpt lat="47.64334" lon="6.18435">
        <ele>224.1</ele>
        <time>2022-02-07T15:09:30Z</time>
      </trkpt>
      <trkpt lat="47.64339" lon="6.18428">
        <ele>224.5</ele>
        <time>2022-02-07T15:09:32Z</time>
      </trkpt>
      <trkpt lat="47.64343" lon="6.18421">
        <ele>224.7</ele>
        <time>2022-02-07T15:09:34Z</time>
      </trkpt>
      <trkpt lat="47.64346" lon="6.18414">
        <ele>224.8</ele>
        <time>2022-02-07T15:09:36Z</time>
      </trkpt>
      <trkpt lat="47.64352" lon="6.184">
        <ele>224.4</ele>
        <time>2022-02-07T15:09:39Z</time>
      </trkpt>
      <trkpt lat="47.64355" lon="6.18394">
        <ele>224.1</ele>
        <time>2022-02-07T15:09:40Z</time>
      </trkpt>
      <trkpt lat="47.64359" lon="6.18388">
        <ele>223.9</ele>
        <time>2022-02-07T15:09:42Z</time>
      </trkpt>
      <trkpt lat="47.6437" lon="6.18379">
        <ele>224.2</ele>
        <time>2022-02-07T15:09:45Z</time>
      </trkpt>
      <trkpt lat="47.64375" lon="6.18376">
        <ele>224.3</ele>
        <time>2022-02-07T15:09:46Z</time>
      </trkpt>
      <trkpt lat="47.64381" lon="6.18372">
        <ele>224.4</ele>
        <time>2022-02-07T15:09:48Z</time>
      </trkpt>
      <trkpt lat="47.64387" lon="6.18367">
        <ele>224.3</ele>
        <time>2022-02-07T15:09:50Z</time>
      </trkpt>
      <trkpt lat="47.64391" lon="6.18364">
        <ele>224.4</ele>
        <time>2022-02-07T15:09:51Z</time>
      </trkpt>
      <trkpt lat="47.64395" lon="6.18361">
        <ele>224.5</ele>
        <time>2022-02-07T15:09:52Z</time>
      </trkpt>
      <trkpt lat="47.64402" lon="6.18355">
        <ele>224.6</ele>
        <time>2022-02-07T15:09:54Z</time>
      </trkpt>
      <trkpt lat="47.64417" lon="6.18338">
        <ele>224.4</ele>
        <time>2022-02-07T15:10:00Z</time>
      </trkpt>
      <trkpt lat="47.64422" lon="6.18334">
        <ele>224.5</ele>
        <time>2022-02-07T15:10:02Z</time>
      </trkpt>
      <trkpt lat="47.64427" lon="6.18329">
        <ele>224.6</ele>
        <time>2022-02-07T15:10:04Z</time>
      </trkpt>
      <trkpt lat="47.64437" lon="6.18321">
        <ele>224.7</ele>
        <time>2022-02-07T15:10:09Z</time>
      </trkpt>
      <trkpt lat="47.64439" lon="6.18314">
        <ele>224.3</ele>
        <time>2022-02-07T15:10:12Z</time>
      </trkpt>
      <trkpt lat="47.64436" lon="6.18307">
        <ele>223.8</ele>
        <time>2022-02-07T15:10:14Z</time>
      </trkpt>
      <trkpt lat="47.64432" lon="6.18303">
        <ele>223.5</ele>
        <time>2022-02-07T15:10:16Z</time>
      </trkpt>
      <trkpt lat="47.64426" lon="6.18295">
        <ele>223</ele>
        <time>2022-02-07T15:10:18Z</time>
      </trkpt>
      <trkpt lat="47.64419" lon="6.18285">
        <ele>222.4</ele>
        <time>2022-02-07T15:10:26Z</time>
      </trkpt>
      <trkpt lat="47.64424" lon="6.1829">
        <ele>222.7</ele>
        <time>2022-02-07T15:10:28Z</time>
      </trkpt>
      <trkpt lat="47.64432" lon="6.18304">
        <ele>223.5</ele>
        <time>2022-02-07T15:10:29Z</time>
      </trkpt>
      <trkpt lat="47.64435" lon="6.1831">
        <ele>224</ele>
        <time>2022-02-07T15:11:07Z</time>
      </trkpt>
      <trkpt lat="47.64434" lon="6.18317">
        <ele>224.3</ele>
        <time>2022-02-07T15:11:10Z</time>
      </trkpt>
      <trkpt lat="47.64436" lon="6.18323">
        <ele>224.8</ele>
        <time>2022-02-07T15:11:11Z</time>
      </trkpt>
      <trkpt lat="47.64441" lon="6.18324">
        <ele>225.2</ele>
        <time>2022-02-07T15:11:35Z</time>
      </trkpt>
      <trkpt lat="47.64445" lon="6.18329">
        <ele>225.7</ele>
        <time>2022-02-07T15:11:42Z</time>
      </trkpt>
      <trkpt lat="47.64448" lon="6.18325">
        <ele>225.9</ele>
        <time>2022-02-07T15:13:06Z</time>
      </trkpt>
      <trkpt lat="47.64453" lon="6.18325">
        <ele>226.8</ele>
        <time>2022-02-07T15:13:43Z</time>
      </trkpt>
    </trkseg>
  </trk>
</gpx>